<?xml version="1.0" encoding="UTF-8"?>
<gpx xmlns="http://www.topografix.com/GPX/1/1" xmlns:ns2="http://www.garmin.com/xmlschemas/GpxExtensions/v3" xmlns:ns3="http://www.garmin.com/xmlschemas/TrackPointExtension/v1" xmlns:xsi="http://www.w3.org/2001/XMLSchema-instance" xsi:schemaLocation="http://www.topografix.com/GPX/1/1 http://www.topografix.com/GPX/11.xsd" version="1.1" creator="Garmin Connect">
  <metadata>
    <name>VR - Road 10 Irma/Levrange/Vestone</name>
    <link href="connect.garmin.com">
      <text>Garmin Connect</text>
    </link>
    <time>2017-11-21T09:24:40Z</time>
  </metadata>
  <trk>
    <trkseg>
      <trkpt lat="45.721786804497256" lon="10.230226311832627">
        <ele>403.0</ele>
        <time>2017-11-21T09:24:40Z</time>
      </trkpt>
      <trkpt lat="45.721786972135305" lon="10.230226144194603">
        <ele>403.00547842719715</ele>
        <time>2017-11-21T09:24:40Z</time>
      </trkpt>
      <trkpt lat="45.72183609008789" lon="10.230202674865723">
        <ele>404.3929384352669</ele>
        <time>2017-11-21T09:24:40.083000Z</time>
      </trkpt>
      <trkpt lat="45.72202920913696" lon="10.229945182800293">
        <ele>411.46273390960033</ele>
        <time>2017-11-21T09:24:40.506000Z</time>
      </trkpt>
      <trkpt lat="45.72226524353027" lon="10.229451656341553">
        <ele>418.6866797706613</ele>
        <time>2017-11-21T09:24:41.176000Z</time>
      </trkpt>
      <trkpt lat="45.72254419326782" lon="10.22902250289917">
        <ele>443.10070383305293</ele>
        <time>2017-11-21T09:24:41.832000Z</time>
      </trkpt>
      <trkpt lat="45.722726571854594" lon="10.228931188058816">
        <ele>446.44245562550117</ele>
        <time>2017-11-21T09:24:42.142000Z</time>
      </trkpt>
      <trkpt lat="45.722726638513194" lon="10.22893115468355">
        <ele>446.44185801280474</ele>
        <time>2017-11-21T09:24:42.142000Z</time>
      </trkpt>
      <trkpt lat="45.72272683493793" lon="10.228931056335568">
        <ele>446.44009701066585</ele>
        <time>2017-11-21T09:24:42.142000Z</time>
      </trkpt>
      <trkpt lat="45.7227267511189" lon="10.2289311401546">
        <ele>446.43923187057743</ele>
        <time>2017-11-21T09:24:42.142000Z</time>
      </trkpt>
      <trkpt lat="45.72280168533325" lon="10.228893756866455">
        <ele>445.7676898409342</ele>
        <time>2017-11-21T09:24:42.269000Z</time>
      </trkpt>
      <trkpt lat="45.72310209274292" lon="10.228936672210693">
        <ele>443.21268582914666</ele>
        <time>2017-11-21T09:24:42.753000Z</time>
      </trkpt>
      <trkpt lat="45.723230838775635" lon="10.229065418243408">
        <ele>439.60326184788636</ele>
        <time>2017-11-21T09:24:43.005000Z</time>
      </trkpt>
      <trkpt lat="45.7236385345459" lon="10.230138301849365">
        <ele>420.0</ele>
        <time>2017-11-21T09:24:44.372000Z</time>
      </trkpt>
      <trkpt lat="45.723724365234375" lon="10.230331420898438">
        <ele>420.0419238347995</ele>
        <time>2017-11-21T09:24:44.628000Z</time>
      </trkpt>
      <trkpt lat="45.72406777180731" lon="10.230846405029297">
        <ele>416.8390061707249</ele>
        <time>2017-11-21T09:24:45.425000Z</time>
      </trkpt>
      <trkpt lat="45.725483894348145" lon="10.232627391815186">
        <ele>421.0</ele>
        <time>2017-11-21T09:24:48.446000Z</time>
      </trkpt>
      <trkpt lat="45.72580575942993" lon="10.232734680175781">
        <ele>422.9831119249923</ele>
        <time>2017-11-21T09:24:48.976000Z</time>
      </trkpt>
      <trkpt lat="45.726749897003174" lon="10.232627391815186">
        <ele>444.0</ele>
        <time>2017-11-21T09:24:50.494000Z</time>
      </trkpt>
      <trkpt lat="45.726943016052246" lon="10.232648849487305">
        <ele>444.47522346941474</ele>
        <time>2017-11-21T09:24:50.805000Z</time>
      </trkpt>
      <trkpt lat="45.72735071182251" lon="10.232927799224854">
        <ele>445.5837053611561</ele>
        <time>2017-11-21T09:24:51.529000Z</time>
      </trkpt>
      <trkpt lat="45.727972984313965" lon="10.233850479125977">
        <ele>449.78095563227276</ele>
        <time>2017-11-21T09:24:52.965000Z</time>
      </trkpt>
      <trkpt lat="45.72833776473999" lon="10.234816074371338">
        <ele>447.9740082170513</ele>
        <time>2017-11-21T09:24:54.194000Z</time>
      </trkpt>
      <trkpt lat="45.72865962982178" lon="10.235545635223389">
        <ele>437.3725160380677</ele>
        <time>2017-11-21T09:24:55.160000Z</time>
      </trkpt>
      <trkpt lat="45.72904586791992" lon="10.235846042633057">
        <ele>433.2794638687797</ele>
        <time>2017-11-21T09:24:55.865000Z</time>
      </trkpt>
      <trkpt lat="45.72932481765747" lon="10.235846042633057">
        <ele>433.162555916482</ele>
        <time>2017-11-21T09:24:56.312000Z</time>
      </trkpt>
      <trkpt lat="45.729475021362305" lon="10.23576021194458">
        <ele>434.90654186411115</ele>
        <time>2017-11-21T09:24:56.571000Z</time>
      </trkpt>
      <trkpt lat="45.73005437850952" lon="10.235223770141602">
        <ele>436.9030344822323</ele>
        <time>2017-11-21T09:24:57.677000Z</time>
      </trkpt>
      <trkpt lat="45.73005446232855" lon="10.235223770141602">
        <ele>436.9032546110057</ele>
        <time>2017-11-21T09:24:57.677000Z</time>
      </trkpt>
      <trkpt lat="45.73007583618164" lon="10.235180854797363">
        <ele>436.9999001837535</ele>
        <time>2017-11-21T09:24:57.736000Z</time>
      </trkpt>
      <trkpt lat="45.73041915893555" lon="10.235416889190674">
        <ele>438.0</ele>
        <time>2017-11-21T09:24:58.346000Z</time>
      </trkpt>
      <trkpt lat="45.73078393936157" lon="10.235159397125244">
        <ele>438.0</ele>
        <time>2017-11-21T09:24:58.998000Z</time>
      </trkpt>
      <trkpt lat="45.730890783524664" lon="10.235138028292825">
        <ele>437.3333333333333</ele>
        <time>2017-11-21T09:24:59.171000Z</time>
      </trkpt>
      <trkpt lat="45.73089085393222" lon="10.235138014211264">
        <ele>437.3333333333333</ele>
        <time>2017-11-21T09:24:59.171000Z</time>
      </trkpt>
      <trkpt lat="45.73089122772217" lon="10.235137939453125">
        <ele>437.3333333333333</ele>
        <time>2017-11-21T09:24:59.171000Z</time>
      </trkpt>
      <trkpt lat="45.73078393936177" lon="10.235159397126225">
        <ele>438.0</ele>
        <time>2017-11-21T09:24:59.345000Z</time>
      </trkpt>
      <trkpt lat="45.73041924275458" lon="10.235416889190674">
        <ele>438.0</ele>
        <time>2017-11-21T09:24:59.997000Z</time>
      </trkpt>
      <trkpt lat="45.73007592000067" lon="10.235180854797363">
        <ele>438.0</ele>
        <time>2017-11-21T09:25:00.607000Z</time>
      </trkpt>
      <trkpt lat="45.730247497558594" lon="10.23503065109253">
        <ele>439.70332423646596</ele>
        <time>2017-11-21T09:25:00.929000Z</time>
      </trkpt>
      <trkpt lat="45.730698108673096" lon="10.234816074371338">
        <ele>459.101546378484</ele>
        <time>2017-11-21T09:25:01.690000Z</time>
      </trkpt>
      <trkpt lat="45.731234550476074" lon="10.234687328338623">
        <ele>460.18795062922754</ele>
        <time>2017-11-21T09:25:02.562000Z</time>
      </trkpt>
      <trkpt lat="45.731492042541504" lon="10.234880447387695">
        <ele>458.94538184254225</ele>
        <time>2017-11-21T09:25:03.028000Z</time>
      </trkpt>
      <trkpt lat="45.73187828063965" lon="10.235459804534912">
        <ele>449.5546108588326</ele>
        <time>2017-11-21T09:25:03.925000Z</time>
      </trkpt>
      <trkpt lat="45.732221603393555" lon="10.235631465911865">
        <ele>448.0</ele>
        <time>2017-11-21T09:25:04.508000Z</time>
      </trkpt>
      <trkpt lat="45.73252201080322" lon="10.235610008239746">
        <ele>445.769512876781</ele>
        <time>2017-11-21T09:25:04.990000Z</time>
      </trkpt>
      <trkpt lat="45.732929706573486" lon="10.235309600830078">
        <ele>444.40204597505016</ele>
        <time>2017-11-21T09:25:05.725000Z</time>
      </trkpt>
      <trkpt lat="45.73363780975342" lon="10.234408378601074">
        <ele>438.91022323946487</ele>
        <time>2017-11-21T09:25:07.243000Z</time>
      </trkpt>
      <trkpt lat="45.73387384414673" lon="10.233979225158691">
        <ele>442.593630823237</ele>
        <time>2017-11-21T09:25:07.854000Z</time>
      </trkpt>
      <trkpt lat="45.73404550552368" lon="10.233421325683594">
        <ele>445.2656057266469</ele>
        <time>2017-11-21T09:25:08.536000Z</time>
      </trkpt>
      <trkpt lat="45.7341742515564" lon="10.23327112197876">
        <ele>462.3884203920873</ele>
        <time>2017-11-21T09:25:08.802000Z</time>
      </trkpt>
      <trkpt lat="45.734496116638184" lon="10.23301362991333">
        <ele>467.8418088719996</ele>
        <time>2017-11-21T09:25:09.393000Z</time>
      </trkpt>
      <trkpt lat="45.73486089706421" lon="10.232927799224854">
        <ele>473.31033252921117</ele>
        <time>2017-11-21T09:25:09.986000Z</time>
      </trkpt>
      <trkpt lat="45.735225677490234" lon="10.232927799224854">
        <ele>479.0399009941266</ele>
        <time>2017-11-21T09:25:10.571000Z</time>
      </trkpt>
      <trkpt lat="45.735225761309266" lon="10.232927799224854">
        <ele>479.03971496814756</ele>
        <time>2017-11-21T09:25:10.571000Z</time>
      </trkpt>
      <trkpt lat="45.73561191558838" lon="10.233056545257568">
        <ele>478.15979419889965</ele>
        <time>2017-11-21T09:25:11.207000Z</time>
      </trkpt>
      <trkpt lat="45.73632001876831" lon="10.233657360076904">
        <ele>470.0</ele>
        <time>2017-11-21T09:25:12.526000Z</time>
      </trkpt>
      <trkpt lat="45.73651313781738" lon="10.234043598175049">
        <ele>467.5865927394598</ele>
        <time>2017-11-21T09:25:13.058000Z</time>
      </trkpt>
      <trkpt lat="45.73692083358765" lon="10.235223770141602">
        <ele>455.56438537635034</ele>
        <time>2017-11-21T09:25:14.531000Z</time>
      </trkpt>
      <trkpt lat="45.73726415634155" lon="10.2357816696167">
        <ele>454.50816367626567</ele>
        <time>2017-11-21T09:25:15.363000Z</time>
      </trkpt>
      <trkpt lat="45.73752164840698" lon="10.236039161682129">
        <ele>456.19527799750205</ele>
        <time>2017-11-21T09:25:15.866000Z</time>
      </trkpt>
      <trkpt lat="45.73780059814453" lon="10.236232280731201">
        <ele>456.87320310230916</ele>
        <time>2017-11-21T09:25:16.363000Z</time>
      </trkpt>
      <trkpt lat="45.73930263519287" lon="10.236940383911133">
        <ele>462.0</ele>
        <time>2017-11-21T09:25:18.898000Z</time>
      </trkpt>
      <trkpt lat="45.74065446853638" lon="10.237841606140137">
        <ele>460.7022227801122</ele>
        <time>2017-11-21T09:25:21.288000Z</time>
      </trkpt>
      <trkpt lat="45.741448402404785" lon="10.238356590270996">
        <ele>459.0</ele>
        <time>2017-11-21T09:25:22.685000Z</time>
      </trkpt>
      <trkpt lat="45.74177026748657" lon="10.238420963287354">
        <ele>464.21893150528894</ele>
        <time>2017-11-21T09:25:23.206000Z</time>
      </trkpt>
      <trkpt lat="45.74207067489624" lon="10.238378047943115">
        <ele>467.6005994741186</ele>
        <time>2017-11-21T09:25:23.690000Z</time>
      </trkpt>
      <trkpt lat="45.742778861895204" lon="10.238034725189209">
        <ele>481.64167129040135</ele>
        <time>2017-11-21T09:25:24.889000Z</time>
      </trkpt>
      <trkpt lat="45.74337959289551" lon="10.237734317779541">
        <ele>491.8645197031867</ele>
        <time>2017-11-21T09:25:25.909000Z</time>
      </trkpt>
      <trkpt lat="45.74365854263306" lon="10.237798690795898">
        <ele>492.1313457053174</ele>
        <time>2017-11-21T09:25:26.362000Z</time>
      </trkpt>
      <trkpt lat="45.743958950042725" lon="10.23801326751709">
        <ele>492.44833517168354</ele>
        <time>2017-11-21T09:25:26.900000Z</time>
      </trkpt>
      <trkpt lat="45.744194984436035" lon="10.238292217254639">
        <ele>497.9966111924579</ele>
        <time>2017-11-21T09:25:27.390000Z</time>
      </trkpt>
      <trkpt lat="45.74503183364868" lon="10.24024486541748">
        <ele>475.0</ele>
        <time>2017-11-21T09:25:29.954000Z</time>
      </trkpt>
      <trkpt lat="45.745224952697754" lon="10.240459442138672">
        <ele>475.13769719959237</ele>
        <time>2017-11-21T09:25:30.346000Z</time>
      </trkpt>
      <trkpt lat="45.74533224105835" lon="10.24052381515503">
        <ele>475.20323676901404</ele>
        <time>2017-11-21T09:25:30.532000Z</time>
      </trkpt>
      <trkpt lat="45.74558973312378" lon="10.24050235748291">
        <ele>475.34857181545993</ele>
        <time>2017-11-21T09:25:30.945000Z</time>
      </trkpt>
      <trkpt lat="45.74608334340155" lon="10.240159034729004">
        <ele>476.46567228460026</ele>
        <time>2017-11-21T09:25:31.825000Z</time>
      </trkpt>
      <trkpt lat="45.746684074401855" lon="10.240030288696289">
        <ele>478.0</ele>
        <time>2017-11-21T09:25:32.799000Z</time>
      </trkpt>
      <trkpt lat="45.747177600860596" lon="10.240030288696289">
        <ele>478.44180982302277</ele>
        <time>2017-11-21T09:25:33.590000Z</time>
      </trkpt>
      <trkpt lat="45.74791626197791" lon="10.240527615869526">
        <ele>479.83908028330006</ele>
        <time>2017-11-21T09:25:34.898000Z</time>
      </trkpt>
      <trkpt lat="45.7479162979871" lon="10.240527503192425">
        <ele>479.8390088238673</ele>
        <time>2017-11-21T09:25:34.898000Z</time>
      </trkpt>
      <trkpt lat="45.74791631277974" lon="10.240527513148399">
        <ele>479.838995319772</ele>
        <time>2017-11-21T09:25:34.899000Z</time>
      </trkpt>
      <trkpt lat="45.74829339981079" lon="10.240781307220459">
        <ele>479.49475562053084</ele>
        <time>2017-11-21T09:25:35.567000Z</time>
      </trkpt>
      <trkpt lat="45.74857243336737" lon="10.240931510925293">
        <ele>478.0040557903097</ele>
        <time>2017-11-21T09:25:36.045000Z</time>
      </trkpt>
      <trkpt lat="45.749495113268495" lon="10.241146087646484">
        <ele>478.2225559087824</ele>
        <time>2017-11-21T09:25:37.544000Z</time>
      </trkpt>
      <trkpt lat="45.749945640563965" lon="10.241231918334961">
        <ele>481.2768634227159</ele>
        <time>2017-11-21T09:25:38.273000Z</time>
      </trkpt>
      <trkpt lat="45.75084686279297" lon="10.241231918334961">
        <ele>494.0</ele>
        <time>2017-11-21T09:25:39.718000Z</time>
      </trkpt>
      <trkpt lat="45.75151205062866" lon="10.24176836013794">
        <ele>484.3418912103257</ele>
        <time>2017-11-21T09:25:40.942000Z</time>
      </trkpt>
      <trkpt lat="45.75198411941528" lon="10.24200439453125">
        <ele>485.63643581802324</ele>
        <time>2017-11-21T09:25:41.744000Z</time>
      </trkpt>
      <trkpt lat="45.753207206726074" lon="10.242648124694824">
        <ele>484.0</ele>
        <time>2017-11-21T09:25:43.833000Z</time>
      </trkpt>
      <trkpt lat="45.75337886810303" lon="10.242691040039062">
        <ele>488.1867715747032</ele>
        <time>2017-11-21T09:25:44.112000Z</time>
      </trkpt>
      <trkpt lat="45.75374364852905" lon="10.242648124694824">
        <ele>495.5805079690904</ele>
        <time>2017-11-21T09:25:44.699000Z</time>
      </trkpt>
      <trkpt lat="45.753743732348084" lon="10.242648124694824">
        <ele>495.58220120226406</ele>
        <time>2017-11-21T09:25:44.699000Z</time>
      </trkpt>
      <trkpt lat="45.75500965118408" lon="10.242433547973633">
        <ele>539.0</ele>
        <time>2017-11-21T09:25:46.743000Z</time>
      </trkpt>
      <trkpt lat="45.75539588928223" lon="10.24251937866211">
        <ele>514.1193576466685</ele>
        <time>2017-11-21T09:25:47.370000Z</time>
      </trkpt>
      <trkpt lat="45.75561054982245" lon="10.242648124694824">
        <ele>515.8287787958405</ele>
        <time>2017-11-21T09:25:47.743000Z</time>
      </trkpt>
      <trkpt lat="45.75597524642944" lon="10.242884159088135">
        <ele>523.4350281795633</ele>
        <time>2017-11-21T09:25:48.385000Z</time>
      </trkpt>
      <trkpt lat="45.75676918029785" lon="10.243055820465088">
        <ele>536.0</ele>
        <time>2017-11-21T09:25:49.672000Z</time>
      </trkpt>
      <trkpt lat="45.756919384002686" lon="10.243120193481445">
        <ele>535.7354206143654</ele>
        <time>2017-11-21T09:25:49.923000Z</time>
      </trkpt>
      <trkpt lat="45.75777769088745" lon="10.243914127349854">
        <ele>533.344779833833</ele>
        <time>2017-11-21T09:25:51.561000Z</time>
      </trkpt>
      <trkpt lat="45.75777777470648" lon="10.243914127349854">
        <ele>533.3445871833969</ele>
        <time>2017-11-21T09:25:51.561000Z</time>
      </trkpt>
      <trkpt lat="45.75837850570679" lon="10.24449348449707">
        <ele>530.0137344439075</ele>
        <time>2017-11-21T09:25:52.722000Z</time>
      </trkpt>
      <trkpt lat="45.75855016708374" lon="10.244557857513428">
        <ele>529.6059062122462</ele>
        <time>2017-11-21T09:25:53.006000Z</time>
      </trkpt>
      <trkpt lat="45.7590651512146" lon="10.244557857513428">
        <ele>527.1540423430642</ele>
        <time>2017-11-21T09:25:53.832000Z</time>
      </trkpt>
      <trkpt lat="45.759429931640625" lon="10.244836807250977">
        <ele>536.5873005166974</ele>
        <time>2017-11-21T09:25:54.495000Z</time>
      </trkpt>
      <trkpt lat="45.75973033905029" lon="10.245416164398193">
        <ele>520.533521182988</ele>
        <time>2017-11-21T09:25:55.302000Z</time>
      </trkpt>
      <trkpt lat="45.7599663734436" lon="10.247197151184082">
        <ele>500.0</ele>
        <time>2017-11-21T09:25:57.330000Z</time>
      </trkpt>
      <trkpt lat="45.76003074645996" lon="10.247433185577393">
        <ele>507.681405238008</ele>
        <time>2017-11-21T09:25:57.613000Z</time>
      </trkpt>
      <trkpt lat="45.76024532318115" lon="10.24773359298706">
        <ele>505.8373792045224</ele>
        <time>2017-11-21T09:25:58.094000Z</time>
      </trkpt>
      <trkpt lat="45.760395526885986" lon="10.247862339019775">
        <ele>506.5118602866293</ele>
        <time>2017-11-21T09:25:58.375000Z</time>
      </trkpt>
      <trkpt lat="45.76039561070502" lon="10.247862339019775">
        <ele>506.51218331913554</ele>
        <time>2017-11-21T09:25:58.376000Z</time>
      </trkpt>
      <trkpt lat="45.76065310277045" lon="10.248055458068848">
        <ele>507.6321760233821</ele>
        <time>2017-11-21T09:25:58.842000Z</time>
      </trkpt>
      <trkpt lat="45.76136120595038" lon="10.248548984527588">
        <ele>510.0</ele>
        <time>2017-11-21T09:26:00.104000Z</time>
      </trkpt>
      <trkpt lat="45.76148986816406" lon="10.248720645904541">
        <ele>509.9932200856811</ele>
        <time>2017-11-21T09:26:00.386000Z</time>
      </trkpt>
      <trkpt lat="45.76168307103217" lon="10.24897813796997">
        <ele>516.6497109793796</ele>
        <time>2017-11-21T09:26:00.809000Z</time>
      </trkpt>
      <trkpt lat="45.76179035939276" lon="10.249106884002686">
        <ele>516.6443139075076</ele>
        <time>2017-11-21T09:26:01.033000Z</time>
      </trkpt>
      <trkpt lat="45.76185473240912" lon="10.249192714691162">
        <ele>509.640922777189</ele>
        <time>2017-11-21T09:26:01.174000Z</time>
      </trkpt>
      <trkpt lat="45.76206930913031" lon="10.249600410461426">
        <ele>509.62717979476673</ele>
        <time>2017-11-21T09:26:01.745000Z</time>
      </trkpt>
      <trkpt lat="45.76251983642578" lon="10.250458717346191">
        <ele>512.4192038197851</ele>
        <time>2017-11-21T09:26:02.946000Z</time>
      </trkpt>
      <trkpt lat="45.762970531359315" lon="10.250909328460693">
        <ele>512.0</ele>
        <time>2017-11-21T09:26:03.827000Z</time>
      </trkpt>
      <trkpt lat="45.763464057818055" lon="10.251402854919434">
        <ele>524.587318352665</ele>
        <time>2017-11-21T09:26:04.792000Z</time>
      </trkpt>
      <trkpt lat="45.76367863453925" lon="10.251767635345459">
        <ele>528.7489254673964</ele>
        <time>2017-11-21T09:26:05.326000Z</time>
      </trkpt>
      <trkpt lat="45.764172077178955" lon="10.252819061279297">
        <ele>549.3847952754322</ele>
        <time>2017-11-21T09:26:06.743000Z</time>
      </trkpt>
      <trkpt lat="45.76453685760498" lon="10.25374174118042">
        <ele>551.0</ele>
        <time>2017-11-21T09:26:07.929000Z</time>
      </trkpt>
      <trkpt lat="45.76483726501465" lon="10.25475025177002">
        <ele>557.6151420250103</ele>
        <time>2017-11-21T09:26:09.155000Z</time>
      </trkpt>
      <trkpt lat="45.7651162147522" lon="10.25597333908081">
        <ele>578.0</ele>
        <time>2017-11-21T09:26:10.594000Z</time>
      </trkpt>
      <trkpt lat="45.76558828353882" lon="10.256896018981934">
        <ele>560.8146974963347</ele>
        <time>2017-11-21T09:26:11.874000Z</time>
      </trkpt>
      <trkpt lat="45.76661833561957" lon="10.258162021636963">
        <ele>563.0</ele>
        <time>2017-11-21T09:26:14.049000Z</time>
      </trkpt>
      <trkpt lat="45.76678991317749" lon="10.258526802062988">
        <ele>565.2112334748351</ele>
        <time>2017-11-21T09:26:14.541000Z</time>
      </trkpt>
      <trkpt lat="45.76704740524292" lon="10.259556770324707">
        <ele>558.9163446961621</ele>
        <time>2017-11-21T09:26:15.765000Z</time>
      </trkpt>
      <trkpt lat="45.7670259475708" lon="10.260114669799805">
        <ele>557.0105380071828</ele>
        <time>2017-11-21T09:26:16.390000Z</time>
      </trkpt>
      <trkpt lat="45.76689728535712" lon="10.260887145996094">
        <ele>555.3897101231304</ele>
        <time>2017-11-21T09:26:17.278000Z</time>
      </trkpt>
      <trkpt lat="45.76687574386597" lon="10.261445045471191">
        <ele>554.2174805805857</ele>
        <time>2017-11-21T09:26:17.903000Z</time>
      </trkpt>
      <trkpt lat="45.76696157455444" lon="10.26172399520874">
        <ele>551.2743412638779</ele>
        <time>2017-11-21T09:26:18.244000Z</time>
      </trkpt>
      <trkpt lat="45.76732635498047" lon="10.262024402618408">
        <ele>552.0461657789209</ele>
        <time>2017-11-21T09:26:18.918000Z</time>
      </trkpt>
      <trkpt lat="45.76781988143921" lon="10.262067317962646">
        <ele>560.6199553688078</ele>
        <time>2017-11-21T09:26:19.711000Z</time>
      </trkpt>
      <trkpt lat="45.7678843382746" lon="10.262196063995361">
        <ele>560.2096366970776</ele>
        <time>2017-11-21T09:26:19.888000Z</time>
      </trkpt>
      <trkpt lat="45.76801308430731" lon="10.26247501373291">
        <ele>559.3436020543428</ele>
        <time>2017-11-21T09:26:20.262000Z</time>
      </trkpt>
      <trkpt lat="45.76801308430731" lon="10.262539386749268">
        <ele>550.1769278327662</ele>
        <time>2017-11-21T09:26:20.334000Z</time>
      </trkpt>
      <trkpt lat="45.76801300048828" lon="10.262539386749268">
        <ele>550.1766167167342</ele>
        <time>2017-11-21T09:26:20.334000Z</time>
      </trkpt>
      <trkpt lat="45.76797008514404" lon="10.262646675109863">
        <ele>549.8563959163239</ele>
        <time>2017-11-21T09:26:20.472000Z</time>
      </trkpt>
      <trkpt lat="45.767691135406494" lon="10.262904167175293">
        <ele>548.6249217919027</ele>
        <time>2017-11-21T09:26:21.004000Z</time>
      </trkpt>
      <trkpt lat="45.76760530471802" lon="10.263118743896484">
        <ele>549.9548590555206</ele>
        <time>2017-11-21T09:26:21.281000Z</time>
      </trkpt>
      <trkpt lat="45.7675838470459" lon="10.263676643371582">
        <ele>559.6257511793143</ele>
        <time>2017-11-21T09:26:21.906000Z</time>
      </trkpt>
      <trkpt lat="45.76762676239014" lon="10.26399850845337">
        <ele>563.7019362461867</ele>
        <time>2017-11-21T09:26:22.272000Z</time>
      </trkpt>
      <trkpt lat="45.76751947402954" lon="10.264685153961182">
        <ele>581.1215003543684</ele>
        <time>2017-11-21T09:26:23.059000Z</time>
      </trkpt>
      <trkpt lat="45.767691135406494" lon="10.265607833862305">
        <ele>596.0</ele>
        <time>2017-11-21T09:26:24.127000Z</time>
      </trkpt>
      <trkpt lat="45.76786279678345" lon="10.266058444976807">
        <ele>597.0813413443846</ele>
        <time>2017-11-21T09:26:24.701000Z</time>
      </trkpt>
      <trkpt lat="45.767927169799805" lon="10.266401767730713">
        <ele>597.8300845851204</ele>
        <time>2017-11-21T09:26:25.099000Z</time>
      </trkpt>
      <trkpt lat="45.76801300048828" lon="10.266616344451904">
        <ele>598.351035194059</ele>
        <time>2017-11-21T09:26:25.376000Z</time>
      </trkpt>
      <trkpt lat="45.768184661865234" lon="10.267324447631836">
        <ele>597.9298678381512</ele>
        <time>2017-11-21T09:26:26.214000Z</time>
      </trkpt>
      <trkpt lat="45.76839932240546" lon="10.2677321434021">
        <ele>617.5199939784065</ele>
        <time>2017-11-21T09:26:26.785000Z</time>
      </trkpt>
      <trkpt lat="45.768399238586426" lon="10.2677321434021">
        <ele>617.5212305894596</ele>
        <time>2017-11-21T09:26:26.785000Z</time>
      </trkpt>
      <trkpt lat="45.76861381530762" lon="10.268118381500244">
        <ele>622.6027270668441</ele>
        <time>2017-11-21T09:26:27.337000Z</time>
      </trkpt>
      <trkpt lat="45.768635272979736" lon="10.268247127532959">
        <ele>623.9649860936396</ele>
        <time>2017-11-21T09:26:27.485000Z</time>
      </trkpt>
      <trkpt lat="45.76850652694702" lon="10.269105434417725">
        <ele>633.0</ele>
        <time>2017-11-21T09:26:28.467000Z</time>
      </trkpt>
      <trkpt lat="45.768635272979736" lon="10.269899368286133">
        <ele>628.9969858693152</ele>
        <time>2017-11-21T09:26:29.379000Z</time>
      </trkpt>
      <trkpt lat="45.768678188323975" lon="10.270006656646729">
        <ele>627.0264013673095</ele>
        <time>2017-11-21T09:26:29.517000Z</time>
      </trkpt>
      <trkpt lat="45.76874256134033" lon="10.26998519897461">
        <ele>628.4602438475234</ele>
        <time>2017-11-21T09:26:29.623000Z</time>
      </trkpt>
      <trkpt lat="45.76876401901245" lon="10.269856452941895">
        <ele>628.1349626793366</ele>
        <time>2017-11-21T09:26:29.771000Z</time>
      </trkpt>
      <trkpt lat="45.768635272979736" lon="10.26921272277832">
        <ele>627.1067379675118</ele>
        <time>2017-11-21T09:26:30.520000Z</time>
      </trkpt>
      <trkpt lat="45.76872110366821" lon="10.269083976745605">
        <ele>628.8332961700672</ele>
        <time>2017-11-21T09:26:30.719000Z</time>
      </trkpt>
      <trkpt lat="45.76878547668457" lon="10.269126892089844">
        <ele>628.6770295080288</ele>
        <time>2017-11-21T09:26:30.833000Z</time>
      </trkpt>
      <trkpt lat="45.76880693435669" lon="10.26970624923706">
        <ele>625.7862181218494</ele>
        <time>2017-11-21T09:26:31.482000Z</time>
      </trkpt>
      <trkpt lat="45.76897859573364" lon="10.27022123336792">
        <ele>625.1738408146497</ele>
        <time>2017-11-21T09:26:32.120000Z</time>
      </trkpt>
      <trkpt lat="45.76887130737305" lon="10.270564556121826">
        <ele>627.6010458296022</ele>
        <time>2017-11-21T09:26:32.541000Z</time>
      </trkpt>
      <trkpt lat="45.768935680389404" lon="10.27097225189209">
        <ele>627.6313289102987</ele>
        <time>2017-11-21T09:26:33.008000Z</time>
      </trkpt>
      <trkpt lat="45.77007293701172" lon="10.27198076248169">
        <ele>653.0</ele>
        <time>2017-11-21T09:26:35.152000Z</time>
      </trkpt>
      <trkpt lat="45.770437717437744" lon="10.272002220153809">
        <ele>651.9868747007022</ele>
        <time>2017-11-21T09:26:35.737000Z</time>
      </trkpt>
      <trkpt lat="45.77048063278198" lon="10.272130966186523">
        <ele>651.7106711636666</ele>
        <time>2017-11-21T09:26:35.897000Z</time>
      </trkpt>
      <trkpt lat="45.77009439468384" lon="10.272560119628906">
        <ele>647.6274170417884</ele>
        <time>2017-11-21T09:26:36.680000Z</time>
      </trkpt>
      <trkpt lat="45.77000856399536" lon="10.272774696350098">
        <ele>646.5387675037849</ele>
        <time>2017-11-21T09:26:36.957000Z</time>
      </trkpt>
      <trkpt lat="45.769922733306885" lon="10.274255275726318">
        <ele>635.0</ele>
        <time>2017-11-21T09:26:38.618000Z</time>
      </trkpt>
      <trkpt lat="45.76985836029053" lon="10.274426937103271">
        <ele>636.7670097086758</ele>
        <time>2017-11-21T09:26:38.836000Z</time>
      </trkpt>
      <trkpt lat="45.7694935798645" lon="10.274856090545654">
        <ele>642.9004669284187</ele>
        <time>2017-11-21T09:26:39.593000Z</time>
      </trkpt>
      <trkpt lat="45.76947212219238" lon="10.275027751922607">
        <ele>649.4816287584844</ele>
        <time>2017-11-21T09:26:39.788000Z</time>
      </trkpt>
      <trkpt lat="45.76951503753662" lon="10.275242328643799">
        <ele>651.5054772079083</ele>
        <time>2017-11-21T09:26:40.038000Z</time>
      </trkpt>
      <trkpt lat="45.769665241241455" lon="10.27547836303711">
        <ele>654.5203020981634</ele>
        <time>2017-11-21T09:26:40.395000Z</time>
      </trkpt>
      <trkpt lat="45.76983690261841" lon="10.275628566741943">
        <ele>657.2408257943265</ele>
        <time>2017-11-21T09:26:40.717000Z</time>
      </trkpt>
      <trkpt lat="45.77030897140503" lon="10.275886058807373">
        <ele>672.4067032291815</ele>
        <time>2017-11-21T09:26:41.527000Z</time>
      </trkpt>
      <trkpt lat="45.770630836486816" lon="10.276272296905518">
        <ele>674.0997279437548</ele>
        <time>2017-11-21T09:26:42.200000Z</time>
      </trkpt>
      <trkpt lat="45.770695209503174" lon="10.276272296905518">
        <ele>673.9806326636322</ele>
        <time>2017-11-21T09:26:42.303000Z</time>
      </trkpt>
      <trkpt lat="45.770695209503174" lon="10.276143550872803">
        <ele>673.8144872004613</ele>
        <time>2017-11-21T09:26:42.447000Z</time>
      </trkpt>
      <trkpt lat="45.77024459838867" lon="10.275564193725586">
        <ele>673.0280004539316</ele>
        <time>2017-11-21T09:26:43.417000Z</time>
      </trkpt>
      <trkpt lat="45.77022314071655" lon="10.275263786315918">
        <ele>672.6382971459858</ele>
        <time>2017-11-21T09:26:43.755000Z</time>
      </trkpt>
      <trkpt lat="45.77033042907715" lon="10.275092124938965">
        <ele>672.3408512238917</ele>
        <time>2017-11-21T09:26:44.013000Z</time>
      </trkpt>
      <trkpt lat="45.77073812484741" lon="10.274770259857178">
        <ele>667.3700378213845</ele>
        <time>2017-11-21T09:26:44.759000Z</time>
      </trkpt>
      <trkpt lat="45.77082395553589" lon="10.274577140808105">
        <ele>667.3800538418659</ele>
        <time>2017-11-21T09:26:45.015000Z</time>
      </trkpt>
      <trkpt lat="45.77129602432251" lon="10.273504257202148">
        <ele>679.457983431241</ele>
        <time>2017-11-21T09:26:46.433000Z</time>
      </trkpt>
      <trkpt lat="45.77125310897827" lon="10.272903442382812">
        <ele>674.1680066107791</ele>
        <time>2017-11-21T09:26:47.108000Z</time>
      </trkpt>
      <trkpt lat="45.77127456665039" lon="10.272667407989502">
        <ele>673.6596029235192</ele>
        <time>2017-11-21T09:26:47.374000Z</time>
      </trkpt>
      <trkpt lat="45.77133893966675" lon="10.272517204284668">
        <ele>673.2830696025048</ele>
        <time>2017-11-21T09:26:47.571000Z</time>
      </trkpt>
      <trkpt lat="45.77159643173218" lon="10.272388458251953">
        <ele>671.4480317177022</ele>
        <time>2017-11-21T09:26:48.008000Z</time>
      </trkpt>
      <trkpt lat="45.771660804748535" lon="10.27245283126831">
        <ele>671.9872552295446</ele>
        <time>2017-11-21T09:26:48.134000Z</time>
      </trkpt>
      <trkpt lat="45.771639347076416" lon="10.272560119628906">
        <ele>673.5221192771293</ele>
        <time>2017-11-21T09:26:48.259000Z</time>
      </trkpt>
      <trkpt lat="45.77153205871582" lon="10.272624492645264">
        <ele>674.3211755351136</ele>
        <time>2017-11-21T09:26:48.445000Z</time>
      </trkpt>
      <trkpt lat="45.77146768569946" lon="10.272860527038574">
        <ele>675.9447394015576</ele>
        <time>2017-11-21T09:26:48.728000Z</time>
      </trkpt>
      <trkpt lat="45.7715106010437" lon="10.27294635772705">
        <ele>676.6212652332194</ele>
        <time>2017-11-21T09:26:48.846000Z</time>
      </trkpt>
      <trkpt lat="45.77170372009277" lon="10.273096561431885">
        <ele>682.9724587462282</ele>
        <time>2017-11-21T09:26:49.198000Z</time>
      </trkpt>
      <trkpt lat="45.77178955078125" lon="10.27369737625122">
        <ele>687.9012906124636</ele>
        <time>2017-11-21T09:26:49.884000Z</time>
      </trkpt>
      <trkpt lat="45.77176809310913" lon="10.273890495300293">
        <ele>689.1540471581019</ele>
        <time>2017-11-21T09:26:50.103000Z</time>
      </trkpt>
      <trkpt lat="45.7715106010437" lon="10.27444839477539">
        <ele>693.8722399445278</ele>
        <time>2017-11-21T09:26:50.851000Z</time>
      </trkpt>
      <trkpt lat="45.77153205871582" lon="10.274555683135986">
        <ele>694.4925829918517</ele>
        <time>2017-11-21T09:26:50.976000Z</time>
      </trkpt>
      <trkpt lat="45.77159643173218" lon="10.274577140808105">
        <ele>695.0192083178167</ele>
        <time>2017-11-21T09:26:51.082000Z</time>
      </trkpt>
      <trkpt lat="45.77185392379761" lon="10.274126529693604">
        <ele>697.256849830955</ele>
        <time>2017-11-21T09:26:51.733000Z</time>
      </trkpt>
      <trkpt lat="45.771939754486084" lon="10.274147987365723">
        <ele>697.9510944981988</ele>
        <time>2017-11-21T09:26:51.873000Z</time>
      </trkpt>
      <trkpt lat="45.771939754486084" lon="10.274276733398438">
        <ele>703.0</ele>
        <time>2017-11-21T09:26:52.017000Z</time>
      </trkpt>
      <trkpt lat="45.771682262420654" lon="10.275006294250488">
        <ele>710.3482846638664</ele>
        <time>2017-11-21T09:26:52.931000Z</time>
      </trkpt>
      <trkpt lat="45.771639347076416" lon="10.275177955627441">
        <ele>707.9103873798018</ele>
        <time>2017-11-21T09:26:53.135000Z</time>
      </trkpt>
      <trkpt lat="45.771682262420654" lon="10.275285243988037">
        <ele>711.85103067632</ele>
        <time>2017-11-21T09:26:53.273000Z</time>
      </trkpt>
      <trkpt lat="45.77183246612549" lon="10.275413990020752">
        <ele>713.0830147850912</ele>
        <time>2017-11-21T09:26:53.554000Z</time>
      </trkpt>
      <trkpt lat="45.77226161956787" lon="10.275306701660156">
        <ele>716.1497730969642</ele>
        <time>2017-11-21T09:26:54.252000Z</time>
      </trkpt>
      <trkpt lat="45.772411823272705" lon="10.275349617004395">
        <ele>717.8355789890865</ele>
        <time>2017-11-21T09:26:54.498000Z</time>
      </trkpt>
      <trkpt lat="45.77284097671509" lon="10.27571439743042">
        <ele>728.9937470902975</ele>
        <time>2017-11-21T09:26:55.298000Z</time>
      </trkpt>
      <trkpt lat="45.77301263809204" lon="10.276100635528564">
        <ele>734.509886688966</ele>
        <time>2017-11-21T09:26:55.810000Z</time>
      </trkpt>
      <trkpt lat="45.773141384124756" lon="10.276079177856445">
        <ele>735.6491359942747</ele>
        <time>2017-11-21T09:26:56.018000Z</time>
      </trkpt>
      <trkpt lat="45.773141384124756" lon="10.275928974151611">
        <ele>736.5700001238888</ele>
        <time>2017-11-21T09:26:56.186000Z</time>
      </trkpt>
      <trkpt lat="45.772926807403564" lon="10.27545690536499">
        <ele>736.5959623964318</ele>
        <time>2017-11-21T09:26:56.816000Z</time>
      </trkpt>
      <trkpt lat="45.7729697227478" lon="10.27519941329956">
        <ele>737.5478554610792</ele>
        <time>2017-11-21T09:26:57.112000Z</time>
      </trkpt>
      <trkpt lat="45.77305555343628" lon="10.275092124938965">
        <ele>738.1348592162664</ele>
        <time>2017-11-21T09:26:57.295000Z</time>
      </trkpt>
      <trkpt lat="45.773184299468994" lon="10.275049209594727">
        <ele>738.8162349328431</ele>
        <time>2017-11-21T09:26:57.507000Z</time>
      </trkpt>
      <trkpt lat="45.773420417681336" lon="10.27522087097168">
        <ele>745.1809512983945</ele>
        <time>2017-11-21T09:26:57.931000Z</time>
      </trkpt>
      <trkpt lat="45.77359199523926" lon="10.27644395828247">
        <ele>752.0</ele>
        <time>2017-11-21T09:26:59.326000Z</time>
      </trkpt>
      <trkpt lat="45.77354916371405" lon="10.277023315429688">
        <ele>758.4369611006292</ele>
        <time>2017-11-21T09:26:59.977000Z</time>
      </trkpt>
      <trkpt lat="45.77352770604193" lon="10.277173519134521">
        <ele>759.6923458910906</ele>
        <time>2017-11-21T09:27:00.148000Z</time>
      </trkpt>
      <trkpt lat="45.773463333025575" lon="10.27747392654419">
        <ele>763.3340381176599</ele>
        <time>2017-11-21T09:27:00.499000Z</time>
      </trkpt>
      <trkpt lat="45.773377418518066" lon="10.277924537658691">
        <ele>772.4139542320567</ele>
        <time>2017-11-21T09:27:01.021000Z</time>
      </trkpt>
      <trkpt lat="45.7735276222229" lon="10.2787184715271">
        <ele>788.9464556560209</ele>
        <time>2017-11-21T09:27:01.941000Z</time>
      </trkpt>
      <trkpt lat="45.7735276222229" lon="10.278997421264648">
        <ele>792.1789148104472</ele>
        <time>2017-11-21T09:27:02.253000Z</time>
      </trkpt>
      <trkpt lat="45.77346324920654" lon="10.279169082641602">
        <ele>796.7519581059306</ele>
        <time>2017-11-21T09:27:02.471000Z</time>
      </trkpt>
      <trkpt lat="45.77301263809204" lon="10.27944803237915">
        <ele>777.2777797112864</ele>
        <time>2017-11-21T09:27:03.258000Z</time>
      </trkpt>
      <trkpt lat="45.77281951904297" lon="10.27946949005127">
        <ele>774.4597197513485</ele>
        <time>2017-11-21T09:27:03.569000Z</time>
      </trkpt>
      <trkpt lat="45.77249773778021" lon="10.279383659362793">
        <ele>766.0312121994066</ele>
        <time>2017-11-21T09:27:04.094000Z</time>
      </trkpt>
      <trkpt lat="45.771939838305116" lon="10.279641151428223">
        <ele>757.5042548440591</ele>
        <time>2017-11-21T09:27:05.034000Z</time>
      </trkpt>
      <trkpt lat="45.771403312683105" lon="10.27994155883789">
        <ele>755.0153370820798</ele>
        <time>2017-11-21T09:27:05.957000Z</time>
      </trkpt>
      <trkpt lat="45.77133893966675" lon="10.280070304870605">
        <ele>761.8807448454555</ele>
        <time>2017-11-21T09:27:06.134000Z</time>
      </trkpt>
      <trkpt lat="45.77127456665039" lon="10.280349254608154">
        <ele>764.1042271660111</ele>
        <time>2017-11-21T09:27:06.463000Z</time>
      </trkpt>
      <trkpt lat="45.77133893966675" lon="10.280585289001465">
        <ele>766.976429770556</ele>
        <time>2017-11-21T09:27:06.746000Z</time>
      </trkpt>
      <trkpt lat="45.77176809310913" lon="10.28144359588623">
        <ele>790.9446034856832</ele>
        <time>2017-11-21T09:27:07.927000Z</time>
      </trkpt>
      <trkpt lat="45.771918296813965" lon="10.281980037689209">
        <ele>799.4956367918934</ele>
        <time>2017-11-21T09:27:08.573000Z</time>
      </trkpt>
      <trkpt lat="45.771896839141846" lon="10.282237529754639">
        <ele>799.7980423251498</ele>
        <time>2017-11-21T09:27:08.863000Z</time>
      </trkpt>
      <trkpt lat="45.77184931375086" lon="10.282296873629093">
        <ele>799.9034088024779</ele>
        <time>2017-11-21T09:27:08.964000Z</time>
      </trkpt>
      <trkpt lat="45.77184929870746" lon="10.282296881150835">
        <ele>799.9034354382608</ele>
        <time>2017-11-21T09:27:08.964000Z</time>
      </trkpt>
      <trkpt lat="45.7718491461128" lon="10.282296957448125">
        <ele>799.9037056214912</ele>
        <time>2017-11-21T09:27:08.964000Z</time>
      </trkpt>
      <trkpt lat="45.77181100845337" lon="10.282344818115234">
        <ele>799.9884423332873</ele>
        <time>2017-11-21T09:27:09.045000Z</time>
      </trkpt>
      <trkpt lat="45.77103853225708" lon="10.282666683197021">
        <ele>797.0</ele>
        <time>2017-11-21T09:27:10.335000Z</time>
      </trkpt>
      <trkpt lat="45.770909786224365" lon="10.282902717590332">
        <ele>795.9377716712279</ele>
        <time>2017-11-21T09:27:10.670000Z</time>
      </trkpt>
      <trkpt lat="45.770909786224365" lon="10.283117294311523">
        <ele>795.1770762995405</ele>
        <time>2017-11-21T09:27:10.910000Z</time>
      </trkpt>
      <trkpt lat="45.770952785387635" lon="10.283567905426025">
        <ele>798.231404900737</ele>
        <time>2017-11-21T09:27:11.419000Z</time>
      </trkpt>
      <trkpt lat="45.77101707458496" lon="10.284297466278076">
        <ele>796.6244882962638</ele>
        <time>2017-11-21T09:27:12.241000Z</time>
      </trkpt>
      <trkpt lat="45.77082403935492" lon="10.284984111785889">
        <ele>784.0</ele>
        <time>2017-11-21T09:27:13.069000Z</time>
      </trkpt>
      <trkpt lat="45.77078104019165" lon="10.285177230834961">
        <ele>785.4278626871728</ele>
        <time>2017-11-21T09:27:13.296000Z</time>
      </trkpt>
      <trkpt lat="45.77080249786377" lon="10.28545618057251">
        <ele>786.020188059616</ele>
        <time>2017-11-21T09:27:13.610000Z</time>
      </trkpt>
      <trkpt lat="45.77103853225708" lon="10.285520553588867">
        <ele>795.0805327575868</ele>
        <time>2017-11-21T09:27:13.995000Z</time>
      </trkpt>
      <trkpt lat="45.77157497406006" lon="10.286786556243896">
        <ele>791.5402783488138</ele>
        <time>2017-11-21T09:27:15.651000Z</time>
      </trkpt>
      <trkpt lat="45.771639347076416" lon="10.287258625030518">
        <ele>792.0</ele>
        <time>2017-11-21T09:27:16.189000Z</time>
      </trkpt>
      <trkpt lat="45.77157497406006" lon="10.28745174407959">
        <ele>791.6525255646906</ele>
        <time>2017-11-21T09:27:16.428000Z</time>
      </trkpt>
      <trkpt lat="45.77125310897827" lon="10.287880897521973">
        <ele>790.3137769052706</ele>
        <time>2017-11-21T09:27:17.133000Z</time>
      </trkpt>
      <trkpt lat="45.771188735961914" lon="10.288052558898926">
        <ele>790.3121020396184</ele>
        <time>2017-11-21T09:27:17.351000Z</time>
      </trkpt>
      <trkpt lat="45.771145820617676" lon="10.288760662078857">
        <ele>795.6393272750958</ele>
        <time>2017-11-21T09:27:18.146000Z</time>
      </trkpt>
      <trkpt lat="45.77125310897827" lon="10.289897918701172">
        <ele>795.9628019923688</ele>
        <time>2017-11-21T09:27:19.429000Z</time>
      </trkpt>
      <trkpt lat="45.77148914337158" lon="10.291271209716797">
        <ele>771.0</ele>
        <time>2017-11-21T09:27:21.011000Z</time>
      </trkpt>
      <trkpt lat="45.7716178894043" lon="10.291657447814941">
        <ele>768.9318455616645</ele>
        <time>2017-11-21T09:27:21.490000Z</time>
      </trkpt>
      <trkpt lat="45.771896839141846" lon="10.291872024536133">
        <ele>770.4058540950991</ele>
        <time>2017-11-21T09:27:21.998000Z</time>
      </trkpt>
      <trkpt lat="45.771939754486084" lon="10.291979312896729">
        <ele>769.8083339272908</ele>
        <time>2017-11-21T09:27:22.136000Z</time>
      </trkpt>
      <trkpt lat="45.771918296813965" lon="10.292086601257324">
        <ele>769.269109142233</ele>
        <time>2017-11-21T09:27:22.261000Z</time>
      </trkpt>
      <trkpt lat="45.77181100845337" lon="10.292150974273682">
        <ele>768.4635350016179</ele>
        <time>2017-11-21T09:27:22.447000Z</time>
      </trkpt>
      <trkpt lat="45.771167278289795" lon="10.29219388961792">
        <ele>755.0</ele>
        <time>2017-11-21T09:27:23.480000Z</time>
      </trkpt>
      <trkpt lat="45.770931243896484" lon="10.292301177978516">
        <ele>753.4186209375252</ele>
        <time>2017-11-21T09:27:23.877000Z</time>
      </trkpt>
      <trkpt lat="45.7705020904541" lon="10.29268741607666">
        <ele>743.8492006564167</ele>
        <time>2017-11-21T09:27:24.689000Z</time>
      </trkpt>
      <trkpt lat="45.77037334442139" lon="10.292901992797852">
        <ele>745.8963054428726</ele>
        <time>2017-11-21T09:27:25.006000Z</time>
      </trkpt>
      <trkpt lat="45.77028751373291" lon="10.293481349945068">
        <ele>756.1800520745896</ele>
        <time>2017-11-21T09:27:25.668000Z</time>
      </trkpt>
      <trkpt lat="45.77028751373291" lon="10.293653011322021">
        <ele>757.421616648905</ele>
        <time>2017-11-21T09:27:25.860000Z</time>
      </trkpt>
      <trkpt lat="45.770480716601014" lon="10.294017791748047">
        <ele>760.7342995406493</ele>
        <time>2017-11-21T09:27:26.372000Z</time>
      </trkpt>
      <trkpt lat="45.77048063278198" lon="10.294017791748047">
        <ele>760.7351686456417</ele>
        <time>2017-11-21T09:27:26.372000Z</time>
      </trkpt>
      <trkpt lat="45.7703519705683" lon="10.29421091079712">
        <ele>767.0</ele>
        <time>2017-11-21T09:27:26.671000Z</time>
      </trkpt>
      <trkpt lat="45.77035188674927" lon="10.29421091079712">
        <ele>766.9985599101583</ele>
        <time>2017-11-21T09:27:26.671000Z</time>
      </trkpt>
      <trkpt lat="45.770180225372314" lon="10.29421091079712">
        <ele>764.0492559143175</ele>
        <time>2017-11-21T09:27:26.946000Z</time>
      </trkpt>
      <trkpt lat="45.76975107192993" lon="10.294017791748047">
        <ele>743.9879518299634</ele>
        <time>2017-11-21T09:27:27.667000Z</time>
      </trkpt>
      <trkpt lat="45.769386291503906" lon="10.293374061584473">
        <ele>734.0483123781258</ele>
        <time>2017-11-21T09:27:28.594000Z</time>
      </trkpt>
      <trkpt lat="45.76908588409424" lon="10.292665958404541">
        <ele>725.7290960065471</ele>
        <time>2017-11-21T09:27:29.521000Z</time>
      </trkpt>
      <trkpt lat="45.76904296875" lon="10.29242992401123">
        <ele>722.5359363879865</ele>
        <time>2017-11-21T09:27:29.794000Z</time>
      </trkpt>
      <trkpt lat="45.76902151107788" lon="10.291485786437988">
        <ele>713.0</ele>
        <time>2017-11-21T09:27:30.850000Z</time>
      </trkpt>
      <trkpt lat="45.76880693435669" lon="10.291121006011963">
        <ele>715.9145742480787</ele>
        <time>2017-11-21T09:27:31.384000Z</time>
      </trkpt>
      <trkpt lat="45.76852798461914" lon="10.29092788696289">
        <ele>718.6270757860929</ele>
        <time>2017-11-21T09:27:31.881000Z</time>
      </trkpt>
      <trkpt lat="45.76835632324219" lon="10.290412902832031">
        <ele>718.4466761189302</ele>
        <time>2017-11-21T09:27:32.519000Z</time>
      </trkpt>
      <trkpt lat="45.76824903488159" lon="10.290219783782959">
        <ele>728.9546608319474</ele>
        <time>2017-11-21T09:27:32.795000Z</time>
      </trkpt>
      <trkpt lat="45.767455101013184" lon="10.289168357849121">
        <ele>742.6450315012371</ele>
        <time>2017-11-21T09:27:34.528000Z</time>
      </trkpt>
      <trkpt lat="45.76736927032471" lon="10.28895378112793">
        <ele>744.0852375155597</ele>
        <time>2017-11-21T09:27:34.805000Z</time>
      </trkpt>
      <trkpt lat="45.76730489730835" lon="10.288524627685547">
        <ele>745.1701154318898</ele>
        <time>2017-11-21T09:27:35.296000Z</time>
      </trkpt>
      <trkpt lat="45.76704740524292" lon="10.28818130493164">
        <ele>747.7493297919873</ele>
        <time>2017-11-21T09:27:35.860000Z</time>
      </trkpt>
      <trkpt lat="45.76709032058716" lon="10.287559032440186">
        <ele>749.2947527653956</ele>
        <time>2017-11-21T09:27:36.559000Z</time>
      </trkpt>
      <trkpt lat="45.76704740524292" lon="10.28743028640747">
        <ele>749.6474054372779</ele>
        <time>2017-11-21T09:27:36.719000Z</time>
      </trkpt>
      <trkpt lat="45.766940116882324" lon="10.287344455718994">
        <ele>750.4770742283073</ele>
        <time>2017-11-21T09:27:36.916000Z</time>
      </trkpt>
      <trkpt lat="45.76623201370239" lon="10.287280082702637">
        <ele>758.9349704603395</ele>
        <time>2017-11-21T09:27:38.053000Z</time>
      </trkpt>
      <trkpt lat="45.76586723327637" lon="10.287516117095947">
        <ele>763.4714775093256</ele>
        <time>2017-11-21T09:27:38.695000Z</time>
      </trkpt>
      <trkpt lat="45.76552391052246" lon="10.287387371063232">
        <ele>764.0468245003394</ele>
        <time>2017-11-21T09:27:39.264000Z</time>
      </trkpt>
      <trkpt lat="45.765395164489746" lon="10.28743028640747">
        <ele>764.7577525803545</ele>
        <time>2017-11-21T09:27:39.476000Z</time>
      </trkpt>
      <trkpt lat="45.76498746871948" lon="10.289082527160645">
        <ele>777.0</ele>
        <time>2017-11-21T09:27:41.436000Z</time>
      </trkpt>
      <trkpt lat="45.76472997665405" lon="10.289468765258789">
        <ele>786.6035695033602</ele>
        <time>2017-11-21T09:27:42.033000Z</time>
      </trkpt>
      <trkpt lat="45.7641077041626" lon="10.289876461029053">
        <ele>787.6070352015528</ele>
        <time>2017-11-21T09:27:43.130000Z</time>
      </trkpt>
      <trkpt lat="45.763700008392334" lon="10.290477275848389">
        <ele>808.9096567595752</ele>
        <time>2017-11-21T09:27:44.067000Z</time>
      </trkpt>
      <trkpt lat="45.76324939727783" lon="10.291593074798584">
        <ele>822.0</ele>
        <time>2017-11-21T09:27:45.509000Z</time>
      </trkpt>
      <trkpt lat="45.76324939727783" lon="10.291786193847656">
        <ele>830.1042541598144</ele>
        <time>2017-11-21T09:27:45.725000Z</time>
      </trkpt>
      <trkpt lat="45.76331377029419" lon="10.291764736175537">
        <ele>830.4824375636916</ele>
        <time>2017-11-21T09:27:45.831000Z</time>
      </trkpt>
      <trkpt lat="45.76348543167114" lon="10.291571617126465">
        <ele>830.7311120945296</ele>
        <time>2017-11-21T09:27:46.181000Z</time>
      </trkpt>
      <trkpt lat="45.76397895812988" lon="10.290884971618652">
        <ele>834.6666666666666</ele>
        <time>2017-11-21T09:27:47.284000Z</time>
      </trkpt>
      <trkpt lat="45.76408624649048" lon="10.290799140930176">
        <ele>825.3969624801316</ele>
        <time>2017-11-21T09:27:47.481000Z</time>
      </trkpt>
      <trkpt lat="45.76412916183472" lon="10.290884971618652">
        <ele>836.710167584146</ele>
        <time>2017-11-21T09:27:47.599000Z</time>
      </trkpt>
      <trkpt lat="45.763893127441406" lon="10.291228294372559">
        <ele>841.1829439351045</ele>
        <time>2017-11-21T09:27:48.138000Z</time>
      </trkpt>
      <trkpt lat="45.76350688934326" lon="10.292129516601562">
        <ele>861.997545990021</ele>
        <time>2017-11-21T09:27:49.321000Z</time>
      </trkpt>
      <trkpt lat="45.763142108917236" lon="10.292623043060303">
        <ele>859.7793744665138</ele>
        <time>2017-11-21T09:27:50.125000Z</time>
      </trkpt>
      <trkpt lat="45.7629919052124" lon="10.292730331420898">
        <ele>859.2602936277314</ele>
        <time>2017-11-21T09:27:50.394000Z</time>
      </trkpt>
      <trkpt lat="45.76286315917969" lon="10.29270887374878">
        <ele>858.8593870398395</ele>
        <time>2017-11-21T09:27:50.602000Z</time>
      </trkpt>
      <trkpt lat="45.76273441314697" lon="10.292601585388184">
        <ele>858.3987574539215</ele>
        <time>2017-11-21T09:27:50.841000Z</time>
      </trkpt>
      <trkpt lat="45.76251983642578" lon="10.292215347290039">
        <ele>848.0</ele>
        <time>2017-11-21T09:27:51.393000Z</time>
      </trkpt>
      <trkpt lat="45.76230525970459" lon="10.29146432876587">
        <ele>857.5189109689594</ele>
        <time>2017-11-21T09:27:52.301000Z</time>
      </trkpt>
      <trkpt lat="45.762176513671875" lon="10.290820598602295">
        <ele>859.3059820154612</ele>
        <time>2017-11-21T09:27:53.050000Z</time>
      </trkpt>
      <trkpt lat="45.76187610626221" lon="10.290327072143555">
        <ele>862.4447511487524</ele>
        <time>2017-11-21T09:27:53.783000Z</time>
      </trkpt>
      <trkpt lat="45.76176881790161" lon="10.28996229171753">
        <ele>862.6751968355738</ele>
        <time>2017-11-21T09:27:54.226000Z</time>
      </trkpt>
      <trkpt lat="45.76159715652466" lon="10.289747714996338">
        <ele>869.9064238613219</ele>
        <time>2017-11-21T09:27:54.591000Z</time>
      </trkpt>
      <trkpt lat="45.76127529144287" lon="10.289511680603027">
        <ele>872.0636556238666</ele>
        <time>2017-11-21T09:27:55.171000Z</time>
      </trkpt>
      <trkpt lat="45.76073884963989" lon="10.289382934570312">
        <ele>881.9876594884778</ele>
        <time>2017-11-21T09:27:56.043000Z</time>
      </trkpt>
      <trkpt lat="45.76026678085327" lon="10.289361476898193">
        <ele>885.6845362115931</ele>
        <time>2017-11-21T09:27:56.800000Z</time>
      </trkpt>
      <trkpt lat="45.7599235419184" lon="10.28944730758667">
        <ele>889.4117452617746</ele>
        <time>2017-11-21T09:27:57.359000Z</time>
      </trkpt>
      <trkpt lat="45.75938701629639" lon="10.289533138275146">
        <ele>892.701363112476</ele>
        <time>2017-11-21T09:27:58.224000Z</time>
      </trkpt>
      <trkpt lat="45.75910806655884" lon="10.289661884307861">
        <ele>887.9449527682646</ele>
        <time>2017-11-21T09:27:58.694000Z</time>
      </trkpt>
      <trkpt lat="45.75855016708374" lon="10.290133953094482">
        <ele>898.1501232278191</ele>
        <time>2017-11-21T09:27:59.733000Z</time>
      </trkpt>
      <trkpt lat="45.75848579406738" lon="10.290069580078125">
        <ele>897.5436406750268</ele>
        <time>2017-11-21T09:27:59.859000Z</time>
      </trkpt>
      <trkpt lat="45.758421421051025" lon="10.289468765258789">
        <ele>884.6001337748421</ele>
        <time>2017-11-21T09:28:00.539000Z</time>
      </trkpt>
      <trkpt lat="45.758163928985596" lon="10.289297103881836">
        <ele>880.7392217890437</ele>
        <time>2017-11-21T09:28:00.994000Z</time>
      </trkpt>
      <trkpt lat="45.75676926411688" lon="10.288825035095215">
        <ele>869.0</ele>
        <time>2017-11-21T09:28:03.291000Z</time>
      </trkpt>
      <trkpt lat="45.75676918029785" lon="10.288825035095215">
        <ele>869.0001133109936</ele>
        <time>2017-11-21T09:28:03.291000Z</time>
      </trkpt>
      <trkpt lat="45.75659760273993" lon="10.288760662078857">
        <ele>872.4413078672966</ele>
        <time>2017-11-21T09:28:03.575000Z</time>
      </trkpt>
      <trkpt lat="45.75659760273993" lon="10.288825035095215">
        <ele>872.5530341483654</ele>
        <time>2017-11-21T09:28:03.647000Z</time>
      </trkpt>
      <trkpt lat="45.75651168823242" lon="10.289254188537598">
        <ele>871.6612656570409</ele>
        <time>2017-11-21T09:28:04.146000Z</time>
      </trkpt>
      <trkpt lat="45.75634002685547" lon="10.289533138275146">
        <ele>872.3068263419123</ele>
        <time>2017-11-21T09:28:04.562000Z</time>
      </trkpt>
      <trkpt lat="45.75617414366308" lon="10.289674319023888">
        <ele>872.786744317723</ele>
        <time>2017-11-21T09:28:04.871000Z</time>
      </trkpt>
      <trkpt lat="45.75617398135364" lon="10.289674457162619">
        <ele>872.7882169416829</ele>
        <time>2017-11-21T09:28:04.871000Z</time>
      </trkpt>
      <trkpt lat="45.75617397024262" lon="10.289674556917877">
        <ele>872.7887667848587</ele>
        <time>2017-11-21T09:28:04.871000Z</time>
      </trkpt>
      <trkpt lat="45.7561728078872" lon="10.289675546810031">
        <ele>872.7993145230663</ele>
        <time>2017-11-21T09:28:04.873000Z</time>
      </trkpt>
      <trkpt lat="45.75617289170623" lon="10.289675462991">
        <ele>872.8001118398511</ele>
        <time>2017-11-21T09:28:04.873000Z</time>
      </trkpt>
      <trkpt lat="45.75576066970825" lon="10.290026664733887">
        <ele>876.8745369326292</ele>
        <time>2017-11-21T09:28:05.642000Z</time>
      </trkpt>
      <trkpt lat="45.755653381347656" lon="10.29019832611084">
        <ele>879.4409870171189</ele>
        <time>2017-11-21T09:28:05.900000Z</time>
      </trkpt>
      <trkpt lat="45.755417346954346" lon="10.29094934463501">
        <ele>896.613755808563</ele>
        <time>2017-11-21T09:28:06.821000Z</time>
      </trkpt>
      <trkpt lat="45.755181312561035" lon="10.292000770568848">
        <ele>914.9137397384402</ele>
        <time>2017-11-21T09:28:08.056000Z</time>
      </trkpt>
      <trkpt lat="45.75511693954468" lon="10.292215347290039">
        <ele>913.0088830065118</ele>
        <time>2017-11-21T09:28:08.317000Z</time>
      </trkpt>
      <trkpt lat="45.75503119267523" lon="10.292279720306396">
        <ele>910.7714302741911</ele>
        <time>2017-11-21T09:28:08.472000Z</time>
      </trkpt>
      <trkpt lat="45.7550311088562" lon="10.292279720306396">
        <ele>910.7694928273845</ele>
        <time>2017-11-21T09:28:08.472000Z</time>
      </trkpt>
      <trkpt lat="45.754687786102295" lon="10.292258262634277">
        <ele>888.4928353052966</ele>
        <time>2017-11-21T09:28:09.023000Z</time>
      </trkpt>
      <trkpt lat="45.75451612472534" lon="10.292322635650635">
        <ele>884.3913705938239</ele>
        <time>2017-11-21T09:28:09.307000Z</time>
      </trkpt>
      <trkpt lat="45.753936767578125" lon="10.29270887374878">
        <ele>886.7508359839172</ele>
        <time>2017-11-21T09:28:10.331000Z</time>
      </trkpt>
      <trkpt lat="45.75378656387329" lon="10.292751789093018">
        <ele>886.2777047767344</ele>
        <time>2017-11-21T09:28:10.577000Z</time>
      </trkpt>
      <trkpt lat="45.753185749053955" lon="10.292665958404541">
        <ele>882.4125039182289</ele>
        <time>2017-11-21T09:28:11.545000Z</time>
      </trkpt>
      <trkpt lat="45.75275659561157" lon="10.293052196502686">
        <ele>881.0921186234069</ele>
        <time>2017-11-21T09:28:12.357000Z</time>
      </trkpt>
      <trkpt lat="45.752220153808594" lon="10.293352603912354">
        <ele>883.7973869941637</ele>
        <time>2017-11-21T09:28:13.280000Z</time>
      </trkpt>
      <trkpt lat="45.7520055770874" lon="10.293567180633545">
        <ele>882.4942777409459</ele>
        <time>2017-11-21T09:28:13.699000Z</time>
      </trkpt>
      <trkpt lat="45.75176954269409" lon="10.294060707092285">
        <ele>880.4150088353123</ele>
        <time>2017-11-21T09:28:14.368000Z</time>
      </trkpt>
      <trkpt lat="45.751683712005615" lon="10.294082164764404">
        <ele>879.9810858639843</ele>
        <time>2017-11-21T09:28:14.508000Z</time>
      </trkpt>
      <trkpt lat="45.751490676775575" lon="10.293889045715332">
        <ele>873.1419596476222</ele>
        <time>2017-11-21T09:28:14.885000Z</time>
      </trkpt>
      <trkpt lat="45.75136184692383" lon="10.293824672698975">
        <ele>872.4624600077947</ele>
        <time>2017-11-21T09:28:15.104000Z</time>
      </trkpt>
      <trkpt lat="45.75086832046509" lon="10.293781757354736">
        <ele>870.0</ele>
        <time>2017-11-21T09:28:15.897000Z</time>
      </trkpt>
      <trkpt lat="45.75033187866211" lon="10.293567180633545">
        <ele>868.0501375740802</ele>
        <time>2017-11-21T09:28:16.790000Z</time>
      </trkpt>
      <trkpt lat="45.75007438659668" lon="10.293610095977783">
        <ele>867.9183255436052</ele>
        <time>2017-11-21T09:28:17.206000Z</time>
      </trkpt>
      <trkpt lat="45.749924182891846" lon="10.293803215026855">
        <ele>867.4823848020155</ele>
        <time>2017-11-21T09:28:17.530000Z</time>
      </trkpt>
      <trkpt lat="45.74985980987549" lon="10.29416799545288">
        <ele>873.9663929115144</ele>
        <time>2017-11-21T09:28:17.951000Z</time>
      </trkpt>
      <trkpt lat="45.74985989369452" lon="10.294618606567383">
        <ele>875.7436264225822</ele>
        <time>2017-11-21T09:28:18.455000Z</time>
      </trkpt>
      <trkpt lat="45.749945640563965" lon="10.295605659484863">
        <ele>880.0</ele>
        <time>2017-11-21T09:28:19.568000Z</time>
      </trkpt>
      <trkpt lat="45.75037479400635" lon="10.296528339385986">
        <ele>895.4288256134338</ele>
        <time>2017-11-21T09:28:20.808000Z</time>
      </trkpt>
      <trkpt lat="45.75078248977661" lon="10.29695749282837">
        <ele>894.1830449851151</ele>
        <time>2017-11-21T09:28:21.619000Z</time>
      </trkpt>
      <trkpt lat="45.751941204071045" lon="10.297515392303467">
        <ele>928.0</ele>
        <time>2017-11-21T09:28:23.579000Z</time>
      </trkpt>
      <trkpt lat="45.75226306915283" lon="10.29792308807373">
        <ele>921.32155449224</ele>
        <time>2017-11-21T09:28:24.268000Z</time>
      </trkpt>
      <trkpt lat="45.75228452682495" lon="10.298137664794922">
        <ele>918.9700008940167</ele>
        <time>2017-11-21T09:28:24.510000Z</time>
      </trkpt>
      <trkpt lat="45.752220153808594" lon="10.298223495483398">
        <ele>917.6030350713867</ele>
        <time>2017-11-21T09:28:24.651000Z</time>
      </trkpt>
      <trkpt lat="45.75179100036621" lon="10.298223495483398">
        <ele>910.9309317775092</ele>
        <time>2017-11-21T09:28:25.339000Z</time>
      </trkpt>
      <trkpt lat="45.75080394744873" lon="10.299017429351807">
        <ele>876.0</ele>
        <time>2017-11-21T09:28:27.154000Z</time>
      </trkpt>
      <trkpt lat="45.75039625167847" lon="10.29916763305664">
        <ele>903.1266977871115</ele>
        <time>2017-11-21T09:28:27.829000Z</time>
      </trkpt>
      <trkpt lat="45.749709606170654" lon="10.299317836761475">
        <ele>900.1766516446864</ele>
        <time>2017-11-21T09:28:28.943000Z</time>
      </trkpt>
      <trkpt lat="45.74949502944946" lon="10.299510955810547">
        <ele>900.6812596115774</ele>
        <time>2017-11-21T09:28:29.349000Z</time>
      </trkpt>
      <trkpt lat="45.749430656433105" lon="10.299746990203857">
        <ele>900.8048544270605</ele>
        <time>2017-11-21T09:28:29.632000Z</time>
      </trkpt>
      <trkpt lat="45.74932336807251" lon="10.300326347351074">
        <ele>917.1514110005036</ele>
        <time>2017-11-21T09:28:30.303000Z</time>
      </trkpt>
      <trkpt lat="45.74910879135132" lon="10.300712585449219">
        <ele>911.3392978476717</ele>
        <time>2017-11-21T09:28:30.855000Z</time>
      </trkpt>
      <trkpt lat="45.74887275695801" lon="10.301249027252197">
        <ele>922.290673559822</ele>
        <time>2017-11-21T09:28:31.564000Z</time>
      </trkpt>
      <trkpt lat="45.74882984161377" lon="10.301485061645508">
        <ele>925.2662156958627</ele>
        <time>2017-11-21T09:28:31.837000Z</time>
      </trkpt>
      <trkpt lat="45.74885129928589" lon="10.301849842071533">
        <ele>934.0653207590321</ele>
        <time>2017-11-21T09:28:32.247000Z</time>
      </trkpt>
      <trkpt lat="45.748958587646484" lon="10.302815437316895">
        <ele>944.993078472959</ele>
        <time>2017-11-21T09:28:33.341000Z</time>
      </trkpt>
      <trkpt lat="45.74923753738403" lon="10.30343770980835">
        <ele>970.056092154733</ele>
        <time>2017-11-21T09:28:34.168000Z</time>
      </trkpt>
      <trkpt lat="45.749666690826416" lon="10.304038524627686">
        <ele>969.9188405346994</ele>
        <time>2017-11-21T09:28:35.130000Z</time>
      </trkpt>
      <trkpt lat="45.749688148498535" lon="10.304253101348877">
        <ele>968.2175697856525</ele>
        <time>2017-11-21T09:28:35.372000Z</time>
      </trkpt>
      <trkpt lat="45.749452114105225" lon="10.30444622039795">
        <ele>968.1553914119551</ele>
        <time>2017-11-21T09:28:35.808000Z</time>
      </trkpt>
      <trkpt lat="45.7490873336792" lon="10.304467678070068">
        <ele>954.0810249307211</ele>
        <time>2017-11-21T09:28:36.393000Z</time>
      </trkpt>
      <trkpt lat="45.747671127319336" lon="10.305089950561523">
        <ele>957.347921860201</ele>
        <time>2017-11-21T09:28:38.768000Z</time>
      </trkpt>
      <trkpt lat="45.74726343154907" lon="10.306527614593506">
        <ele>949.0</ele>
        <time>2017-11-21T09:28:40.504000Z</time>
      </trkpt>
      <trkpt lat="45.747199058532715" lon="10.30693531036377">
        <ele>956.3823269198223</ele>
        <time>2017-11-21T09:28:40.972000Z</time>
      </trkpt>
      <trkpt lat="45.747199058532715" lon="10.307600498199463">
        <ele>961.5676806361772</ele>
        <time>2017-11-21T09:28:41.716000Z</time>
      </trkpt>
      <trkpt lat="45.74683427810669" lon="10.308544635772705">
        <ele>968.8295461347367</ele>
        <time>2017-11-21T09:28:42.923000Z</time>
      </trkpt>
      <trkpt lat="45.746684074401855" lon="10.309252738952637">
        <ele>975.0</ele>
        <time>2017-11-21T09:28:43.751000Z</time>
      </trkpt>
      <trkpt lat="45.746169090270996" lon="10.309724807739258">
        <ele>959.1878303656896</ele>
        <time>2017-11-21T09:28:44.731000Z</time>
      </trkpt>
      <trkpt lat="45.74584722518921" lon="10.310347080230713">
        <ele>953.1260879256242</ele>
        <time>2017-11-21T09:28:45.598000Z</time>
      </trkpt>
      <trkpt lat="45.74580430984497" lon="10.31043291091919">
        <ele>956.0118660887416</ele>
        <time>2017-11-21T09:28:45.716000Z</time>
      </trkpt>
      <trkpt lat="45.74582576751709" lon="10.310518741607666">
        <ele>955.830258368489</ele>
        <time>2017-11-21T09:28:45.818000Z</time>
      </trkpt>
      <trkpt lat="45.745933055877686" lon="10.310475826263428">
        <ele>951.8456413175255</ele>
        <time>2017-11-21T09:28:45.997000Z</time>
      </trkpt>
      <trkpt lat="45.74610471725464" lon="10.310132503509521">
        <ele>951.004350603445</ele>
        <time>2017-11-21T09:28:46.470000Z</time>
      </trkpt>
      <trkpt lat="45.74627637863159" lon="10.310068130493164">
        <ele>952.4202857962065</ele>
        <time>2017-11-21T09:28:46.754000Z</time>
      </trkpt>
      <trkpt lat="45.746469497680664" lon="10.310132503509521">
        <ele>954.0024627820327</ele>
        <time>2017-11-21T09:28:47.072000Z</time>
      </trkpt>
      <trkpt lat="45.74685581959784" lon="10.310711860656738">
        <ele>966.131338492011</ele>
        <time>2017-11-21T09:28:47.968000Z</time>
      </trkpt>
      <trkpt lat="45.74685573577881" lon="10.310711860656738">
        <ele>966.1320151207425</ele>
        <time>2017-11-21T09:28:47.968000Z</time>
      </trkpt>
      <trkpt lat="45.747199058532715" lon="10.311291217803955">
        <ele>962.7469763247567</ele>
        <time>2017-11-21T09:28:48.818000Z</time>
      </trkpt>
      <trkpt lat="45.747671127319336" lon="10.311312675476074">
        <ele>977.5596658679459</ele>
        <time>2017-11-21T09:28:49.575000Z</time>
      </trkpt>
      <trkpt lat="45.74777841567993" lon="10.31141996383667">
        <ele>978.6157748322729</ele>
        <time>2017-11-21T09:28:49.785000Z</time>
      </trkpt>
      <trkpt lat="45.74777841567993" lon="10.311527252197266">
        <ele>978.1731272843522</ele>
        <time>2017-11-21T09:28:49.905000Z</time>
      </trkpt>
      <trkpt lat="45.74713468551636" lon="10.312621593475342">
        <ele>943.020883264428</ele>
        <time>2017-11-21T09:28:51.506000Z</time>
      </trkpt>
      <trkpt lat="45.74702739715576" lon="10.313136577606201">
        <ele>935.829203913196</ele>
        <time>2017-11-21T09:28:52.107000Z</time>
      </trkpt>
      <trkpt lat="45.746705532073975" lon="10.313823223114014">
        <ele>935.4137801783559</ele>
        <time>2017-11-21T09:28:53.032000Z</time>
      </trkpt>
      <trkpt lat="45.74649095535278" lon="10.314981937408447">
        <ele>911.0</ele>
        <time>2017-11-21T09:28:54.373000Z</time>
      </trkpt>
      <trkpt lat="45.746411243118416" lon="10.315233388745433">
        <ele>915.6853887894704</ele>
        <time>2017-11-21T09:28:54.682000Z</time>
      </trkpt>
      <trkpt lat="45.74641113588764" lon="10.315233727002054">
        <ele>915.6876560050586</ele>
        <time>2017-11-21T09:28:54.683000Z</time>
      </trkpt>
      <trkpt lat="45.7464106567204" lon="10.315235238522291">
        <ele>915.6977871956178</ele>
        <time>2017-11-21T09:28:54.685000Z</time>
      </trkpt>
      <trkpt lat="45.74641074053943" lon="10.315234987065196">
        <ele>915.6994877842466</ele>
        <time>2017-11-21T09:28:54.685000Z</time>
      </trkpt>
      <trkpt lat="45.746212005615234" lon="10.315861701965332">
        <ele>922.5670340821001</ele>
        <time>2017-11-21T09:28:55.455000Z</time>
      </trkpt>
      <trkpt lat="45.74589014053345" lon="10.317106246948242">
        <ele>932.0</ele>
        <time>2017-11-21T09:28:56.940000Z</time>
      </trkpt>
      <trkpt lat="45.74576139450073" lon="10.319015979766846">
        <ele>896.3413362103365</ele>
        <time>2017-11-21T09:28:59.086000Z</time>
      </trkpt>
      <trkpt lat="45.74556835927069" lon="10.32017469406128">
        <ele>898.0</ele>
        <time>2017-11-21T09:29:00.419000Z</time>
      </trkpt>
      <trkpt lat="45.74558981694281" lon="10.321462154388428">
        <ele>908.5018503428655</ele>
        <time>2017-11-21T09:29:01.860000Z</time>
      </trkpt>
      <trkpt lat="45.745911598205566" lon="10.322341918945312">
        <ele>932.2684140835794</ele>
        <time>2017-11-21T09:29:02.971000Z</time>
      </trkpt>
      <trkpt lat="45.745954513549805" lon="10.322556495666504">
        <ele>926.0644504882257</ele>
        <time>2017-11-21T09:29:03.221000Z</time>
      </trkpt>
      <trkpt lat="45.74586868286133" lon="10.3236722946167">
        <ele>912.0</ele>
        <time>2017-11-21T09:29:04.477000Z</time>
      </trkpt>
      <trkpt lat="45.74612617492676" lon="10.324187278747559">
        <ele>898.117906929457</ele>
        <time>2017-11-21T09:29:05.186000Z</time>
      </trkpt>
      <trkpt lat="45.74638366699219" lon="10.324337482452393">
        <ele>896.5151563307426</ele>
        <time>2017-11-21T09:29:05.632000Z</time>
      </trkpt>
      <trkpt lat="45.74728488922119" lon="10.324294567108154">
        <ele>895.6499781834258</ele>
        <time>2017-11-21T09:29:07.078000Z</time>
      </trkpt>
      <trkpt lat="45.74902296066284" lon="10.325109958648682">
        <ele>897.0</ele>
        <time>2017-11-21T09:29:10.010000Z</time>
      </trkpt>
      <trkpt lat="45.74951648712158" lon="10.326054096221924">
        <ele>892.0</ele>
        <time>2017-11-21T09:29:11.330000Z</time>
      </trkpt>
      <trkpt lat="45.74975252151489" lon="10.326268672943115">
        <ele>890.1727359297671</ele>
        <time>2017-11-21T09:29:11.778000Z</time>
      </trkpt>
      <trkpt lat="45.75001001358032" lon="10.326375961303711">
        <ele>885.0864346149465</ele>
        <time>2017-11-21T09:29:12.208000Z</time>
      </trkpt>
      <trkpt lat="45.75035333633423" lon="10.326333045959473">
        <ele>885.4124305136888</ele>
        <time>2017-11-21T09:29:12.760000Z</time>
      </trkpt>
      <trkpt lat="45.751447677612305" lon="10.325260162353516">
        <ele>889.0</ele>
        <time>2017-11-21T09:29:14.886000Z</time>
      </trkpt>
      <trkpt lat="45.75183391571045" lon="10.325109958648682">
        <ele>893.5683807563272</ele>
        <time>2017-11-21T09:29:15.528000Z</time>
      </trkpt>
      <trkpt lat="45.75224161148071" lon="10.324680805206299">
        <ele>902.6574127676512</ele>
        <time>2017-11-21T09:29:16.339000Z</time>
      </trkpt>
      <trkpt lat="45.75230598449707" lon="10.324702262878418">
        <ele>902.6371315536925</ele>
        <time>2017-11-21T09:29:16.445000Z</time>
      </trkpt>
      <trkpt lat="45.75239181518555" lon="10.324938297271729">
        <ele>902.5801405965955</ele>
        <time>2017-11-21T09:29:16.743000Z</time>
      </trkpt>
      <trkpt lat="45.752434730529785" lon="10.325582027435303">
        <ele>897.4416778182185</ele>
        <time>2017-11-21T09:29:17.466000Z</time>
      </trkpt>
      <trkpt lat="45.75185537338257" lon="10.327470302581787">
        <ele>899.0</ele>
        <time>2017-11-21T09:29:19.773000Z</time>
      </trkpt>
      <trkpt lat="45.7515549659729" lon="10.328586101531982">
        <ele>884.4383801932701</ele>
        <time>2017-11-21T09:29:21.111000Z</time>
      </trkpt>
      <trkpt lat="45.75149059295654" lon="10.329251289367676">
        <ele>886.1183022285741</ele>
        <time>2017-11-21T09:29:21.862000Z</time>
      </trkpt>
      <trkpt lat="45.75157642364502" lon="10.329766273498535">
        <ele>888.6018637032972</ele>
        <time>2017-11-21T09:29:22.454000Z</time>
      </trkpt>
      <trkpt lat="45.751705169677734" lon="10.330002307891846">
        <ele>899.5589019997819</ele>
        <time>2017-11-21T09:29:22.789000Z</time>
      </trkpt>
      <trkpt lat="45.75232744216919" lon="10.330667495727539">
        <ele>906.8264444598643</ele>
        <time>2017-11-21T09:29:24.034000Z</time>
      </trkpt>
      <trkpt lat="45.75277805328369" lon="10.332469940185547">
        <ele>922.0</ele>
        <time>2017-11-21T09:29:26.176000Z</time>
      </trkpt>
      <trkpt lat="45.75273513793945" lon="10.332856178283691">
        <ele>907.471045461249</ele>
        <time>2017-11-21T09:29:26.613000Z</time>
      </trkpt>
      <trkpt lat="45.75260639190674" lon="10.33289909362793">
        <ele>904.578719439079</ele>
        <time>2017-11-21T09:29:26.825000Z</time>
      </trkpt>
      <trkpt lat="45.75224161148071" lon="10.33266305923462">
        <ele>885.1543480963546</ele>
        <time>2017-11-21T09:29:27.467000Z</time>
      </trkpt>
      <trkpt lat="45.751962661743164" lon="10.3326416015625">
        <ele>879.0417772748698</ele>
        <time>2017-11-21T09:29:27.915000Z</time>
      </trkpt>
      <trkpt lat="45.75125455856323" lon="10.33315658569336">
        <ele>856.0</ele>
        <time>2017-11-21T09:29:29.188000Z</time>
      </trkpt>
      <trkpt lat="45.750718116760254" lon="10.333199501037598">
        <ele>855.6267301513544</ele>
        <time>2017-11-21T09:29:30.049000Z</time>
      </trkpt>
      <trkpt lat="45.75011730194092" lon="10.333414077758789">
        <ele>875.1905459478312</ele>
        <time>2017-11-21T09:29:31.042000Z</time>
      </trkpt>
      <trkpt lat="45.749666690826416" lon="10.333263874053955">
        <ele>856.5141370029165</ele>
        <time>2017-11-21T09:29:31.784000Z</time>
      </trkpt>
      <trkpt lat="45.74930191040039" lon="10.333220958709717">
        <ele>855.8297819170617</ele>
        <time>2017-11-21T09:29:32.371000Z</time>
      </trkpt>
      <trkpt lat="45.74878692626953" lon="10.332963466644287">
        <ele>856.1432848008329</ele>
        <time>2017-11-21T09:29:33.245000Z</time>
      </trkpt>
      <trkpt lat="45.748679637908936" lon="10.332963466644287">
        <ele>858.1281020088169</ele>
        <time>2017-11-21T09:29:33.417000Z</time>
      </trkpt>
      <trkpt lat="45.747671127319336" lon="10.333564281463623">
        <ele>892.0</ele>
        <time>2017-11-21T09:29:35.168000Z</time>
      </trkpt>
      <trkpt lat="45.74739217758179" lon="10.33390760421753">
        <ele>887.5207980380019</ele>
        <time>2017-11-21T09:29:35.757000Z</time>
      </trkpt>
      <trkpt lat="45.74737071990967" lon="10.334186553955078">
        <ele>895.9974179712631</ele>
        <time>2017-11-21T09:29:36.071000Z</time>
      </trkpt>
      <trkpt lat="45.74732780456543" lon="10.334250926971436">
        <ele>896.2543619140444</ele>
        <time>2017-11-21T09:29:36.171000Z</time>
      </trkpt>
      <trkpt lat="45.74709177017212" lon="10.334315299987793">
        <ele>897.2480889791683</ele>
        <time>2017-11-21T09:29:36.556000Z</time>
      </trkpt>
      <trkpt lat="45.746662616729736" lon="10.335023403167725">
        <ele>899.2474549621508</ele>
        <time>2017-11-21T09:29:37.605000Z</time>
      </trkpt>
      <trkpt lat="45.746426582336426" lon="10.335538387298584">
        <ele>901.2178655295997</ele>
        <time>2017-11-21T09:29:38.294000Z</time>
      </trkpt>
      <trkpt lat="45.74623346328735" lon="10.33613920211792">
        <ele>908.0</ele>
        <time>2017-11-21T09:29:39.034000Z</time>
      </trkpt>
      <trkpt lat="45.74623346328735" lon="10.336289405822754">
        <ele>908.1689373569458</ele>
        <time>2017-11-21T09:29:39.202000Z</time>
      </trkpt>
      <trkpt lat="45.74631929397583" lon="10.33639669418335">
        <ele>908.3525068934059</ele>
        <time>2017-11-21T09:29:39.385000Z</time>
      </trkpt>
      <trkpt lat="45.74687719345093" lon="10.336697101593018">
        <ele>910.646403332681</ele>
        <time>2017-11-21T09:29:40.340000Z</time>
      </trkpt>
      <trkpt lat="45.74689865112305" lon="10.336847305297852">
        <ele>910.8188422870768</ele>
        <time>2017-11-21T09:29:40.512000Z</time>
      </trkpt>
      <trkpt lat="45.746469497680664" lon="10.33837080001831">
        <ele>913.0</ele>
        <time>2017-11-21T09:29:42.350000Z</time>
      </trkpt>
      <trkpt lat="45.74629783630371" lon="10.339486598968506">
        <ele>923.7385008879082</ele>
        <time>2017-11-21T09:29:43.628000Z</time>
      </trkpt>
      <trkpt lat="45.746448040008545" lon="10.3401517868042">
        <ele>929.2107902753686</ele>
        <time>2017-11-21T09:29:44.410000Z</time>
      </trkpt>
      <trkpt lat="45.74655532836914" lon="10.3416109085083">
        <ele>931.0</ele>
        <time>2017-11-21T09:29:46.051000Z</time>
      </trkpt>
      <trkpt lat="45.74649095535278" lon="10.342061519622803">
        <ele>923.7287440321464</ele>
        <time>2017-11-21T09:29:46.566000Z</time>
      </trkpt>
      <trkpt lat="45.74649095535278" lon="10.342469215393066">
        <ele>920.5337109268345</ele>
        <time>2017-11-21T09:29:47.022000Z</time>
      </trkpt>
      <trkpt lat="45.7466197013855" lon="10.343263149261475">
        <ele>913.2094886978981</ele>
        <time>2017-11-21T09:29:47.934000Z</time>
      </trkpt>
      <trkpt lat="45.74661970138902" lon="10.343711880049618">
        <ele>906.0948333692895</ele>
        <time>2017-11-21T09:29:48.436000Z</time>
      </trkpt>
      <trkpt lat="45.7466197013883" lon="10.343712251572398">
        <ele>906.0922546173102</ele>
        <time>2017-11-21T09:29:48.436000Z</time>
      </trkpt>
      <trkpt lat="45.7466197013855" lon="10.343712083995342">
        <ele>906.0910914593878</ele>
        <time>2017-11-21T09:29:48.436000Z</time>
      </trkpt>
      <trkpt lat="45.7466197013855" lon="10.34371200017631">
        <ele>906.0905096687002</ele>
        <time>2017-11-21T09:29:48.436000Z</time>
      </trkpt>
      <trkpt lat="45.7466197013855" lon="10.343842506408691">
        <ele>905.1846615681419</ele>
        <time>2017-11-21T09:29:48.582000Z</time>
      </trkpt>
      <trkpt lat="45.74649095535278" lon="10.344314575195312">
        <ele>901.0</ele>
        <time>2017-11-21T09:29:49.149000Z</time>
      </trkpt>
      <trkpt lat="45.74638366699219" lon="10.344443321228027">
        <ele>899.7698578234986</ele>
        <time>2017-11-21T09:29:49.373000Z</time>
      </trkpt>
      <trkpt lat="45.7460618019104" lon="10.344314575195312">
        <ele>896.8323031527926</ele>
        <time>2017-11-21T09:29:49.909000Z</time>
      </trkpt>
      <trkpt lat="45.74582576751709" lon="10.344336032867432">
        <ele>890.4199101836076</ele>
        <time>2017-11-21T09:29:50.288000Z</time>
      </trkpt>
      <trkpt lat="45.74563264846802" lon="10.344164371490479">
        <ele>881.7555215820445</ele>
        <time>2017-11-21T09:29:50.652000Z</time>
      </trkpt>
      <trkpt lat="45.74498891830444" lon="10.343971252441406">
        <ele>875.6407216168676</ele>
        <time>2017-11-21T09:29:51.706000Z</time>
      </trkpt>
      <trkpt lat="45.74477434158325" lon="10.344035625457764">
        <ele>877.0458178662499</ele>
        <time>2017-11-21T09:29:52.057000Z</time>
      </trkpt>
      <trkpt lat="45.744473934173584" lon="10.344314575195312">
        <ele>887.0067903687478</ele>
        <time>2017-11-21T09:29:52.631000Z</time>
      </trkpt>
      <trkpt lat="45.74423789978027" lon="10.344722270965576">
        <ele>889.4445357513981</ele>
        <time>2017-11-21T09:29:53.224000Z</time>
      </trkpt>
      <trkpt lat="45.74406623840332" lon="10.344808101654053">
        <ele>885.3212913768915</ele>
        <time>2017-11-21T09:29:53.515000Z</time>
      </trkpt>
      <trkpt lat="45.74383020401001" lon="10.344207286834717">
        <ele>881.46648574077</ele>
        <time>2017-11-21T09:29:54.286000Z</time>
      </trkpt>
      <trkpt lat="45.74340105056763" lon="10.343799591064453">
        <ele>872.3413696439756</ele>
        <time>2017-11-21T09:29:55.111000Z</time>
      </trkpt>
      <trkpt lat="45.743229473009706" lon="10.343713760375977">
        <ele>877.3941614810273</ele>
        <time>2017-11-21T09:29:55.402000Z</time>
      </trkpt>
      <trkpt lat="45.74299335479736" lon="10.343585014343262">
        <ele>878.3943157908293</ele>
        <time>2017-11-21T09:29:55.807000Z</time>
      </trkpt>
      <trkpt lat="45.74275732040405" lon="10.343563556671143">
        <ele>879.3306272535646</ele>
        <time>2017-11-21T09:29:56.186000Z</time>
      </trkpt>
      <trkpt lat="45.742199420928955" lon="10.344099998474121">
        <ele>889.0128571348824</ele>
        <time>2017-11-21T09:29:57.263000Z</time>
      </trkpt>
      <trkpt lat="45.742220962420106" lon="10.344421863555908">
        <ele>894.3678982040243</ele>
        <time>2017-11-21T09:29:57.625000Z</time>
      </trkpt>
      <trkpt lat="45.742220962420106" lon="10.344529151916504">
        <ele>895.038723149721</ele>
        <time>2017-11-21T09:29:57.745000Z</time>
      </trkpt>
      <trkpt lat="45.74217804707587" lon="10.344915390014648">
        <ele>897.4841105891495</ele>
        <time>2017-11-21T09:29:58.183000Z</time>
      </trkpt>
      <trkpt lat="45.74215658940375" lon="10.344979763031006">
        <ele>897.9301604450478</ele>
        <time>2017-11-21T09:29:58.263000Z</time>
      </trkpt>
      <trkpt lat="45.742177963256836" lon="10.345473289489746">
        <ele>902.0218941466069</ele>
        <time>2017-11-21T09:29:58.816000Z</time>
      </trkpt>
      <trkpt lat="45.74254274368286" lon="10.34663200378418">
        <ele>908.2836851767843</ele>
        <time>2017-11-21T09:30:00.238000Z</time>
      </trkpt>
      <trkpt lat="45.74249982833862" lon="10.346953868865967">
        <ele>900.3802325663864</ele>
        <time>2017-11-21T09:30:00.605000Z</time>
      </trkpt>
      <trkpt lat="45.74239253997803" lon="10.347297191619873">
        <ele>898.9604514204372</ele>
        <time>2017-11-21T09:30:01.026000Z</time>
      </trkpt>
      <trkpt lat="45.74237108230591" lon="10.347490310668945">
        <ele>898.5600166109544</ele>
        <time>2017-11-21T09:30:01.245000Z</time>
      </trkpt>
      <trkpt lat="45.74230670928955" lon="10.347661972045898">
        <ele>900.4943018950598</ele>
        <time>2017-11-21T09:30:01.463000Z</time>
      </trkpt>
      <trkpt lat="45.741705894470215" lon="10.34837007522583">
        <ele>907.8783479506737</ele>
        <time>2017-11-21T09:30:02.710000Z</time>
      </trkpt>
      <trkpt lat="45.74162006378174" lon="10.34860610961914">
        <ele>896.0</ele>
        <time>2017-11-21T09:30:03.008000Z</time>
      </trkpt>
      <trkpt lat="45.74159860610962" lon="10.349249839782715">
        <ele>908.916242389843</ele>
        <time>2017-11-21T09:30:03.729000Z</time>
      </trkpt>
      <trkpt lat="45.74138402938843" lon="10.349829196929932">
        <ele>915.615853531816</ele>
        <time>2017-11-21T09:30:04.463000Z</time>
      </trkpt>
      <trkpt lat="45.74125528335571" lon="10.351030826568604">
        <ele>935.7004874582335</ele>
        <time>2017-11-21T09:30:05.823000Z</time>
      </trkpt>
      <trkpt lat="45.74127674102783" lon="10.351524353027344">
        <ele>939.9167444131798</ele>
        <time>2017-11-21T09:30:06.376000Z</time>
      </trkpt>
      <trkpt lat="45.741169452667236" lon="10.352039337158203">
        <ele>945.6804439396625</ele>
        <time>2017-11-21T09:30:06.977000Z</time>
      </trkpt>
      <trkpt lat="45.74108362197876" lon="10.35212516784668">
        <ele>945.2026682179616</ele>
        <time>2017-11-21T09:30:07.145000Z</time>
      </trkpt>
      <trkpt lat="45.74065446853638" lon="10.352210998535156">
        <ele>932.2247023623141</ele>
        <time>2017-11-21T09:30:07.840000Z</time>
      </trkpt>
      <trkpt lat="45.739924907684326" lon="10.35334825515747">
        <ele>932.3036202226762</ele>
        <time>2017-11-21T09:30:09.568000Z</time>
      </trkpt>
      <trkpt lat="45.739731788635254" lon="10.353777408599854">
        <ele>932.0</ele>
        <time>2017-11-21T09:30:10.139000Z</time>
      </trkpt>
      <trkpt lat="45.739710330963135" lon="10.353949069976807">
        <ele>932.2312708154077</ele>
        <time>2017-11-21T09:30:10.334000Z</time>
      </trkpt>
      <trkpt lat="45.73964595794678" lon="10.354485511779785">
        <ele>932.9531118344544</ele>
        <time>2017-11-21T09:30:10.943000Z</time>
      </trkpt>
      <trkpt lat="45.739688873291016" lon="10.354936122894287">
        <ele>933.5562271966968</ele>
        <time>2017-11-21T09:30:11.452000Z</time>
      </trkpt>
      <trkpt lat="45.73975324630737" lon="10.35487174987793">
        <ele>933.9495406354355</ele>
        <time>2017-11-21T09:30:11.578000Z</time>
      </trkpt>
      <trkpt lat="45.739731788635254" lon="10.354442596435547">
        <ele>935.4540518388985</ele>
        <time>2017-11-21T09:30:12.059000Z</time>
      </trkpt>
      <trkpt lat="45.73990345001221" lon="10.354142189025879">
        <ele>936.8117000404826</ele>
        <time>2017-11-21T09:30:12.493000Z</time>
      </trkpt>
      <trkpt lat="45.74050426483154" lon="10.353841781616211">
        <ele>944.0</ele>
        <time>2017-11-21T09:30:13.513000Z</time>
      </trkpt>
      <trkpt lat="45.740675926208496" lon="10.35386323928833">
        <ele>944.2522743516107</ele>
        <time>2017-11-21T09:30:13.789000Z</time>
      </trkpt>
      <trkpt lat="45.74076175689697" lon="10.354013442993164">
        <ele>944.450628440903</ele>
        <time>2017-11-21T09:30:14.006000Z</time>
      </trkpt>
      <trkpt lat="45.74086904525757" lon="10.35463571548462">
        <ele>949.4388917981497</ele>
        <time>2017-11-21T09:30:14.723000Z</time>
      </trkpt>
      <trkpt lat="45.741233825683594" lon="10.35510778427124">
        <ele>946.4918546741538</ele>
        <time>2017-11-21T09:30:15.511000Z</time>
      </trkpt>
      <trkpt lat="45.74134111404419" lon="10.3556227684021">
        <ele>947.2156067712422</ele>
        <time>2017-11-21T09:30:16.112000Z</time>
      </trkpt>
      <trkpt lat="45.741684436798096" lon="10.356202125549316">
        <ele>949.5724552264013</ele>
        <time>2017-11-21T09:30:16.962000Z</time>
      </trkpt>
      <trkpt lat="45.742027759552" lon="10.356566905975342">
        <ele>948.2312750840318</ele>
        <time>2017-11-21T09:30:17.647000Z</time>
      </trkpt>
      <trkpt lat="45.742692947387695" lon="10.357167720794678">
        <ele>941.1813489912262</ele>
        <time>2017-11-21T09:30:18.908000Z</time>
      </trkpt>
      <trkpt lat="45.74333667755127" lon="10.357468128204346">
        <ele>944.175716440911</ele>
        <time>2017-11-21T09:30:19.993000Z</time>
      </trkpt>
      <trkpt lat="45.74340105056763" lon="10.35761833190918">
        <ele>931.8561080735153</ele>
        <time>2017-11-21T09:30:20.190000Z</time>
      </trkpt>
      <trkpt lat="45.743465423583984" lon="10.358326435089111">
        <ele>918.6163334966133</ele>
        <time>2017-11-21T09:30:20.989000Z</time>
      </trkpt>
      <trkpt lat="45.74352979660034" lon="10.358412265777588">
        <ele>905.2802243205919</ele>
        <time>2017-11-21T09:30:21.130000Z</time>
      </trkpt>
      <trkpt lat="45.74383020401001" lon="10.358412265777588">
        <ele>897.2990847268301</ele>
        <time>2017-11-21T09:30:21.612000Z</time>
      </trkpt>
      <trkpt lat="45.744194984436035" lon="10.358798503875732">
        <ele>900.3287522227507</ele>
        <time>2017-11-21T09:30:22.339000Z</time>
      </trkpt>
      <trkpt lat="45.74434518814087" lon="10.359227657318115">
        <ele>887.3958702080196</ele>
        <time>2017-11-21T09:30:22.876000Z</time>
      </trkpt>
      <trkpt lat="45.7444953918457" lon="10.359914302825928">
        <ele>883.0</ele>
        <time>2017-11-21T09:30:23.681000Z</time>
      </trkpt>
      <trkpt lat="45.74462413787842" lon="10.360171794891357">
        <ele>871.1936167912116</ele>
        <time>2017-11-21T09:30:24.035000Z</time>
      </trkpt>
      <trkpt lat="45.7451605796814" lon="10.360794067382812">
        <ele>867.4315004892879</ele>
        <time>2017-11-21T09:30:25.141000Z</time>
      </trkpt>
      <trkpt lat="45.74556827545166" lon="10.361137390136719">
        <ele>853.7613794697803</ele>
        <time>2017-11-21T09:30:25.899000Z</time>
      </trkpt>
      <trkpt lat="45.7460618019104" lon="10.361266136169434">
        <ele>853.287822850603</ele>
        <time>2017-11-21T09:30:26.703000Z</time>
      </trkpt>
      <trkpt lat="45.74608325958252" lon="10.36137342453003">
        <ele>852.9555318464287</ele>
        <time>2017-11-21T09:30:26.828000Z</time>
      </trkpt>
      <trkpt lat="45.74604034423828" lon="10.361437797546387">
        <ele>852.6904702661659</ele>
        <time>2017-11-21T09:30:26.928000Z</time>
      </trkpt>
      <trkpt lat="45.74533224105835" lon="10.361394882202148">
        <ele>848.0</ele>
        <time>2017-11-21T09:30:28.064000Z</time>
      </trkpt>
      <trkpt lat="45.74531078338623" lon="10.361480712890625">
        <ele>847.5478171624445</ele>
        <time>2017-11-21T09:30:28.166000Z</time>
      </trkpt>
      <trkpt lat="45.74535369873047" lon="10.36158800125122">
        <ele>846.934489539115</ele>
        <time>2017-11-21T09:30:28.304000Z</time>
      </trkpt>
      <trkpt lat="45.74586868286133" lon="10.361952781677246">
        <ele>835.8517360222395</ele>
        <time>2017-11-21T09:30:29.225000Z</time>
      </trkpt>
      <trkpt lat="45.74601888656616" lon="10.361995697021484">
        <ele>834.763216648989</ele>
        <time>2017-11-21T09:30:29.471000Z</time>
      </trkpt>
      <trkpt lat="45.74649095535278" lon="10.361781120300293">
        <ele>835.2794327717744</ele>
        <time>2017-11-21T09:30:30.265000Z</time>
      </trkpt>
      <trkpt lat="45.7466197013855" lon="10.361888408660889">
        <ele>835.4346710669739</ele>
        <time>2017-11-21T09:30:30.504000Z</time>
      </trkpt>
      <trkpt lat="45.746684074401855" lon="10.362446308135986">
        <ele>844.5126512202556</ele>
        <time>2017-11-21T09:30:31.137000Z</time>
      </trkpt>
      <trkpt lat="45.74709177017212" lon="10.3635835647583">
        <ele>827.7670370297493</ele>
        <time>2017-11-21T09:30:32.567000Z</time>
      </trkpt>
      <trkpt lat="45.7470703125" lon="10.363669395446777">
        <ele>826.2620165852071</ele>
        <time>2017-11-21T09:30:32.669000Z</time>
      </trkpt>
      <trkpt lat="45.74700593948364" lon="10.363690853118896">
        <ele>824.6985919734734</ele>
        <time>2017-11-21T09:30:32.775000Z</time>
      </trkpt>
      <trkpt lat="45.74683427810669" lon="10.363433361053467">
        <ele>818.8201085429819</ele>
        <time>2017-11-21T09:30:33.173000Z</time>
      </trkpt>
      <trkpt lat="45.74653387069702" lon="10.363540649414062">
        <ele>801.8298050666549</ele>
        <time>2017-11-21T09:30:33.669000Z</time>
      </trkpt>
      <trkpt lat="45.74636220932007" lon="10.363883972167969">
        <ele>797.8597148464199</ele>
        <time>2017-11-21T09:30:34.141000Z</time>
      </trkpt>
      <trkpt lat="45.74623346328735" lon="10.364463329315186">
        <ele>792.0502000005358</ele>
        <time>2017-11-21T09:30:34.821000Z</time>
      </trkpt>
      <trkpt lat="45.74625492095947" lon="10.36461353302002">
        <ele>791.3417548068497</ele>
        <time>2017-11-21T09:30:34.993000Z</time>
      </trkpt>
      <trkpt lat="45.74631929397583" lon="10.364720821380615">
        <ele>790.6879548552839</ele>
        <time>2017-11-21T09:30:35.151000Z</time>
      </trkpt>
      <trkpt lat="45.74698448181152" lon="10.36508560180664">
        <ele>782.6385771061637</ele>
        <time>2017-11-21T09:30:36.293000Z</time>
      </trkpt>
      <trkpt lat="45.7478214148432" lon="10.365042686462402">
        <ele>781.0</ele>
        <time>2017-11-21T09:30:37.636000Z</time>
      </trkpt>
      <trkpt lat="45.74840077199042" lon="10.365257263183594">
        <ele>787.5149770856491</ele>
        <time>2017-11-21T09:30:38.595000Z</time>
      </trkpt>
      <trkpt lat="45.74855097569525" lon="10.365300178527832">
        <ele>788.7559107112533</ele>
        <time>2017-11-21T09:30:38.841000Z</time>
      </trkpt>
      <trkpt lat="45.74934482574463" lon="10.365149974822998">
        <ele>799.9103356271806</ele>
        <time>2017-11-21T09:30:40.125000Z</time>
      </trkpt>
      <trkpt lat="45.75001001358032" lon="10.365386009216309">
        <ele>807.3641123317775</ele>
        <time>2017-11-21T09:30:41.224000Z</time>
      </trkpt>
      <trkpt lat="45.750224590301514" lon="10.365386009216309">
        <ele>807.739211884866</ele>
        <time>2017-11-21T09:30:41.568000Z</time>
      </trkpt>
      <trkpt lat="45.75058937072754" lon="10.365278720855713">
        <ele>806.6961448156376</ele>
        <time>2017-11-21T09:30:42.165000Z</time>
      </trkpt>
      <trkpt lat="45.75086832046509" lon="10.36562204360962">
        <ele>805.9995279888218</ele>
        <time>2017-11-21T09:30:42.754000Z</time>
      </trkpt>
      <trkpt lat="45.750975608825684" lon="10.365643501281738">
        <ele>805.696094845734</ele>
        <time>2017-11-21T09:30:42.928000Z</time>
      </trkpt>
      <trkpt lat="45.751211643218994" lon="10.365386009216309">
        <ele>804.8651948079349</ele>
        <time>2017-11-21T09:30:43.404000Z</time>
      </trkpt>
      <trkpt lat="45.75174808502197" lon="10.365407466888428">
        <ele>800.3620055639855</ele>
        <time>2017-11-21T09:30:44.264000Z</time>
      </trkpt>
      <trkpt lat="45.7520055770874" lon="10.36562204360962">
        <ele>797.826165405746</ele>
        <time>2017-11-21T09:30:44.742000Z</time>
      </trkpt>
      <trkpt lat="45.752155780792236" lon="10.3656005859375">
        <ele>795.6924772462365</ele>
        <time>2017-11-21T09:30:44.984000Z</time>
      </trkpt>
      <trkpt lat="45.75260639190674" lon="10.365257263183594">
        <ele>781.4788198311926</ele>
        <time>2017-11-21T09:30:45.802000Z</time>
      </trkpt>
      <trkpt lat="45.752971172332764" lon="10.365235805511475">
        <ele>777.1393564844667</ele>
        <time>2017-11-21T09:30:46.387000Z</time>
      </trkpt>
      <trkpt lat="45.753164291381836" lon="10.36508560180664">
        <ele>774.5276873506349</ele>
        <time>2017-11-21T09:30:46.739000Z</time>
      </trkpt>
      <trkpt lat="45.75374364852905" lon="10.364291667938232">
        <ele>758.0</ele>
        <time>2017-11-21T09:30:48.024000Z</time>
      </trkpt>
      <trkpt lat="45.753915309906006" lon="10.363819599151611">
        <ele>763.4463682024515</ele>
        <time>2017-11-21T09:30:48.619000Z</time>
      </trkpt>
      <trkpt lat="45.75423717498779" lon="10.363519191741943">
        <ele>749.9079609662276</ele>
        <time>2017-11-21T09:30:49.235000Z</time>
      </trkpt>
      <trkpt lat="45.75438737869263" lon="10.36184549331665">
        <ele>759.6562641750494</ele>
        <time>2017-11-21T09:30:51.123000Z</time>
      </trkpt>
      <trkpt lat="45.75449466705322" lon="10.361566543579102">
        <ele>765.0812607440374</ele>
        <time>2017-11-21T09:30:51.479000Z</time>
      </trkpt>
      <trkpt lat="45.754923820495605" lon="10.360965728759766">
        <ele>765.6365127166604</ele>
        <time>2017-11-21T09:30:52.441000Z</time>
      </trkpt>
      <trkpt lat="45.755181312561035" lon="10.36036491394043">
        <ele>742.6830653651381</ele>
        <time>2017-11-21T09:30:53.230000Z</time>
      </trkpt>
      <trkpt lat="45.75526714324951" lon="10.360021591186523">
        <ele>737.3625116687167</ele>
        <time>2017-11-21T09:30:53.638000Z</time>
      </trkpt>
      <trkpt lat="45.75526714324951" lon="10.359506607055664">
        <ele>741.8561853763064</ele>
        <time>2017-11-21T09:30:54.214000Z</time>
      </trkpt>
      <trkpt lat="45.75550317764282" lon="10.358884334564209">
        <ele>744.9104941326785</ele>
        <time>2017-11-21T09:30:55.006000Z</time>
      </trkpt>
      <trkpt lat="45.75556755065918" lon="10.358047485351562">
        <ele>759.0457456671606</ele>
        <time>2017-11-21T09:30:55.948000Z</time>
      </trkpt>
      <trkpt lat="45.75601816177368" lon="10.357038974761963">
        <ele>771.3232093898478</ele>
        <time>2017-11-21T09:30:57.288000Z</time>
      </trkpt>
      <trkpt lat="45.756189823150635" lon="10.357038974761963">
        <ele>771.7226156284054</ele>
        <time>2017-11-21T09:30:57.563000Z</time>
      </trkpt>
      <trkpt lat="45.75623273849487" lon="10.35710334777832">
        <ele>771.8671524858236</ele>
        <time>2017-11-21T09:30:57.663000Z</time>
      </trkpt>
      <trkpt lat="45.75653314590454" lon="10.357897281646729">
        <ele>762.0</ele>
        <time>2017-11-21T09:30:58.673000Z</time>
      </trkpt>
      <trkpt lat="45.75672626495361" lon="10.358240604400635">
        <ele>770.2150377868999</ele>
        <time>2017-11-21T09:30:59.166000Z</time>
      </trkpt>
      <trkpt lat="45.75685501098633" lon="10.35834789276123">
        <ele>754.6950884661492</ele>
        <time>2017-11-21T09:30:59.405000Z</time>
      </trkpt>
      <trkpt lat="45.75739145278931" lon="10.358519554138184">
        <ele>750.3155757556548</ele>
        <time>2017-11-21T09:31:00.286000Z</time>
      </trkpt>
      <trkpt lat="45.75797080993652" lon="10.359227657318115">
        <ele>739.3921062098203</ele>
        <time>2017-11-21T09:31:01.507000Z</time>
      </trkpt>
      <trkpt lat="45.75859308242798" lon="10.359892845153809">
        <ele>729.0</ele>
        <time>2017-11-21T09:31:02.751000Z</time>
      </trkpt>
      <trkpt lat="45.7586145401001" lon="10.360064506530762">
        <ele>715.8999173166839</ele>
        <time>2017-11-21T09:31:02.946000Z</time>
      </trkpt>
      <trkpt lat="45.7585072517395" lon="10.36008596420288">
        <ele>716.7011360612181</ele>
        <time>2017-11-21T09:31:03.120000Z</time>
      </trkpt>
      <trkpt lat="45.75835704803467" lon="10.359764099121094">
        <ele>732.6993359208738</ele>
        <time>2017-11-21T09:31:03.553000Z</time>
      </trkpt>
      <trkpt lat="45.75779914855957" lon="10.359549522399902">
        <ele>740.3050115464758</ele>
        <time>2017-11-21T09:31:04.479000Z</time>
      </trkpt>
      <trkpt lat="45.75724124908447" lon="10.359141826629639">
        <ele>741.9076384464992</ele>
        <time>2017-11-21T09:31:05.483000Z</time>
      </trkpt>
      <trkpt lat="45.75676918029785" lon="10.359270572662354">
        <ele>720.032172127646</ele>
        <time>2017-11-21T09:31:06.253000Z</time>
      </trkpt>
      <trkpt lat="45.75653314590454" lon="10.35886287689209">
        <ele>720.4904905805524</ele>
        <time>2017-11-21T09:31:06.846000Z</time>
      </trkpt>
      <trkpt lat="45.756425857543945" lon="10.358755588531494">
        <ele>718.4111694139659</ele>
        <time>2017-11-21T09:31:07.056000Z</time>
      </trkpt>
      <trkpt lat="45.75629711151123" lon="10.358755588531494">
        <ele>716.3648348954279</ele>
        <time>2017-11-21T09:31:07.262000Z</time>
      </trkpt>
      <trkpt lat="45.75625419616699" lon="10.35884141921997">
        <ele>715.1938241259277</ele>
        <time>2017-11-21T09:31:07.380000Z</time>
      </trkpt>
      <trkpt lat="45.75627565383911" lon="10.359013080596924">
        <ele>713.2598446272272</ele>
        <time>2017-11-21T09:31:07.575000Z</time>
      </trkpt>
      <trkpt lat="45.75655460357666" lon="10.360171794891357">
        <ele>684.0</ele>
        <time>2017-11-21T09:31:08.946000Z</time>
      </trkpt>
      <trkpt lat="45.75661897659302" lon="10.36109447479248">
        <ele>671.1623110709485</ele>
        <time>2017-11-21T09:31:09.983000Z</time>
      </trkpt>
      <trkpt lat="45.7565975189209" lon="10.361630916595459">
        <ele>666.1492205006557</ele>
        <time>2017-11-21T09:31:10.584000Z</time>
      </trkpt>
      <trkpt lat="45.75651168823242" lon="10.362167358398438">
        <ele>658.3477602117172</ele>
        <time>2017-11-21T09:31:11.200000Z</time>
      </trkpt>
      <trkpt lat="45.75629711151123" lon="10.362725257873535">
        <ele>646.7375324913926</ele>
        <time>2017-11-21T09:31:11.913000Z</time>
      </trkpt>
      <trkpt lat="45.755202770233154" lon="10.365171432495117">
        <ele>609.0</ele>
        <time>2017-11-21T09:31:15.163000Z</time>
      </trkpt>
      <trkpt lat="45.75485944747925" lon="10.366137027740479">
        <ele>640.0</ele>
        <time>2017-11-21T09:31:16.375000Z</time>
      </trkpt>
      <trkpt lat="45.75464487075806" lon="10.366458892822266">
        <ele>636.0694791226815</ele>
        <time>2017-11-21T09:31:16.873000Z</time>
      </trkpt>
      <trkpt lat="45.7544732093811" lon="10.367124080657959">
        <ele>618.1408099214304</ele>
        <time>2017-11-21T09:31:17.666000Z</time>
      </trkpt>
      <trkpt lat="45.75430154800415" lon="10.367424488067627">
        <ele>614.7124173866058</ele>
        <time>2017-11-21T09:31:18.100000Z</time>
      </trkpt>
      <trkpt lat="45.75410842895508" lon="10.367939472198486">
        <ele>625.3041327784009</ele>
        <time>2017-11-21T09:31:18.754000Z</time>
      </trkpt>
      <trkpt lat="45.75400114059448" lon="10.367982387542725">
        <ele>625.9207982633366</ele>
        <time>2017-11-21T09:31:18.933000Z</time>
      </trkpt>
      <trkpt lat="45.75376510620117" lon="10.367918014526367">
        <ele>627.2509721584006</ele>
        <time>2017-11-21T09:31:19.318000Z</time>
      </trkpt>
      <trkpt lat="45.75327157974243" lon="10.367553234100342">
        <ele>629.7201555237133</ele>
        <time>2017-11-21T09:31:20.208000Z</time>
      </trkpt>
      <trkpt lat="45.75303554534912" lon="10.367510318756104">
        <ele>626.2762062527837</ele>
        <time>2017-11-21T09:31:20.589000Z</time>
      </trkpt>
      <trkpt lat="45.752949714660645" lon="10.3676176071167">
        <ele>624.6276566905096</ele>
        <time>2017-11-21T09:31:20.772000Z</time>
      </trkpt>
      <trkpt lat="45.75277805328369" lon="10.368025302886963">
        <ele>619.8183422949068</ele>
        <time>2017-11-21T09:31:21.305000Z</time>
      </trkpt>
      <trkpt lat="45.75262784957886" lon="10.368947982788086">
        <ele>597.9157452806757</ele>
        <time>2017-11-21T09:31:22.365000Z</time>
      </trkpt>
      <trkpt lat="45.75254201889038" lon="10.369162559509277">
        <ele>596.1697754287355</ele>
        <time>2017-11-21T09:31:22.642000Z</time>
      </trkpt>
      <trkpt lat="45.75204849243164" lon="10.369870662689209">
        <ele>591.4081245424354</ele>
        <time>2017-11-21T09:31:23.762000Z</time>
      </trkpt>
      <trkpt lat="45.75187683105469" lon="10.370235443115234">
        <ele>583.6481471183475</ele>
        <time>2017-11-21T09:31:24.254000Z</time>
      </trkpt>
      <trkpt lat="45.75161933898926" lon="10.370235443115234">
        <ele>587.9930554355223</ele>
        <time>2017-11-21T09:31:24.667000Z</time>
      </trkpt>
      <trkpt lat="45.751469219103456" lon="10.370171070098877">
        <ele>587.7972506145813</ele>
        <time>2017-11-21T09:31:24.918000Z</time>
      </trkpt>
      <trkpt lat="45.7514048460871" lon="10.370171070098877">
        <ele>587.7168110272083</ele>
        <time>2017-11-21T09:31:25.021000Z</time>
      </trkpt>
      <trkpt lat="45.75134038925171" lon="10.370192527770996">
        <ele>587.634122240098</ele>
        <time>2017-11-21T09:31:25.127000Z</time>
      </trkpt>
      <trkpt lat="45.750975608825684" lon="10.370814800262451">
        <ele>586.9254832701329</ele>
        <time>2017-11-21T09:31:26.036000Z</time>
      </trkpt>
      <trkpt lat="45.75078248977661" lon="10.370922088623047">
        <ele>583.0</ele>
        <time>2017-11-21T09:31:26.368000Z</time>
      </trkpt>
      <trkpt lat="45.75039625167847" lon="10.370986461639404">
        <ele>582.9534093504154</ele>
        <time>2017-11-21T09:31:26.991000Z</time>
      </trkpt>
      <trkpt lat="45.7496452331543" lon="10.371372699737549">
        <ele>585.5244678224755</ele>
        <time>2017-11-21T09:31:28.270000Z</time>
      </trkpt>
      <trkpt lat="45.749452114105225" lon="10.371866226196289">
        <ele>573.3097807305313</ele>
        <time>2017-11-21T09:31:28.903000Z</time>
      </trkpt>
      <trkpt lat="45.74910879135132" lon="10.371780395507812">
        <ele>570.8447159983065</ele>
        <time>2017-11-21T09:31:29.462000Z</time>
      </trkpt>
      <trkpt lat="45.74878692626953" lon="10.37182331085205">
        <ele>567.9399070522728</ele>
        <time>2017-11-21T09:31:29.980000Z</time>
      </trkpt>
      <trkpt lat="45.748658180236816" lon="10.371909141540527">
        <ele>566.4415022027346</ele>
        <time>2017-11-21T09:31:30.208000Z</time>
      </trkpt>
      <trkpt lat="45.7486367225647" lon="10.37208080291748">
        <ele>565.3424260901728</ele>
        <time>2017-11-21T09:31:30.403000Z</time>
      </trkpt>
      <trkpt lat="45.748722553253174" lon="10.372188091278076">
        <ele>564.3137873007055</ele>
        <time>2017-11-21T09:31:30.586000Z</time>
      </trkpt>
      <trkpt lat="45.749409198760986" lon="10.372467041015625">
        <ele>557.2013011329338</ele>
        <time>2017-11-21T09:31:31.730000Z</time>
      </trkpt>
      <trkpt lat="45.749452114105225" lon="10.372617244720459">
        <ele>544.8450812038044</ele>
        <time>2017-11-21T09:31:31.912000Z</time>
      </trkpt>
      <trkpt lat="45.749409198760986" lon="10.372703075408936">
        <ele>544.1796327944465</ele>
        <time>2017-11-21T09:31:32.030000Z</time>
      </trkpt>
      <trkpt lat="45.74904441833496" lon="10.372638702392578">
        <ele>545.1935579602793</ele>
        <time>2017-11-21T09:31:32.619000Z</time>
      </trkpt>
      <trkpt lat="45.748958587646484" lon="10.372681617736816">
        <ele>544.4646564243575</ele>
        <time>2017-11-21T09:31:32.765000Z</time>
      </trkpt>
      <trkpt lat="45.748937129974365" lon="10.372767448425293">
        <ele>543.9545269219416</ele>
        <time>2017-11-21T09:31:32.867000Z</time>
      </trkpt>
      <trkpt lat="45.74906587600708" lon="10.372874736785889">
        <ele>542.760354356244</ele>
        <time>2017-11-21T09:31:33.106000Z</time>
      </trkpt>
      <trkpt lat="45.74949502944946" lon="10.372939109802246">
        <ele>537.658573528931</ele>
        <time>2017-11-21T09:31:33.798000Z</time>
      </trkpt>
      <trkpt lat="45.74973106384277" lon="10.372617244720459">
        <ele>537.0783324188134</ele>
        <time>2017-11-21T09:31:34.320000Z</time>
      </trkpt>
      <trkpt lat="45.75005292892456" lon="10.372445583343506">
        <ele>547.5771363842381</ele>
        <time>2017-11-21T09:31:34.871000Z</time>
      </trkpt>
      <trkpt lat="45.75028896331787" lon="10.372531414031982">
        <ele>534.694465354209</ele>
        <time>2017-11-21T09:31:35.261000Z</time>
      </trkpt>
      <trkpt lat="45.75050354003906" lon="10.372467041015625">
        <ele>547.8000927088509</ele>
        <time>2017-11-21T09:31:35.612000Z</time>
      </trkpt>
      <trkpt lat="45.750975608825684" lon="10.372531414031982">
        <ele>535.361903342973</ele>
        <time>2017-11-21T09:31:36.372000Z</time>
      </trkpt>
      <trkpt lat="45.75110443867743" lon="10.372488498687744">
        <ele>547.135724349166</ele>
        <time>2017-11-21T09:31:36.584000Z</time>
      </trkpt>
      <trkpt lat="45.751233184710145" lon="10.372467041015625">
        <ele>546.1096676002319</ele>
        <time>2017-11-21T09:31:36.792000Z</time>
      </trkpt>
      <trkpt lat="45.75179100036621" lon="10.373024940490723">
        <ele>527.0581904633606</ele>
        <time>2017-11-21T09:31:37.882000Z</time>
      </trkpt>
      <trkpt lat="45.752177238464355" lon="10.372896194458008">
        <ele>523.9190135426628</ele>
        <time>2017-11-21T09:31:38.518000Z</time>
      </trkpt>
      <trkpt lat="45.75249910354614" lon="10.37285327911377">
        <ele>521.3868729977429</ele>
        <time>2017-11-21T09:31:39.036000Z</time>
      </trkpt>
      <trkpt lat="45.7525634765625" lon="10.372960567474365">
        <ele>518.9468089610294</ele>
        <time>2017-11-21T09:31:39.194000Z</time>
      </trkpt>
      <trkpt lat="45.75252056121826" lon="10.3731107711792">
        <ele>518.059676471992</ele>
        <time>2017-11-21T09:31:39.376000Z</time>
      </trkpt>
      <trkpt lat="45.75269230641425" lon="10.37308931350708">
        <ele>516.7092492938368</ele>
        <time>2017-11-21T09:31:39.652000Z</time>
      </trkpt>
      <trkpt lat="45.75284242630005" lon="10.37308931350708">
        <ele>515.5333212345143</ele>
        <time>2017-11-21T09:31:39.893000Z</time>
      </trkpt>
      <trkpt lat="45.75314283370972" lon="10.372917652130127">
        <ele>513.0</ele>
        <time>2017-11-21T09:31:40.411000Z</time>
      </trkpt>
      <trkpt lat="45.75387239456177" lon="10.373067855834961">
        <ele>523.4596619032645</ele>
        <time>2017-11-21T09:31:41.593000Z</time>
      </trkpt>
      <trkpt lat="45.755181312561035" lon="10.373497009277344">
        <ele>522.0</ele>
        <time>2017-11-21T09:31:43.746000Z</time>
      </trkpt>
      <trkpt lat="45.75597524642944" lon="10.373497009277344">
        <ele>529.2391746989147</ele>
        <time>2017-11-21T09:31:45.019000Z</time>
      </trkpt>
      <trkpt lat="45.756168365478516" lon="10.373668670654297">
        <ele>530.9904622497726</ele>
        <time>2017-11-21T09:31:45.383000Z</time>
      </trkpt>
      <trkpt lat="45.75698375701904" lon="10.373754501342773">
        <ele>541.9579766621852</ele>
        <time>2017-11-21T09:31:46.694000Z</time>
      </trkpt>
      <trkpt lat="45.757198333740234" lon="10.37409782409668">
        <ele>544.1153602721693</ele>
        <time>2017-11-21T09:31:47.210000Z</time>
      </trkpt>
      <trkpt lat="45.7574987411499" lon="10.374376773834229">
        <ele>544.3405398410736</ele>
        <time>2017-11-21T09:31:47.784000Z</time>
      </trkpt>
      <trkpt lat="45.75882911682129" lon="10.37459135055542">
        <ele>567.9834019977596</ele>
        <time>2017-11-21T09:31:49.930000Z</time>
      </trkpt>
      <trkpt lat="45.75923681259155" lon="10.374698638916016">
        <ele>584.0</ele>
        <time>2017-11-21T09:31:50.595000Z</time>
      </trkpt>
      <trkpt lat="45.75958013534546" lon="10.374934673309326">
        <ele>580.303893207165</ele>
        <time>2017-11-21T09:31:51.205000Z</time>
      </trkpt>
      <trkpt lat="45.76005220413208" lon="10.374999046325684">
        <ele>580.7009024369863</ele>
        <time>2017-11-21T09:31:51.965000Z</time>
      </trkpt>
      <trkpt lat="45.76026678085327" lon="10.37508487701416">
        <ele>565.5384551469356</ele>
        <time>2017-11-21T09:31:52.322000Z</time>
      </trkpt>
      <trkpt lat="45.76022386550903" lon="10.375235080718994">
        <ele>564.4392648150848</ele>
        <time>2017-11-21T09:31:52.504000Z</time>
      </trkpt>
      <trkpt lat="45.760159492492676" lon="10.375256538391113">
        <ele>563.7977314594028</ele>
        <time>2017-11-21T09:31:52.610000Z</time>
      </trkpt>
      <trkpt lat="45.75985908508301" lon="10.375213623046875">
        <ele>562.038882907095</ele>
        <time>2017-11-21T09:31:53.094000Z</time>
      </trkpt>
      <trkpt lat="45.75822830200195" lon="10.375299453735352">
        <ele>552.0</ele>
        <time>2017-11-21T09:31:55.710000Z</time>
      </trkpt>
      <trkpt lat="45.75788497924805" lon="10.375471115112305">
        <ele>551.819942583711</ele>
        <time>2017-11-21T09:31:56.293000Z</time>
      </trkpt>
      <trkpt lat="45.7576060295105" lon="10.37534236907959">
        <ele>551.6748245665143</ele>
        <time>2017-11-21T09:31:56.763000Z</time>
      </trkpt>
      <trkpt lat="45.75732707977295" lon="10.375299453735352">
        <ele>549.6136694258417</ele>
        <time>2017-11-21T09:31:57.213000Z</time>
      </trkpt>
      <trkpt lat="45.756940841674805" lon="10.375492572784424">
        <ele>547.5804025514325</ele>
        <time>2017-11-21T09:31:57.869000Z</time>
      </trkpt>
      <trkpt lat="45.75683355331421" lon="10.375428199768066">
        <ele>547.7154923250581</ele>
        <time>2017-11-21T09:31:58.055000Z</time>
      </trkpt>
      <trkpt lat="45.756683349609375" lon="10.375170707702637">
        <ele>547.9874750432233</ele>
        <time>2017-11-21T09:31:58.430000Z</time>
      </trkpt>
      <trkpt lat="45.75638294219971" lon="10.37484884262085">
        <ele>542.7564390050572</ele>
        <time>2017-11-21T09:31:59.031000Z</time>
      </trkpt>
      <trkpt lat="45.75610399246216" lon="10.374913215637207">
        <ele>547.3236870679052</ele>
        <time>2017-11-21T09:31:59.484000Z</time>
      </trkpt>
      <trkpt lat="45.755674839019775" lon="10.37532091140747">
        <ele>567.3130967679618</ele>
        <time>2017-11-21T09:32:00.309000Z</time>
      </trkpt>
      <trkpt lat="45.75453758239746" lon="10.37585735321045">
        <ele>596.0</ele>
        <time>2017-11-21T09:32:02.228000Z</time>
      </trkpt>
      <trkpt lat="45.753700733184814" lon="10.37656545639038">
        <ele>594.625360942938</ele>
        <time>2017-11-21T09:32:03.786000Z</time>
      </trkpt>
      <trkpt lat="45.753421783447266" lon="10.376672744750977">
        <ele>607.517660851892</ele>
        <time>2017-11-21T09:32:04.249000Z</time>
      </trkpt>
      <trkpt lat="45.753164291381836" lon="10.376672744750977">
        <ele>606.0956659043119</ele>
        <time>2017-11-21T09:32:04.662000Z</time>
      </trkpt>
      <trkpt lat="45.75303554534912" lon="10.376758575439453">
        <ele>606.9658538408672</ele>
        <time>2017-11-21T09:32:04.890000Z</time>
      </trkpt>
      <trkpt lat="45.75303554534912" lon="10.376887321472168">
        <ele>606.5928147151726</ele>
        <time>2017-11-21T09:32:05.034000Z</time>
      </trkpt>
      <trkpt lat="45.75309991836548" lon="10.376951694488525">
        <ele>606.2668597151277</ele>
        <time>2017-11-21T09:32:05.160000Z</time>
      </trkpt>
      <trkpt lat="45.75322866439819" lon="10.376973152160645">
        <ele>605.7286271831789</ele>
        <time>2017-11-21T09:32:05.368000Z</time>
      </trkpt>
      <trkpt lat="45.753722190856934" lon="10.376865863800049">
        <ele>606.6557715729203</ele>
        <time>2017-11-21T09:32:06.168000Z</time>
      </trkpt>
      <trkpt lat="45.75477361679077" lon="10.376307964324951">
        <ele>596.0</ele>
        <time>2017-11-21T09:32:07.965000Z</time>
      </trkpt>
      <trkpt lat="45.75488090515137" lon="10.376286506652832">
        <ele>597.95623202269</ele>
        <time>2017-11-21T09:32:08.139000Z</time>
      </trkpt>
      <trkpt lat="45.754945278167725" lon="10.376458168029785">
        <ele>600.4117443403987</ele>
        <time>2017-11-21T09:32:08.357000Z</time>
      </trkpt>
      <trkpt lat="45.754451751708984" lon="10.376694202423096">
        <ele>620.1405036031935</ele>
        <time>2017-11-21T09:32:09.191000Z</time>
      </trkpt>
      <trkpt lat="45.75352907180786" lon="10.377423763275146">
        <ele>616.2616540223459</ele>
        <time>2017-11-21T09:32:10.880000Z</time>
      </trkpt>
      <trkpt lat="45.75234889984131" lon="10.377638339996338">
        <ele>634.4885449355982</ele>
        <time>2017-11-21T09:32:12.787000Z</time>
      </trkpt>
      <trkpt lat="45.75176954269409" lon="10.377616882324219">
        <ele>636.7843436492085</ele>
        <time>2017-11-21T09:32:13.716000Z</time>
      </trkpt>
      <trkpt lat="45.75176954269409" lon="10.377745628356934">
        <ele>636.701502550637</ele>
        <time>2017-11-21T09:32:13.860000Z</time>
      </trkpt>
      <trkpt lat="45.75187683105469" lon="10.37783145904541">
        <ele>636.5881961484403</ele>
        <time>2017-11-21T09:32:14.057000Z</time>
      </trkpt>
      <trkpt lat="45.752177238464355" lon="10.377874374389648">
        <ele>636.309803126699</ele>
        <time>2017-11-21T09:32:14.541000Z</time>
      </trkpt>
      <trkpt lat="45.75284242630005" lon="10.378174781799316">
        <ele>635.0</ele>
        <time>2017-11-21T09:32:15.659000Z</time>
      </trkpt>
      <trkpt lat="45.7535719871521" lon="10.378196239471436">
        <ele>645.4924986384589</ele>
        <time>2017-11-21T09:32:16.829000Z</time>
      </trkpt>
      <trkpt lat="45.75423717498779" lon="10.37806749343872">
        <ele>657.0511228212382</ele>
        <time>2017-11-21T09:32:17.905000Z</time>
      </trkpt>
      <trkpt lat="45.75432300567627" lon="10.378110408782959">
        <ele>657.8231893868502</ele>
        <time>2017-11-21T09:32:18.051000Z</time>
      </trkpt>
      <trkpt lat="45.75434446334839" lon="10.378260612487793">
        <ele>658.7317652388591</ele>
        <time>2017-11-21T09:32:18.222000Z</time>
      </trkpt>
      <trkpt lat="45.75428009033203" lon="10.37832498550415">
        <ele>659.2427952564753</ele>
        <time>2017-11-21T09:32:18.348000Z</time>
      </trkpt>
      <trkpt lat="45.75348615646362" lon="10.378518104553223">
        <ele>668.485577140761</ele>
        <time>2017-11-21T09:32:19.639000Z</time>
      </trkpt>
      <trkpt lat="45.75267084874213" lon="10.378925800323486">
        <ele>665.580811942286</ele>
        <time>2017-11-21T09:32:21.023000Z</time>
      </trkpt>
      <trkpt lat="45.751919746398926" lon="10.379526615142822">
        <ele>676.6879207610428</ele>
        <time>2017-11-21T09:32:22.402000Z</time>
      </trkpt>
      <trkpt lat="45.75153350830078" lon="10.379762649536133">
        <ele>677.1500859417893</ele>
        <time>2017-11-21T09:32:23.075000Z</time>
      </trkpt>
      <trkpt lat="45.751364194376066" lon="10.379786754121">
        <ele>678.4634886705612</ele>
        <time>2017-11-21T09:32:23.348000Z</time>
      </trkpt>
      <trkpt lat="45.75136276893318" lon="10.37978695705533">
        <ele>678.4745461221559</ele>
        <time>2017-11-21T09:32:23.350000Z</time>
      </trkpt>
      <trkpt lat="45.751362685114145" lon="10.37978695705533">
        <ele>678.4751931388776</ele>
        <time>2017-11-21T09:32:23.350000Z</time>
      </trkpt>
      <trkpt lat="45.75048208236694" lon="10.379912853240967">
        <ele>685.9731581793563</ele>
        <time>2017-11-21T09:32:24.769000Z</time>
      </trkpt>
      <trkpt lat="45.750160217285156" lon="10.380105972290039">
        <ele>695.0</ele>
        <time>2017-11-21T09:32:25.328000Z</time>
      </trkpt>
      <trkpt lat="45.74958086013794" lon="10.380556583404541">
        <ele>693.6802267594466</ele>
        <time>2017-11-21T09:32:26.385000Z</time>
      </trkpt>
      <trkpt lat="45.7495379447937" lon="10.380685329437256">
        <ele>693.7829674649635</ele>
        <time>2017-11-21T09:32:26.545000Z</time>
      </trkpt>
      <trkpt lat="45.74960231781006" lon="10.380856990814209">
        <ele>699.9232945315263</ele>
        <time>2017-11-21T09:32:26.763000Z</time>
      </trkpt>
      <trkpt lat="45.75024604797363" lon="10.380663871765137">
        <ele>696.6019728253168</ele>
        <time>2017-11-21T09:32:27.817000Z</time>
      </trkpt>
      <trkpt lat="45.750954151153564" lon="10.380620956420898">
        <ele>701.7309767634051</ele>
        <time>2017-11-21T09:32:28.953000Z</time>
      </trkpt>
      <trkpt lat="45.750975608825684" lon="10.380749702453613">
        <ele>702.5135991363815</ele>
        <time>2017-11-21T09:32:29.101000Z</time>
      </trkpt>
      <trkpt lat="45.75037479400635" lon="10.3810715675354">
        <ele>717.1496623013323</ele>
        <time>2017-11-21T09:32:30.129000Z</time>
      </trkpt>
      <trkpt lat="45.750203132629395" lon="10.38135051727295">
        <ele>720.1044647985345</ele>
        <time>2017-11-21T09:32:30.545000Z</time>
      </trkpt>
      <trkpt lat="45.7496452331543" lon="10.382616519927979">
        <ele>736.0</ele>
        <time>2017-11-21T09:32:32.220000Z</time>
      </trkpt>
      <trkpt lat="45.74962377548218" lon="10.382766723632812">
        <ele>736.712832830732</ele>
        <time>2017-11-21T09:32:32.392000Z</time>
      </trkpt>
      <trkpt lat="45.749666690826416" lon="10.382895469665527">
        <ele>737.3762063924419</ele>
        <time>2017-11-21T09:32:32.552000Z</time>
      </trkpt>
      <trkpt lat="45.74975252151489" lon="10.382938385009766">
        <ele>737.9818957500793</ele>
        <time>2017-11-21T09:32:32.698000Z</time>
      </trkpt>
      <trkpt lat="45.74983835220337" lon="10.382916927337646">
        <ele>738.5624137309575</ele>
        <time>2017-11-21T09:32:32.838000Z</time>
      </trkpt>
      <trkpt lat="45.750160217285156" lon="10.382080078125">
        <ele>748.0050762762521</ele>
        <time>2017-11-21T09:32:33.907000Z</time>
      </trkpt>
      <trkpt lat="45.75024604797363" lon="10.381994247436523">
        <ele>748.2410209072212</ele>
        <time>2017-11-21T09:32:34.075000Z</time>
      </trkpt>
      <trkpt lat="45.75035333633423" lon="10.382037162780762">
        <ele>748.4921334407571</ele>
        <time>2017-11-21T09:32:34.254000Z</time>
      </trkpt>
      <trkpt lat="45.75050354003906" lon="10.382230281829834">
        <ele>748.9470485715237</ele>
        <time>2017-11-21T09:32:34.578000Z</time>
      </trkpt>
      <trkpt lat="45.75050354003906" lon="10.382423400878906">
        <ele>749.2508373934643</ele>
        <time>2017-11-21T09:32:34.794000Z</time>
      </trkpt>
      <trkpt lat="45.749967098236084" lon="10.384225845336914">
        <ele>753.0</ele>
        <time>2017-11-21T09:32:36.986000Z</time>
      </trkpt>
      <trkpt lat="45.74990280903876" lon="10.38459062576294">
        <ele>754.2746242182574</ele>
        <time>2017-11-21T09:32:37.407000Z</time>
      </trkpt>
      <trkpt lat="45.74979543685913" lon="10.385448932647705">
        <ele>763.9689374792237</ele>
        <time>2017-11-21T09:32:38.382000Z</time>
      </trkpt>
      <trkpt lat="45.7496452331543" lon="10.386135578155518">
        <ele>771.9431525581507</ele>
        <time>2017-11-21T09:32:39.187000Z</time>
      </trkpt>
      <trkpt lat="45.74953802861273" lon="10.386393070220947">
        <ele>772.0177491732751</ele>
        <time>2017-11-21T09:32:39.522000Z</time>
      </trkpt>
      <trkpt lat="45.74936628341675" lon="10.386393070220947">
        <ele>769.6738754251888</ele>
        <time>2017-11-21T09:32:39.797000Z</time>
      </trkpt>
      <trkpt lat="45.74906587600708" lon="10.386264324188232">
        <ele>753.7280237508224</ele>
        <time>2017-11-21T09:32:40.300000Z</time>
      </trkpt>
      <trkpt lat="45.74889421463013" lon="10.38630723953247">
        <ele>751.3499127317968</ele>
        <time>2017-11-21T09:32:40.579000Z</time>
      </trkpt>
      <trkpt lat="45.748658180236816" lon="10.3865647315979">
        <ele>747.3015097634061</ele>
        <time>2017-11-21T09:32:41.055000Z</time>
      </trkpt>
      <trkpt lat="45.7486367225647" lon="10.386500358581543">
        <ele>746.6221169871111</ele>
        <time>2017-11-21T09:32:41.135000Z</time>
      </trkpt>
      <trkpt lat="45.748722553253174" lon="10.38609266281128">
        <ele>742.5666786888723</ele>
        <time>2017-11-21T09:32:41.611000Z</time>
      </trkpt>
      <trkpt lat="45.748679637908936" lon="10.385985374450684">
        <ele>742.0700059748243</ele>
        <time>2017-11-21T09:32:41.749000Z</time>
      </trkpt>
      <trkpt lat="45.74850797653198" lon="10.385942459106445">
        <ele>741.0670771521642</ele>
        <time>2017-11-21T09:32:42.028000Z</time>
      </trkpt>
      <trkpt lat="45.7475209236145" lon="10.386135578155518">
        <ele>734.0</ele>
        <time>2017-11-21T09:32:43.625000Z</time>
      </trkpt>
      <trkpt lat="45.74700593948364" lon="10.386114120483398">
        <ele>722.2280720035702</ele>
        <time>2017-11-21T09:32:44.451000Z</time>
      </trkpt>
      <trkpt lat="45.74636220932007" lon="10.386028289794922">
        <ele>712.6517265553517</ele>
        <time>2017-11-21T09:32:45.487000Z</time>
      </trkpt>
      <trkpt lat="45.74537515640259" lon="10.386114120483398">
        <ele>704.071484703611</ele>
        <time>2017-11-21T09:32:47.072000Z</time>
      </trkpt>
      <trkpt lat="45.744967460632324" lon="10.386478900909424">
        <ele>700.2453848820384</ele>
        <time>2017-11-21T09:32:47.843000Z</time>
      </trkpt>
      <trkpt lat="45.74490308761597" lon="10.386650562286377">
        <ele>704.001981457708</ele>
        <time>2017-11-21T09:32:48.061000Z</time>
      </trkpt>
      <trkpt lat="45.74490308761597" lon="10.387444496154785">
        <ele>723.9732030414543</ele>
        <time>2017-11-21T09:32:48.949000Z</time>
      </trkpt>
      <trkpt lat="45.744967460632324" lon="10.387659072875977">
        <ele>727.4755810217825</ele>
        <time>2017-11-21T09:32:49.210000Z</time>
      </trkpt>
      <trkpt lat="45.74509620666504" lon="10.38783073425293">
        <ele>748.0</ele>
        <time>2017-11-21T09:32:49.492000Z</time>
      </trkpt>
      <trkpt lat="45.7451605796814" lon="10.388023853302002">
        <ele>746.222021245588</ele>
        <time>2017-11-21T09:32:49.731000Z</time>
      </trkpt>
      <trkpt lat="45.74513912200928" lon="10.388238430023193">
        <ele>744.4211976098268</ele>
        <time>2017-11-21T09:32:49.974000Z</time>
      </trkpt>
      <trkpt lat="45.74509620666504" lon="10.388431549072266">
        <ele>740.737464293558</ele>
        <time>2017-11-21T09:32:50.201000Z</time>
      </trkpt>
      <trkpt lat="45.744967460632324" lon="10.388603210449219">
        <ele>724.3106179757428</ele>
        <time>2017-11-21T09:32:50.483000Z</time>
      </trkpt>
      <trkpt lat="45.74462413787842" lon="10.38883924484253">
        <ele>719.7774691138007</ele>
        <time>2017-11-21T09:32:51.093000Z</time>
      </trkpt>
      <trkpt lat="45.744452476501465" lon="10.389182567596436">
        <ele>721.6020709523773</ele>
        <time>2017-11-21T09:32:51.566000Z</time>
      </trkpt>
      <trkpt lat="45.744452476501465" lon="10.38956880569458">
        <ele>718.6080223186381</ele>
        <time>2017-11-21T09:32:51.998000Z</time>
      </trkpt>
      <trkpt lat="45.74455976486206" lon="10.390405654907227">
        <ele>715.6790304456493</ele>
        <time>2017-11-21T09:32:52.950000Z</time>
      </trkpt>
      <trkpt lat="45.744473934173584" lon="10.390706062316895">
        <ele>711.2642294250492</ele>
        <time>2017-11-21T09:32:53.313000Z</time>
      </trkpt>
      <trkpt lat="45.74406623840332" lon="10.391242504119873">
        <ele>684.1439153088709</ele>
        <time>2017-11-21T09:32:54.200000Z</time>
      </trkpt>
      <trkpt lat="45.743958950042725" lon="10.391285419464111">
        <ele>682.0267525736427</ele>
        <time>2017-11-21T09:32:54.379000Z</time>
      </trkpt>
      <trkpt lat="45.74383020401001" lon="10.391263961791992">
        <ele>679.5632125704457</ele>
        <time>2017-11-21T09:32:54.587000Z</time>
      </trkpt>
      <trkpt lat="45.74337959289551" lon="10.390856266021729">
        <ele>669.4341673731084</ele>
        <time>2017-11-21T09:32:55.441000Z</time>
      </trkpt>
      <trkpt lat="45.7425856590271" lon="10.39081335067749">
        <ele>643.0</ele>
        <time>2017-11-21T09:32:56.715000Z</time>
      </trkpt>
      <trkpt lat="45.74249982833862" lon="10.390770435333252">
        <ele>650.95450194553</ele>
        <time>2017-11-21T09:32:56.861000Z</time>
      </trkpt>
      <trkpt lat="45.74244845317227" lon="10.390584054869386">
        <ele>652.9357170449374</ele>
        <time>2017-11-21T09:32:57.085000Z</time>
      </trkpt>
      <trkpt lat="45.74244802817702" lon="10.390582513064146">
        <ele>652.952106367066</ele>
        <time>2017-11-21T09:32:57.087000Z</time>
      </trkpt>
      <trkpt lat="45.742448111996055" lon="10.390583015978336">
        <ele>652.9572183532977</ele>
        <time>2017-11-21T09:32:57.087000Z</time>
      </trkpt>
      <trkpt lat="45.74244802817702" lon="10.390582764521241">
        <ele>652.9599734584331</ele>
        <time>2017-11-21T09:32:57.087000Z</time>
      </trkpt>
      <trkpt lat="45.74232816696167" lon="10.390148162841797">
        <ele>657.5801058625428</ele>
        <time>2017-11-21T09:32:57.610000Z</time>
      </trkpt>
      <trkpt lat="45.74226379394531" lon="10.390040874481201">
        <ele>657.6121230794014</ele>
        <time>2017-11-21T09:32:57.768000Z</time>
      </trkpt>
      <trkpt lat="45.741984844207764" lon="10.389976501464844">
        <ele>649.3704041545949</ele>
        <time>2017-11-21T09:32:58.221000Z</time>
      </trkpt>
      <trkpt lat="45.74179172515869" lon="10.3895902633667">
        <ele>649.4779224382397</ele>
        <time>2017-11-21T09:32:58.753000Z</time>
      </trkpt>
      <trkpt lat="45.741448402404785" lon="10.389504432678223">
        <ele>655.5909258502298</ele>
        <time>2017-11-21T09:32:59.312000Z</time>
      </trkpt>
      <trkpt lat="45.74129819869995" lon="10.389418601989746">
        <ele>655.6433592896768</ele>
        <time>2017-11-21T09:32:59.571000Z</time>
      </trkpt>
      <trkpt lat="45.741212368011475" lon="10.389225482940674">
        <ele>654.6801430515792</ele>
        <time>2017-11-21T09:32:59.827000Z</time>
      </trkpt>
      <trkpt lat="45.74086904525757" lon="10.387680530548096">
        <ele>629.6546810663461</ele>
        <time>2017-11-21T09:33:01.641000Z</time>
      </trkpt>
      <trkpt lat="45.74074029922485" lon="10.387530326843262">
        <ele>638.3369186396212</ele>
        <time>2017-11-21T09:33:01.907000Z</time>
      </trkpt>
      <trkpt lat="45.74054718017578" lon="10.3875732421875">
        <ele>637.5705170463849</ele>
        <time>2017-11-21T09:33:02.220000Z</time>
      </trkpt>
      <trkpt lat="45.74013948440552" lon="10.38780927658081">
        <ele>635.8460902329596</ele>
        <time>2017-11-21T09:33:02.925000Z</time>
      </trkpt>
      <trkpt lat="45.73981761932373" lon="10.387873649597168">
        <ele>625.9049408248089</ele>
        <time>2017-11-21T09:33:03.446000Z</time>
      </trkpt>
      <trkpt lat="45.73964595794678" lon="10.387980937957764">
        <ele>625.68739070941</ele>
        <time>2017-11-21T09:33:03.746000Z</time>
      </trkpt>
      <trkpt lat="45.73953866958618" lon="10.388152599334717">
        <ele>625.0065315637352</ele>
        <time>2017-11-21T09:33:04.004000Z</time>
      </trkpt>
      <trkpt lat="45.739238262176514" lon="10.38832426071167">
        <ele>623.637324351634</ele>
        <time>2017-11-21T09:33:04.522000Z</time>
      </trkpt>
      <trkpt lat="45.738937854766846" lon="10.388367176055908">
        <ele>626.359222263504</ele>
        <time>2017-11-21T09:33:05.006000Z</time>
      </trkpt>
      <trkpt lat="45.73831558227539" lon="10.388603210449219">
        <ele>615.9673683712018</ele>
        <time>2017-11-21T09:33:06.038000Z</time>
      </trkpt>
      <trkpt lat="45.738277930538956" lon="10.38862831160712">
        <ele>616.0111838304376</ele>
        <time>2017-11-21T09:33:06.105000Z</time>
      </trkpt>
      <trkpt lat="45.73827736079693" lon="10.38862869143486">
        <ele>616.0118468411698</ele>
        <time>2017-11-21T09:33:06.107000Z</time>
      </trkpt>
      <trkpt lat="45.73827744461596" lon="10.388628607615829">
        <ele>616.011954686683</ele>
        <time>2017-11-21T09:33:06.107000Z</time>
      </trkpt>
      <trkpt lat="45.73812246322632" lon="10.388731956481934">
        <ele>616.1923158490225</ele>
        <time>2017-11-21T09:33:06.381000Z</time>
      </trkpt>
      <trkpt lat="45.73782205581665" lon="10.389032363891602">
        <ele>616.578836278501</ele>
        <time>2017-11-21T09:33:06.968000Z</time>
      </trkpt>
      <trkpt lat="45.73756456375122" lon="10.389182567596436">
        <ele>630.0686842192694</ele>
        <time>2017-11-21T09:33:07.414000Z</time>
      </trkpt>
      <trkpt lat="45.737199783325195" lon="10.389225482940674">
        <ele>621.0469046877705</ele>
        <time>2017-11-21T09:33:08.001000Z</time>
      </trkpt>
      <trkpt lat="45.73679208755493" lon="10.389182567596436">
        <ele>616.7851041800973</ele>
        <time>2017-11-21T09:33:08.656000Z</time>
      </trkpt>
      <trkpt lat="45.73681354522705" lon="10.389525890350342">
        <ele>614.2769602159726</ele>
        <time>2017-11-21T09:33:09.042000Z</time>
      </trkpt>
      <trkpt lat="45.73674917221069" lon="10.389761924743652">
        <ele>612.4330193545507</ele>
        <time>2017-11-21T09:33:09.326000Z</time>
      </trkpt>
      <trkpt lat="45.7366418838501" lon="10.389912128448486">
        <ele>600.2025133980034</ele>
        <time>2017-11-21T09:33:09.566000Z</time>
      </trkpt>
      <trkpt lat="45.736491680145264" lon="10.389890670776367">
        <ele>598.6288321414131</ele>
        <time>2017-11-21T09:33:09.808000Z</time>
      </trkpt>
      <trkpt lat="45.73632001876831" lon="10.390255451202393">
        <ele>602.5582409159697</ele>
        <time>2017-11-21T09:33:10.300000Z</time>
      </trkpt>
      <trkpt lat="45.736212730407715" lon="10.390276908874512">
        <ele>602.3123892932526</ele>
        <time>2017-11-21T09:33:10.474000Z</time>
      </trkpt>
      <trkpt lat="45.73604106903076" lon="10.389976501464844">
        <ele>596.3640649069713</ele>
        <time>2017-11-21T09:33:10.908000Z</time>
      </trkpt>
      <trkpt lat="45.735955238342285" lon="10.389933586120605">
        <ele>596.157751224178</ele>
        <time>2017-11-21T09:33:11.054000Z</time>
      </trkpt>
      <trkpt lat="45.73586940765381" lon="10.389976501464844">
        <ele>595.9514375069574</ele>
        <time>2017-11-21T09:33:11.200000Z</time>
      </trkpt>
      <trkpt lat="45.73582649230957" lon="10.390448570251465">
        <ele>590.8640148573216</ele>
        <time>2017-11-21T09:33:11.733000Z</time>
      </trkpt>
      <trkpt lat="45.735740661621094" lon="10.390727519989014">
        <ele>592.5397632620314</ele>
        <time>2017-11-21T09:33:12.074000Z</time>
      </trkpt>
      <trkpt lat="45.73554754257202" lon="10.391006469726562">
        <ele>599.3661598805392</ele>
        <time>2017-11-21T09:33:12.514000Z</time>
      </trkpt>
      <trkpt lat="45.735204219818115" lon="10.39132833480835">
        <ele>602.597454139173</ele>
        <time>2017-11-21T09:33:13.172000Z</time>
      </trkpt>
      <trkpt lat="45.73516130447388" lon="10.391392707824707">
        <ele>603.0867877525152</ele>
        <time>2017-11-21T09:33:13.272000Z</time>
      </trkpt>
      <trkpt lat="45.73511838912964" lon="10.391607284545898">
        <ele>604.3137788614796</ele>
        <time>2017-11-21T09:33:13.522000Z</time>
      </trkpt>
      <trkpt lat="45.73541879653931" lon="10.392937660217285">
        <ele>621.0</ele>
        <time>2017-11-21T09:33:15.087000Z</time>
      </trkpt>
      <trkpt lat="45.73541879653931" lon="10.39306640625">
        <ele>619.6556871955976</ele>
        <time>2017-11-21T09:33:15.231000Z</time>
      </trkpt>
      <trkpt lat="45.73531150817871" lon="10.39308786392212">
        <ele>618.0351036698324</ele>
        <time>2017-11-21T09:33:15.405000Z</time>
      </trkpt>
      <trkpt lat="45.7350754737854" lon="10.391972064971924">
        <ele>603.5276649996049</ele>
        <time>2017-11-21T09:33:16.710000Z</time>
      </trkpt>
      <trkpt lat="45.73477506637573" lon="10.391371250152588">
        <ele>568.4054380105468</ele>
        <time>2017-11-21T09:33:17.537000Z</time>
      </trkpt>
      <trkpt lat="45.73486089706421" lon="10.3910493850708">
        <ele>563.0</ele>
        <time>2017-11-21T09:33:17.923000Z</time>
      </trkpt>
      <trkpt lat="45.73537588119507" lon="10.390169620513916">
        <ele>565.8487848878167</ele>
        <time>2017-11-21T09:33:19.208000Z</time>
      </trkpt>
      <trkpt lat="45.73533296585083" lon="10.39006233215332">
        <ele>565.5453082043924</ele>
        <time>2017-11-21T09:33:19.346000Z</time>
      </trkpt>
      <trkpt lat="45.73524713516235" lon="10.39008378982544">
        <ele>565.2389566817645</ele>
        <time>2017-11-21T09:33:19.486000Z</time>
      </trkpt>
      <trkpt lat="45.73490381240845" lon="10.390684604644775">
        <ele>552.3333333333334</ele>
        <time>2017-11-21T09:33:20.355000Z</time>
      </trkpt>
      <trkpt lat="45.73453903198242" lon="10.390985012054443">
        <ele>561.5598118866322</ele>
        <time>2017-11-21T09:33:21.030000Z</time>
      </trkpt>
      <trkpt lat="45.734474658966064" lon="10.391221046447754">
        <ele>563.4871053960145</ele>
        <time>2017-11-21T09:33:21.314000Z</time>
      </trkpt>
      <trkpt lat="45.734453201293945" lon="10.391757488250732">
        <ele>571.2402947345739</ele>
        <time>2017-11-21T09:33:21.915000Z</time>
      </trkpt>
      <trkpt lat="45.73430299758911" lon="10.391757488250732">
        <ele>571.4871217529918</ele>
        <time>2017-11-21T09:33:22.156000Z</time>
      </trkpt>
      <trkpt lat="45.73434591293335" lon="10.391221046447754">
        <ele>568.4397756325076</ele>
        <time>2017-11-21T09:33:22.760000Z</time>
      </trkpt>
      <trkpt lat="45.73428153991699" lon="10.391092300415039">
        <ele>568.6214252049475</ele>
        <time>2017-11-21T09:33:22.937000Z</time>
      </trkpt>
      <trkpt lat="45.734195709228516" lon="10.391113758087158">
        <ele>568.7646004524603</ele>
        <time>2017-11-21T09:33:23.077000Z</time>
      </trkpt>
      <trkpt lat="45.73410987854004" lon="10.391521453857422">
        <ele>557.5863656828363</ele>
        <time>2017-11-21T09:33:23.553000Z</time>
      </trkpt>
      <trkpt lat="45.73413133621216" lon="10.391757488250732">
        <ele>560.8593819412087</ele>
        <time>2017-11-21T09:33:23.819000Z</time>
      </trkpt>
      <trkpt lat="45.73441028594971" lon="10.39233684539795">
        <ele>574.0</ele>
        <time>2017-11-21T09:33:24.607000Z</time>
      </trkpt>
      <trkpt lat="45.73438882827759" lon="10.39255142211914">
        <ele>566.7710839073363</ele>
        <time>2017-11-21T09:33:24.850000Z</time>
      </trkpt>
      <trkpt lat="45.734260166063905" lon="10.392615795135498">
        <ele>563.5624365841251</ele>
        <time>2017-11-21T09:33:25.068000Z</time>
      </trkpt>
      <trkpt lat="45.73413133621216" lon="10.392465591430664">
        <ele>550.9851238201226</ele>
        <time>2017-11-21T09:33:25.334000Z</time>
      </trkpt>
      <trkpt lat="45.733959674835205" lon="10.392036437988281">
        <ele>542.8565911218001</ele>
        <time>2017-11-21T09:33:25.887000Z</time>
      </trkpt>
      <trkpt lat="45.73380947113037" lon="10.391542911529541">
        <ele>531.0086894719366</ele>
        <time>2017-11-21T09:33:26.489000Z</time>
      </trkpt>
      <trkpt lat="45.73376655578613" lon="10.391221046447754">
        <ele>526.3277425295242</ele>
        <time>2017-11-21T09:33:26.856000Z</time>
      </trkpt>
      <trkpt lat="45.733938217163086" lon="10.390641689300537">
        <ele>513.3368972535042</ele>
        <time>2017-11-21T09:33:27.560000Z</time>
      </trkpt>
      <trkpt lat="45.73404550552368" lon="10.389890670776367">
        <ele>500.0</ele>
        <time>2017-11-21T09:33:28.418000Z</time>
      </trkpt>
      <trkpt lat="45.73415279388428" lon="10.389676094055176">
        <ele>500.0</ele>
        <time>2017-11-21T09:33:28.713000Z</time>
      </trkpt>
      <trkpt lat="45.73441028594971" lon="10.38956880569458">
        <ele>512.0</ele>
        <time>2017-11-21T09:33:29.143000Z</time>
      </trkpt>
      <trkpt lat="45.734453201293945" lon="10.389525890350342">
        <ele>512.0</ele>
        <time>2017-11-21T09:33:29.227000Z</time>
      </trkpt>
      <trkpt lat="45.734431743621826" lon="10.389440059661865">
        <ele>512.0</ele>
        <time>2017-11-21T09:33:29.329000Z</time>
      </trkpt>
      <trkpt lat="45.73436737060547" lon="10.389418601989746">
        <ele>512.0</ele>
        <time>2017-11-21T09:33:29.435000Z</time>
      </trkpt>
      <trkpt lat="45.7340669631958" lon="10.389525890350342">
        <ele>500.0</ele>
        <time>2017-11-21T09:33:29.931000Z</time>
      </trkpt>
      <trkpt lat="45.73389530181885" lon="10.389783382415771">
        <ele>500.0</ele>
        <time>2017-11-21T09:33:30.329000Z</time>
      </trkpt>
      <trkpt lat="45.73378801345825" lon="10.39029836654663">
        <ele>506.2085808661634</ele>
        <time>2017-11-21T09:33:30.930000Z</time>
      </trkpt>
      <trkpt lat="45.733702182769775" lon="10.390276908874512">
        <ele>505.79250080500606</ele>
        <time>2017-11-21T09:33:31.070000Z</time>
      </trkpt>
      <trkpt lat="45.73380947113037" lon="10.3895902633667">
        <ele>492.87112018589687</ele>
        <time>2017-11-21T09:33:31.857000Z</time>
      </trkpt>
      <trkpt lat="45.73404550552368" lon="10.38905382156372">
        <ele>481.76923046288107</ele>
        <time>2017-11-21T09:33:32.567000Z</time>
      </trkpt>
      <trkpt lat="45.734689235687256" lon="10.388131141662598">
        <ele>479.4910233670862</ele>
        <time>2017-11-21T09:33:34.027000Z</time>
      </trkpt>
      <trkpt lat="45.73456048965454" lon="10.38808822631836">
        <ele>478.9667483705164</ele>
        <time>2017-11-21T09:33:34.239000Z</time>
      </trkpt>
      <trkpt lat="45.73389530181885" lon="10.388774871826172">
        <ele>472.4253852281767</ele>
        <time>2017-11-21T09:33:35.553000Z</time>
      </trkpt>
      <trkpt lat="45.73376655578613" lon="10.389010906219482">
        <ele>472.3766839907216</ele>
        <time>2017-11-21T09:33:35.888000Z</time>
      </trkpt>
      <trkpt lat="45.73365926742554" lon="10.38905382156372">
        <ele>472.3507385635665</ele>
        <time>2017-11-21T09:33:36.067000Z</time>
      </trkpt>
      <trkpt lat="45.73363780975342" lon="10.388967990875244">
        <ele>472.3359163798702</ele>
        <time>2017-11-21T09:33:36.169000Z</time>
      </trkpt>
      <trkpt lat="45.73385238647461" lon="10.388646125793457">
        <ele>472.880796660984</ele>
        <time>2017-11-21T09:33:36.667000Z</time>
      </trkpt>
      <trkpt lat="45.73400259017944" lon="10.38806676864624">
        <ele>463.9707259755774</ele>
        <time>2017-11-21T09:33:37.359000Z</time>
      </trkpt>
      <trkpt lat="45.73428153991699" lon="10.387659072875977">
        <ele>475.6696293267043</ele>
        <time>2017-11-21T09:33:37.998000Z</time>
      </trkpt>
      <trkpt lat="45.73464632034302" lon="10.387530326843262">
        <ele>474.9283842273526</ele>
        <time>2017-11-21T09:33:38.600000Z</time>
      </trkpt>
      <trkpt lat="45.7350754737854" lon="10.386993885040283">
        <ele>457.7605541645485</ele>
        <time>2017-11-21T09:33:39.513000Z</time>
      </trkpt>
      <trkpt lat="45.73537588119507" lon="10.38684368133545">
        <ele>452.8250574630303</ele>
        <time>2017-11-21T09:33:40.023000Z</time>
      </trkpt>
      <trkpt lat="45.735697746276855" lon="10.3865647315979">
        <ele>439.3232692693691</ele>
        <time>2017-11-21T09:33:40.626000Z</time>
      </trkpt>
      <trkpt lat="45.736727714538574" lon="10.386285781860352">
        <ele>453.0</ele>
        <time>2017-11-21T09:33:42.306000Z</time>
      </trkpt>
      <trkpt lat="45.73704957962036" lon="10.385921001434326">
        <ele>449.7403368176809</ele>
        <time>2017-11-21T09:33:42.964000Z</time>
      </trkpt>
      <trkpt lat="45.737178325653076" lon="10.385856628417969">
        <ele>448.65724079250816</ele>
        <time>2017-11-21T09:33:43.183000Z</time>
      </trkpt>
      <trkpt lat="45.737221240997314" lon="10.385727882385254">
        <ele>442.8662851425102</ele>
        <time>2017-11-21T09:33:43.343000Z</time>
      </trkpt>
      <trkpt lat="45.73713541030884" lon="10.385706424713135">
        <ele>442.1742410940306</ele>
        <time>2017-11-21T09:33:43.483000Z</time>
      </trkpt>
      <trkpt lat="45.73679208755493" lon="10.38607120513916">
        <ele>443.779253279522</ele>
        <time>2017-11-21T09:33:44.168000Z</time>
      </trkpt>
      <trkpt lat="45.73655605316162" lon="10.386178493499756">
        <ele>435.47903778781364</ele>
        <time>2017-11-21T09:33:44.565000Z</time>
      </trkpt>
      <trkpt lat="45.73612689971924" lon="10.386178493499756">
        <ele>433.1928001846993</ele>
        <time>2017-11-21T09:33:45.253000Z</time>
      </trkpt>
      <trkpt lat="45.73589094914496" lon="10.38607120513916">
        <ele>432.3366389382821</ele>
        <time>2017-11-21T09:33:45.650000Z</time>
      </trkpt>
      <trkpt lat="45.73550462722778" lon="10.38609266281128">
        <ele>428.99951771887476</ele>
        <time>2017-11-21T09:33:46.270000Z</time>
      </trkpt>
      <trkpt lat="45.73529005050659" lon="10.386157035827637">
        <ele>428.43744258270704</ele>
        <time>2017-11-21T09:33:46.621000Z</time>
      </trkpt>
      <trkpt lat="45.73477506637573" lon="10.386693477630615">
        <ele>426.80500156577364</ele>
        <time>2017-11-21T09:33:47.642000Z</time>
      </trkpt>
      <trkpt lat="45.734474658966064" lon="10.38684368133545">
        <ele>425.9892437557264</ele>
        <time>2017-11-21T09:33:48.152000Z</time>
      </trkpt>
      <trkpt lat="45.733959674835205" lon="10.386886596679688">
        <ele>423.0</ele>
        <time>2017-11-21T09:33:48.979000Z</time>
      </trkpt>
      <trkpt lat="45.73376655578613" lon="10.386950969696045">
        <ele>424.68333538825715</ele>
        <time>2017-11-21T09:33:49.297000Z</time>
      </trkpt>
      <trkpt lat="45.73359489440918" lon="10.387144088745117">
        <ele>426.53632533058527</ele>
        <time>2017-11-21T09:33:49.647000Z</time>
      </trkpt>
      <trkpt lat="45.73338031768799" lon="10.387723445892334">
        <ele>437.08955833273234</ele>
        <time>2017-11-21T09:33:50.381000Z</time>
      </trkpt>
      <trkpt lat="45.73310136795044" lon="10.388238430023193">
        <ele>428.1254356941359</ele>
        <time>2017-11-21T09:33:51.110000Z</time>
      </trkpt>
      <trkpt lat="45.73284387588501" lon="10.388603210449219">
        <ele>428.5622393242755</ele>
        <time>2017-11-21T09:33:51.691000Z</time>
      </trkpt>
      <trkpt lat="45.73265075683594" lon="10.388796329498291">
        <ele>427.5455929486504</ele>
        <time>2017-11-21T09:33:52.069000Z</time>
      </trkpt>
      <trkpt lat="45.73202848434448" lon="10.389204025268555">
        <ele>417.56884813329526</ele>
        <time>2017-11-21T09:33:53.166000Z</time>
      </trkpt>
      <trkpt lat="45.731470584869385" lon="10.389697551727295">
        <ele>408.0700508345756</ele>
        <time>2017-11-21T09:33:54.217000Z</time>
      </trkpt>
      <trkpt lat="45.73112726211548" lon="10.389761924743652">
        <ele>405.34231209493083</ele>
        <time>2017-11-21T09:33:54.772000Z</time>
      </trkpt>
      <trkpt lat="45.73086977005005" lon="10.389633178710938">
        <ele>404.6723080972115</ele>
        <time>2017-11-21T09:33:55.209000Z</time>
      </trkpt>
      <trkpt lat="45.730483531951904" lon="10.389654636383057">
        <ele>403.7227204613617</ele>
        <time>2017-11-21T09:33:55.829000Z</time>
      </trkpt>
      <trkpt lat="45.730204582214355" lon="10.389761924743652">
        <ele>404.1387137585079</ele>
        <time>2017-11-21T09:33:56.292000Z</time>
      </trkpt>
      <trkpt lat="45.729947090148926" lon="10.389869213104248">
        <ele>405.8582755094174</ele>
        <time>2017-11-21T09:33:56.722000Z</time>
      </trkpt>
      <trkpt lat="45.729496479034424" lon="10.390233993530273">
        <ele>402.45312732272515</ele>
        <time>2017-11-21T09:33:57.552000Z</time>
      </trkpt>
      <trkpt lat="45.72911024093628" lon="10.390663146972656">
        <ele>401.7186393985921</ele>
        <time>2017-11-21T09:33:58.336000Z</time>
      </trkpt>
      <trkpt lat="45.72876691818237" lon="10.390877723693848">
        <ele>405.0</ele>
        <time>2017-11-21T09:33:58.936000Z</time>
      </trkpt>
      <trkpt lat="45.72829484939575" lon="10.390963554382324">
        <ele>398.038328918115</ele>
        <time>2017-11-21T09:33:59.699000Z</time>
      </trkpt>
      <trkpt lat="45.7276725769043" lon="10.391521453857422">
        <ele>393.46941096082656</ele>
        <time>2017-11-21T09:34:00.876000Z</time>
      </trkpt>
      <trkpt lat="45.72730779647827" lon="10.39156436920166">
        <ele>393.79858205686054</ele>
        <time>2017-11-21T09:34:01.463000Z</time>
      </trkpt>
      <trkpt lat="45.72707176208496" lon="10.391457080841064">
        <ele>392.4426175499395</ele>
        <time>2017-11-21T09:34:01.860000Z</time>
      </trkpt>
      <trkpt lat="45.72690010070801" lon="10.391457080841064">
        <ele>391.502646980747</ele>
        <time>2017-11-21T09:34:02.135000Z</time>
      </trkpt>
      <trkpt lat="45.72664260864258" lon="10.392100811004639">
        <ele>383.0</ele>
        <time>2017-11-21T09:34:02.965000Z</time>
      </trkpt>
      <trkpt lat="45.726449489593506" lon="10.392272472381592">
        <ele>383.14429770806584</ele>
        <time>2017-11-21T09:34:03.329000Z</time>
      </trkpt>
      <trkpt lat="45.72617053985596" lon="10.392401218414307">
        <ele>383.3303672935594</ele>
        <time>2017-11-21T09:34:03.799000Z</time>
      </trkpt>
      <trkpt lat="45.72587013244629" lon="10.392658710479736">
        <ele>387.21929807691714</ele>
        <time>2017-11-21T09:34:04.360000Z</time>
      </trkpt>
      <trkpt lat="45.72511911392212" lon="10.39405345916748">
        <ele>385.0</ele>
        <time>2017-11-21T09:34:06.331000Z</time>
      </trkpt>
      <trkpt lat="45.724754333496094" lon="10.394418239593506">
        <ele>381.16411573548356</ele>
        <time>2017-11-21T09:34:07.044000Z</time>
      </trkpt>
      <trkpt lat="45.7245397567749" lon="10.394504070281982">
        <ele>380.9124471484436</ele>
        <time>2017-11-21T09:34:07.401000Z</time>
      </trkpt>
      <trkpt lat="45.723938941955566" lon="10.394504070281982">
        <ele>380.2337401754515</ele>
        <time>2017-11-21T09:34:08.364000Z</time>
      </trkpt>
      <trkpt lat="45.72357416152954" lon="10.394890308380127">
        <ele>379.721311182545</ele>
        <time>2017-11-21T09:34:09.091000Z</time>
      </trkpt>
      <trkpt lat="45.723252296447754" lon="10.39506196975708">
        <ele>379.27711756410037</ele>
        <time>2017-11-21T09:34:09.642000Z</time>
      </trkpt>
      <trkpt lat="45.72290897369385" lon="10.39506196975708">
        <ele>379.52620768709977</ele>
        <time>2017-11-21T09:34:10.192000Z</time>
      </trkpt>
      <trkpt lat="45.722479820251465" lon="10.394933223724365">
        <ele>382.5109924663991</ele>
        <time>2017-11-21T09:34:10.895000Z</time>
      </trkpt>
      <trkpt lat="45.722243869677186" lon="10.394718647003174">
        <ele>381.2441804183533</ele>
        <time>2017-11-21T09:34:11.343000Z</time>
      </trkpt>
      <trkpt lat="45.722050750628114" lon="10.39454698562622">
        <ele>380.2139971068086</ele>
        <time>2017-11-21T09:34:11.707000Z</time>
      </trkpt>
      <trkpt lat="45.721986293792725" lon="10.394525527954102">
        <ele>379.91405301832225</ele>
        <time>2017-11-21T09:34:11.813000Z</time>
      </trkpt>
      <trkpt lat="45.721986377611756" lon="10.394525527954102">
        <ele>379.913673099679</ele>
        <time>2017-11-21T09:34:11.813000Z</time>
      </trkpt>
      <trkpt lat="45.72166442871094" lon="10.394761562347412">
        <ele>384.27436312786375</ele>
        <time>2017-11-21T09:34:12.393000Z</time>
      </trkpt>
      <trkpt lat="45.72129964828491" lon="10.395255088806152">
        <ele>371.0</ele>
        <time>2017-11-21T09:34:13.197000Z</time>
      </trkpt>
      <trkpt lat="45.720977783203125" lon="10.395426750183105">
        <ele>369.2398878068181</ele>
        <time>2017-11-21T09:34:13.748000Z</time>
      </trkpt>
      <trkpt lat="45.72059154510498" lon="10.39555549621582">
        <ele>374.5409546201097</ele>
        <time>2017-11-21T09:34:14.384000Z</time>
      </trkpt>
      <trkpt lat="45.720248222351074" lon="10.396091938018799">
        <ele>361.60387774615765</ele>
        <time>2017-11-21T09:34:15.199000Z</time>
      </trkpt>
      <trkpt lat="45.72009801864624" lon="10.396199226379395">
        <ele>360.8279516736077</ele>
        <time>2017-11-21T09:34:15.468000Z</time>
      </trkpt>
      <trkpt lat="45.71990489959717" lon="10.396499633789062">
        <ele>368.1766241587723</ele>
        <time>2017-11-21T09:34:15.925000Z</time>
      </trkpt>
      <trkpt lat="45.71977615356445" lon="10.39682149887085">
        <ele>355.97937343060784</ele>
        <time>2017-11-21T09:34:16.340000Z</time>
      </trkpt>
      <trkpt lat="45.71934700012207" lon="10.397229194641113">
        <ele>355.0</ele>
        <time>2017-11-21T09:34:17.166000Z</time>
      </trkpt>
      <trkpt lat="45.718982219696045" lon="10.39783000946045">
        <ele>357.1506912215509</ele>
        <time>2017-11-21T09:34:18.057000Z</time>
      </trkpt>
      <trkpt lat="45.718467235565186" lon="10.398452281951904">
        <ele>355.6666666666667</ele>
        <time>2017-11-21T09:34:19.137000Z</time>
      </trkpt>
      <trkpt lat="45.718209743499756" lon="10.399439334869385">
        <ele>355.9015909923185</ele>
        <time>2017-11-21T09:34:20.316000Z</time>
      </trkpt>
      <trkpt lat="45.7180380821228" lon="10.399696826934814">
        <ele>355.58467037182965</ele>
        <time>2017-11-21T09:34:20.714000Z</time>
      </trkpt>
      <trkpt lat="45.71730852127075" lon="10.399889945983887">
        <ele>356.3054183906242</ele>
        <time>2017-11-21T09:34:21.903000Z</time>
      </trkpt>
      <trkpt lat="45.71681499481201" lon="10.399589538574219">
        <ele>356.7681918108323</ele>
        <time>2017-11-21T09:34:22.763000Z</time>
      </trkpt>
      <trkpt lat="45.71666479110718" lon="10.3995680809021">
        <ele>358.89845842786957</ele>
        <time>2017-11-21T09:34:23.005000Z</time>
      </trkpt>
      <trkpt lat="45.71535587310791" lon="10.400340557098389">
        <ele>336.0</ele>
        <time>2017-11-21T09:34:25.275000Z</time>
      </trkpt>
      <trkpt lat="45.71492671966553" lon="10.40081262588501">
        <ele>341.2780485974943</ele>
        <time>2017-11-21T09:34:26.143000Z</time>
      </trkpt>
      <trkpt lat="45.712051475420594" lon="10.40179967880249">
        <ele>329.0</ele>
        <time>2017-11-21T09:34:30.883000Z</time>
      </trkpt>
      <trkpt lat="45.71104288101196" lon="10.402894020080566">
        <ele>324.0</ele>
        <time>2017-11-21T09:34:32.912000Z</time>
      </trkpt>
      <trkpt lat="45.71035623550415" lon="10.403902530670166">
        <ele>324.0</ele>
        <time>2017-11-21T09:34:34.489000Z</time>
      </trkpt>
      <trkpt lat="45.71016311645508" lon="10.40428876876831">
        <ele>322.99243231125007</ele>
        <time>2017-11-21T09:34:35.021000Z</time>
      </trkpt>
      <trkpt lat="45.71033477783203" lon="10.404396057128906">
        <ele>322.7999491918735</ele>
        <time>2017-11-21T09:34:35.321000Z</time>
      </trkpt>
      <trkpt lat="45.71033477783203" lon="10.404481887817383">
        <ele>322.66836005934715</ele>
        <time>2017-11-21T09:34:35.417000Z</time>
      </trkpt>
      <trkpt lat="45.71035623550415" lon="10.404481887817383">
        <ele>322.6212485969447</ele>
        <time>2017-11-21T09:34:35.451000Z</time>
      </trkpt>
      <trkpt lat="45.71009874343872" lon="10.40480375289917">
        <ele>321.8708416212553</ele>
        <time>2017-11-21T09:34:35.999000Z</time>
      </trkpt>
      <trkpt lat="45.709776962175965" lon="10.40529727935791">
        <ele>319.16897598121295</ele>
        <time>2017-11-21T09:34:36.755000Z</time>
      </trkpt>
      <trkpt lat="45.709261894226074" lon="10.405104160308838">
        <ele>318.0</ele>
        <time>2017-11-21T09:34:37.609000Z</time>
      </trkpt>
      <trkpt lat="45.70894002914429" lon="10.40478229522705">
        <ele>318.8898317122291</ele>
        <time>2017-11-21T09:34:38.238000Z</time>
      </trkpt>
      <trkpt lat="45.70881128311157" lon="10.404589176177979">
        <ele>319.154129381416</ele>
        <time>2017-11-21T09:34:38.537000Z</time>
      </trkpt>
      <trkpt lat="45.70788868702948" lon="10.402421951293945">
        <ele>323.0</ele>
        <time>2017-11-21T09:34:41.378000Z</time>
      </trkpt>
      <trkpt lat="45.707802856341004" lon="10.402250289916992">
        <ele>323.24595763633823</ele>
        <time>2017-11-21T09:34:41.614000Z</time>
      </trkpt>
      <trkpt lat="45.70763119496405" lon="10.401864051818848">
        <ele>324.36687187987366</ele>
        <time>2017-11-21T09:34:42.127000Z</time>
      </trkpt>
      <trkpt lat="45.70694446563721" lon="10.4005765914917">
        <ele>331.0</ele>
        <time>2017-11-21T09:34:43.941000Z</time>
      </trkpt>
      <trkpt lat="45.706322276964784" lon="10.399160385131836">
        <ele>328.3659941931141</ele>
        <time>2017-11-21T09:34:45.814000Z</time>
      </trkpt>
      <trkpt lat="45.7061505317688" lon="10.3985595703125">
        <ele>327.23810701952715</ele>
        <time>2017-11-21T09:34:46.541000Z</time>
      </trkpt>
      <trkpt lat="45.70563554763794" lon="10.39583444595337">
        <ele>319.0</ele>
        <time>2017-11-21T09:34:49.702000Z</time>
      </trkpt>
      <trkpt lat="45.705249309539795" lon="10.39456844329834">
        <ele>334.0</ele>
        <time>2017-11-21T09:34:51.249000Z</time>
      </trkpt>
      <trkpt lat="45.704283714294434" lon="10.389697551727295">
        <ele>322.0</ele>
        <time>2017-11-21T09:34:56.918000Z</time>
      </trkpt>
      <trkpt lat="45.70387601852417" lon="10.3885817527771">
        <ele>311.0</ele>
        <time>2017-11-21T09:34:58.328000Z</time>
      </trkpt>
      <trkpt lat="45.70344694890082" lon="10.387723445892334">
        <ele>312.4883053370809</ele>
        <time>2017-11-21T09:34:59.510000Z</time>
      </trkpt>
      <trkpt lat="45.70306062698364" lon="10.38733720779419">
        <ele>310.16124284668297</ele>
        <time>2017-11-21T09:35:00.265000Z</time>
      </trkpt>
      <trkpt lat="45.703060710802674" lon="10.38733720779419">
        <ele>310.16118466412826</ele>
        <time>2017-11-21T09:35:00.265000Z</time>
      </trkpt>
      <trkpt lat="45.70288896560669" lon="10.387122631072998">
        <ele>309.5763742446366</ele>
        <time>2017-11-21T09:35:00.630000Z</time>
      </trkpt>
      <trkpt lat="45.70279291559808" lon="10.387232343009806">
        <ele>309.261131852972</ele>
        <time>2017-11-21T09:35:00.827000Z</time>
      </trkpt>
      <trkpt lat="45.70279232226312" lon="10.387233020737767">
        <ele>309.2591844906928</ele>
        <time>2017-11-21T09:35:00.827000Z</time>
      </trkpt>
      <trkpt lat="45.70279216179938" lon="10.387233123485357">
        <ele>309.2587334956698</ele>
        <time>2017-11-21T09:35:00.827000Z</time>
      </trkpt>
      <trkpt lat="45.702789975330234" lon="10.38723561912775">
        <ele>309.25155940001946</ele>
        <time>2017-11-21T09:35:00.832000Z</time>
      </trkpt>
      <trkpt lat="45.7027901429683" lon="10.387235535308719">
        <ele>309.25110381947746</ele>
        <time>2017-11-21T09:35:00.832000Z</time>
      </trkpt>
      <trkpt lat="45.702738761901855" lon="10.387294292449951">
        <ele>309.0823920116971</ele>
        <time>2017-11-21T09:35:00.937000Z</time>
      </trkpt>
      <trkpt lat="45.702760219573975" lon="10.387444496154785">
        <ele>308.8076766638547</ele>
        <time>2017-11-21T09:35:01.109000Z</time>
      </trkpt>
      <trkpt lat="45.70280313491821" lon="10.387701988220215">
        <ele>307.0</ele>
        <time>2017-11-21T09:35:01.405000Z</time>
      </trkpt>
      <trkpt lat="45.70286750793457" lon="10.387744903564453">
        <ele>307.1195112057109</ele>
        <time>2017-11-21T09:35:01.519000Z</time>
      </trkpt>
      <trkpt lat="45.703060710802674" lon="10.38733720779419">
        <ele>309.03196474214934</ele>
        <time>2017-11-21T09:35:02.071000Z</time>
      </trkpt>
      <trkpt lat="45.70288904942572" lon="10.387122631072998">
        <ele>309.4154831894313</ele>
        <time>2017-11-21T09:35:02.436000Z</time>
      </trkpt>
      <trkpt lat="45.702717304229736" lon="10.386993885040283">
        <ele>309.74175837889686</ele>
        <time>2017-11-21T09:35:02.747000Z</time>
      </trkpt>
      <trkpt lat="45.70241689682007" lon="10.386993885040283">
        <ele>309.58069635444934</ele>
        <time>2017-11-21T09:35:03.229000Z</time>
      </trkpt>
      <trkpt lat="45.70220232009888" lon="10.386886596679688">
        <ele>309.96322774409776</ele>
        <time>2017-11-21T09:35:03.593000Z</time>
      </trkpt>
      <trkpt lat="45.70218086242676" lon="10.386865139007568">
        <ele>310.0090164439811</ele>
        <time>2017-11-21T09:35:03.635000Z</time>
      </trkpt>
      <trkpt lat="45.70207357406616" lon="10.386435985565186">
        <ele>310.8992829200179</ele>
        <time>2017-11-21T09:35:04.145000Z</time>
      </trkpt>
      <trkpt lat="45.70190199650824" lon="10.385727882385254">
        <ele>313.4817216492181</ele>
        <time>2017-11-21T09:35:04.984000Z</time>
      </trkpt>
      <trkpt lat="45.70160150527954" lon="10.384461879730225">
        <ele>314.387210166134</ele>
        <time>2017-11-21T09:35:06.481000Z</time>
      </trkpt>
      <trkpt lat="45.70164442062378" lon="10.384054183959961">
        <ele>318.20917417624656</ele>
        <time>2017-11-21T09:35:06.943000Z</time>
      </trkpt>
      <trkpt lat="45.701751708984375" lon="10.383882522583008">
        <ele>320.7075767719609</ele>
        <time>2017-11-21T09:35:07.201000Z</time>
      </trkpt>
      <trkpt lat="45.70177166139413" lon="10.383861561749711">
        <ele>320.835511448554</ele>
        <time>2017-11-21T09:35:07.241000Z</time>
      </trkpt>
      <trkpt lat="45.701772415079986" lon="10.38386076997113">
        <ele>320.8403440763854</ele>
        <time>2017-11-21T09:35:07.243000Z</time>
      </trkpt>
      <trkpt lat="45.70177492685616" lon="10.383858131244779">
        <ele>320.8564495658515</ele>
        <time>2017-11-21T09:35:07.248000Z</time>
      </trkpt>
      <trkpt lat="45.70177501067519" lon="10.383858131244779">
        <ele>320.8568828918031</ele>
        <time>2017-11-21T09:35:07.248000Z</time>
      </trkpt>
      <trkpt lat="45.702266693115234" lon="10.38334608078003">
        <ele>324.0</ele>
        <time>2017-11-21T09:35:08.223000Z</time>
      </trkpt>
      <trkpt lat="45.702524185180664" lon="10.38283109664917">
        <ele>326.1119725063339</ele>
        <time>2017-11-21T09:35:08.932000Z</time>
      </trkpt>
      <trkpt lat="45.70284605026245" lon="10.381886959075928">
        <ele>324.297711407686</ele>
        <time>2017-11-21T09:35:10.108000Z</time>
      </trkpt>
      <trkpt lat="45.70303916931152" lon="10.381543636322021">
        <ele>321.51646797675534</ele>
        <time>2017-11-21T09:35:10.602000Z</time>
      </trkpt>
      <trkpt lat="45.703039253130555" lon="10.381543636322021">
        <ele>321.5165275342056</ele>
        <time>2017-11-21T09:35:10.602000Z</time>
      </trkpt>
      <trkpt lat="45.703232288360596" lon="10.381135940551758">
        <ele>321.760950529578</ele>
        <time>2017-11-21T09:35:11.153000Z</time>
      </trkpt>
      <trkpt lat="45.703275203704834" lon="10.380899906158447">
        <ele>321.88198186372927</ele>
        <time>2017-11-21T09:35:11.426000Z</time>
      </trkpt>
      <trkpt lat="45.70318937301636" lon="10.379998683929443">
        <ele>326.0</ele>
        <time>2017-11-21T09:35:12.444000Z</time>
      </trkpt>
      <trkpt lat="45.70318945683539" lon="10.379998683929443">
        <ele>326.00037491838924</ele>
        <time>2017-11-21T09:35:12.444000Z</time>
      </trkpt>
      <trkpt lat="45.702996253967285" lon="10.379011631011963">
        <ele>332.20254603895523</ele>
        <time>2017-11-21T09:35:13.592000Z</time>
      </trkpt>
      <trkpt lat="45.70288896560669" lon="10.378732681274414">
        <ele>332.10767000603903</ele>
        <time>2017-11-21T09:35:13.949000Z</time>
      </trkpt>
      <trkpt lat="45.70117235183716" lon="10.375943183898926">
        <ele>329.0</ele>
        <time>2017-11-21T09:35:18.112000Z</time>
      </trkpt>
      <trkpt lat="45.70104360580444" lon="10.375728607177734">
        <ele>337.9719572291592</ele>
        <time>2017-11-21T09:35:18.429000Z</time>
      </trkpt>
      <trkpt lat="45.7008505705744" lon="10.374891757965088">
        <ele>341.0</ele>
        <time>2017-11-21T09:35:19.416000Z</time>
      </trkpt>
      <trkpt lat="45.70087194442749" lon="10.374376773834229">
        <ele>340.3573328640912</ele>
        <time>2017-11-21T09:35:19.994000Z</time>
      </trkpt>
      <trkpt lat="45.70104360580444" lon="10.373303890228271">
        <ele>336.18473150283427</ele>
        <time>2017-11-21T09:35:21.226000Z</time>
      </trkpt>
      <trkpt lat="45.70106506347656" lon="10.372788906097412">
        <ele>335.0101730820381</ele>
        <time>2017-11-21T09:35:21.804000Z</time>
      </trkpt>
      <trkpt lat="45.700743198394775" lon="10.370965003967285">
        <ele>326.0</ele>
        <time>2017-11-21T09:35:23.910000Z</time>
      </trkpt>
      <trkpt lat="45.700764656066895" lon="10.370793342590332">
        <ele>326.8581081042809</ele>
        <time>2017-11-21T09:35:24.105000Z</time>
      </trkpt>
      <trkpt lat="45.70119380950928" lon="10.369956493377686">
        <ele>340.9512672912424</ele>
        <time>2017-11-21T09:35:25.267000Z</time>
      </trkpt>
      <trkpt lat="45.70136547088623" lon="10.369055271148682">
        <ele>348.0</ele>
        <time>2017-11-21T09:35:26.313000Z</time>
      </trkpt>
      <trkpt lat="45.70134401321411" lon="10.368647575378418">
        <ele>348.07459078042257</ele>
        <time>2017-11-21T09:35:26.771000Z</time>
      </trkpt>
      <trkpt lat="45.701022148132324" lon="10.367703437805176">
        <ele>349.5995941370402</ele>
        <time>2017-11-21T09:35:27.947000Z</time>
      </trkpt>
      <trkpt lat="45.700979232788086" lon="10.367166996002197">
        <ele>345.6531111151662</ele>
        <time>2017-11-21T09:35:28.552000Z</time>
      </trkpt>
      <trkpt lat="45.701022148132324" lon="10.366802215576172">
        <ele>344.77630912039626</ele>
        <time>2017-11-21T09:35:28.966000Z</time>
      </trkpt>
      <trkpt lat="45.701472759246826" lon="10.365192890167236">
        <ele>339.0</ele>
        <time>2017-11-21T09:35:30.907000Z</time>
      </trkpt>
      <trkpt lat="45.70145130157471" lon="10.363733768463135">
        <ele>331.0</ele>
        <time>2017-11-21T09:35:32.541000Z</time>
      </trkpt>
      <trkpt lat="45.70160158909857" lon="10.363283157348633">
        <ele>333.4043653927103</ele>
        <time>2017-11-21T09:35:33.100000Z</time>
      </trkpt>
      <trkpt lat="45.70175179280341" lon="10.36309003829956">
        <ele>335.60317068112937</ele>
        <time>2017-11-21T09:35:33.424000Z</time>
      </trkpt>
      <trkpt lat="45.70205211639404" lon="10.362553596496582">
        <ele>338.4545883784358</ele>
        <time>2017-11-21T09:35:34.194000Z</time>
      </trkpt>
      <trkpt lat="45.70233114995062" lon="10.361502170562744">
        <ele>349.78119681773506</ele>
        <time>2017-11-21T09:35:35.453000Z</time>
      </trkpt>
      <trkpt lat="45.702502727508545" lon="10.360751152038574">
        <ele>364.0</ele>
        <time>2017-11-21T09:35:36.338000Z</time>
      </trkpt>
      <trkpt lat="45.70288896560669" lon="10.359699726104736">
        <ele>367.37337251000093</ele>
        <time>2017-11-21T09:35:37.668000Z</time>
      </trkpt>
      <trkpt lat="45.70254564285278" lon="10.357446670532227">
        <ele>373.0</ele>
        <time>2017-11-21T09:35:40.250000Z</time>
      </trkpt>
      <trkpt lat="45.70291042327881" lon="10.355772972106934">
        <ele>369.91239908789476</ele>
        <time>2017-11-21T09:35:42.213000Z</time>
      </trkpt>
      <trkpt lat="45.70303916931152" lon="10.354335308074951">
        <ele>378.0</ele>
        <time>2017-11-21T09:35:43.836000Z</time>
      </trkpt>
      <trkpt lat="45.703017711639404" lon="10.353970527648926">
        <ele>375.45034855189414</ele>
        <time>2017-11-21T09:35:44.246000Z</time>
      </trkpt>
      <trkpt lat="45.70288896560669" lon="10.353562831878662">
        <ele>373.8609992774121</ele>
        <time>2017-11-21T09:35:44.747000Z</time>
      </trkpt>
      <trkpt lat="45.70233106613159" lon="10.352683067321777">
        <ele>363.3065618815729</ele>
        <time>2017-11-21T09:35:46.077000Z</time>
      </trkpt>
      <trkpt lat="45.70185899734497" lon="10.351781845092773">
        <ele>375.41565760181305</ele>
        <time>2017-11-21T09:35:47.338000Z</time>
      </trkpt>
      <trkpt lat="45.701773166656494" lon="10.351524353027344">
        <ele>383.9891997871612</ele>
        <time>2017-11-21T09:35:47.657000Z</time>
      </trkpt>
      <trkpt lat="45.701236724853516" lon="10.35036563873291">
        <ele>383.65617227092093</ele>
        <time>2017-11-21T09:35:49.213000Z</time>
      </trkpt>
      <trkpt lat="45.70104360580444" lon="10.349829196929932">
        <ele>391.7810567419703</ele>
        <time>2017-11-21T09:35:49.889000Z</time>
      </trkpt>
      <trkpt lat="45.70069393979575" lon="10.348723536894303">
        <ele>378.84961543216633</ele>
        <time>2017-11-21T09:35:51.248000Z</time>
      </trkpt>
      <trkpt lat="45.700693554192" lon="10.34872231762373">
        <ele>378.859629413174</ele>
        <time>2017-11-21T09:35:51.248000Z</time>
      </trkpt>
      <trkpt lat="45.700692906975746" lon="10.348720271140337">
        <ele>378.8764373693268</ele>
        <time>2017-11-21T09:35:51.251000Z</time>
      </trkpt>
      <trkpt lat="45.700692823156714" lon="10.348720019683242">
        <ele>378.8785220049519</ele>
        <time>2017-11-21T09:35:51.251000Z</time>
      </trkpt>
      <trkpt lat="45.700249671936035" lon="10.347318649291992">
        <ele>403.3879060308261</ele>
        <time>2017-11-21T09:35:52.973000Z</time>
      </trkpt>
      <trkpt lat="45.69945573806763" lon="10.345902442932129">
        <ele>387.0</ele>
        <time>2017-11-21T09:35:55.006000Z</time>
      </trkpt>
      <trkpt lat="45.699305618181825" lon="10.345065593719482">
        <ele>393.1394672006705</ele>
        <time>2017-11-21T09:35:55.973000Z</time>
      </trkpt>
      <trkpt lat="45.69917687214911" lon="10.344722270965576">
        <ele>402.7907672781003</ele>
        <time>2017-11-21T09:35:56.409000Z</time>
      </trkpt>
      <trkpt lat="45.69887638092041" lon="10.344228744506836">
        <ele>390.05410389646926</ele>
        <time>2017-11-21T09:35:57.142000Z</time>
      </trkpt>
      <trkpt lat="45.698769092559814" lon="10.343906879425049">
        <ele>392.2170729237899</ele>
        <time>2017-11-21T09:35:57.541000Z</time>
      </trkpt>
      <trkpt lat="45.698747634887695" lon="10.343542098999023">
        <ele>391.70005835639955</ele>
        <time>2017-11-21T09:35:57.951000Z</time>
      </trkpt>
      <trkpt lat="45.69887638092041" lon="10.342855453491211">
        <ele>389.3626127619619</ele>
        <time>2017-11-21T09:35:58.747000Z</time>
      </trkpt>
      <trkpt lat="45.69885492324829" lon="10.342533588409424">
        <ele>391.4543184779145</ele>
        <time>2017-11-21T09:35:59.109000Z</time>
      </trkpt>
      <trkpt lat="45.69870471954346" lon="10.341997146606445">
        <ele>396.5265585682677</ele>
        <time>2017-11-21T09:35:59.756000Z</time>
      </trkpt>
      <trkpt lat="45.69836139678955" lon="10.341246128082275">
        <ele>408.0</ele>
        <time>2017-11-21T09:36:00.761000Z</time>
      </trkpt>
      <trkpt lat="45.69829702377319" lon="10.340945720672607">
        <ele>397.9233216474235</ele>
        <time>2017-11-21T09:36:01.113000Z</time>
      </trkpt>
      <trkpt lat="45.69833993911743" lon="10.340688228607178">
        <ele>410.2445739882667</ele>
        <time>2017-11-21T09:36:01.409000Z</time>
      </trkpt>
      <trkpt lat="45.69857597351074" lon="10.339829921722412">
        <ele>407.7076282518781</ele>
        <time>2017-11-21T09:36:02.442000Z</time>
      </trkpt>
      <trkpt lat="45.69861888885498" lon="10.339336395263672">
        <ele>403.95540904233025</ele>
        <time>2017-11-21T09:36:02.999000Z</time>
      </trkpt>
      <trkpt lat="45.69859743118286" lon="10.339100360870361">
        <ele>397.82626245948563</ele>
        <time>2017-11-21T09:36:03.266000Z</time>
      </trkpt>
      <trkpt lat="45.69812536239624" lon="10.338091850280762">
        <ele>383.0</ele>
        <time>2017-11-21T09:36:04.625000Z</time>
      </trkpt>
      <trkpt lat="45.69758892059326" lon="10.336053371429443">
        <ele>402.4480815296104</ele>
        <time>2017-11-21T09:36:07.064000Z</time>
      </trkpt>
      <trkpt lat="45.695528984069824" lon="10.32987356185913">
        <ele>401.0</ele>
        <time>2017-11-21T09:36:14.731000Z</time>
      </trkpt>
      <trkpt lat="45.695507526397705" lon="10.329530239105225">
        <ele>401.0</ele>
        <time>2017-11-21T09:36:15.117000Z</time>
      </trkpt>
      <trkpt lat="45.69570064544678" lon="10.329036712646484">
        <ele>402.0</ele>
        <time>2017-11-21T09:36:15.750000Z</time>
      </trkpt>
      <trkpt lat="45.695786476135254" lon="10.328328609466553">
        <ele>406.2513599376047</ele>
        <time>2017-11-21T09:36:16.555000Z</time>
      </trkpt>
      <trkpt lat="45.69525011815131" lon="10.325496196746826">
        <ele>416.0</ele>
        <time>2017-11-21T09:36:19.841000Z</time>
      </trkpt>
      <trkpt lat="45.694799507036805" lon="10.322985649108887">
        <ele>414.0</ele>
        <time>2017-11-21T09:36:22.744000Z</time>
      </trkpt>
      <trkpt lat="45.69473513402045" lon="10.322513580322266">
        <ele>414.65348636230055</ele>
        <time>2017-11-21T09:36:23.283000Z</time>
      </trkpt>
      <trkpt lat="45.694638603967796" lon="10.32215999458111">
        <ele>419.83594503413684</ele>
        <time>2017-11-21T09:36:23.708000Z</time>
      </trkpt>
      <trkpt lat="45.69463826367524" lon="10.322158748112264">
        <ele>419.83883388380855</ele>
        <time>2017-11-21T09:36:23.708000Z</time>
      </trkpt>
      <trkpt lat="45.69463714957237" lon="10.32215466722846">
        <ele>419.8482918499756</ele>
        <time>2017-11-21T09:36:23.713000Z</time>
      </trkpt>
      <trkpt lat="45.69463706575334" lon="10.322154415771365">
        <ele>419.8488932873658</ele>
        <time>2017-11-21T09:36:23.713000Z</time>
      </trkpt>
      <trkpt lat="45.69463706575334" lon="10.32215416431427">
        <ele>419.8494360832362</ele>
        <time>2017-11-21T09:36:23.713000Z</time>
      </trkpt>
      <trkpt lat="45.69460638798773" lon="10.322041511535645">
        <ele>420.110436743991</ele>
        <time>2017-11-21T09:36:23.848000Z</time>
      </trkpt>
      <trkpt lat="45.694542014971375" lon="10.321612358093262">
        <ele>422.3912637366968</ele>
        <time>2017-11-21T09:36:24.340000Z</time>
      </trkpt>
      <trkpt lat="45.69439172744751" lon="10.320110321044922">
        <ele>426.0</ele>
        <time>2017-11-21T09:36:26.039000Z</time>
      </trkpt>
      <trkpt lat="45.69441326893866" lon="10.319831371307373">
        <ele>427.28568167107505</ele>
        <time>2017-11-21T09:36:26.353000Z</time>
      </trkpt>
      <trkpt lat="45.69481319813719" lon="10.319159383750387">
        <ele>431.61480121112845</ele>
        <time>2017-11-21T09:36:27.342000Z</time>
      </trkpt>
      <trkpt lat="45.69481380438499" lon="10.319158365080298">
        <ele>431.61912401317846</ele>
        <time>2017-11-21T09:36:27.342000Z</time>
      </trkpt>
      <trkpt lat="45.69481593556702" lon="10.319154784083366">
        <ele>431.6343202384421</ele>
        <time>2017-11-21T09:36:27.347000Z</time>
      </trkpt>
      <trkpt lat="45.69481585174799" lon="10.319154867902398">
        <ele>431.6347930472436</ele>
        <time>2017-11-21T09:36:27.347000Z</time>
      </trkpt>
      <trkpt lat="45.69494962692261" lon="10.31893014907837">
        <ele>432.5885130428678</ele>
        <time>2017-11-21T09:36:27.678000Z</time>
      </trkpt>
      <trkpt lat="45.69512128829956" lon="10.318608283996582">
        <ele>435.89658298108253</ele>
        <time>2017-11-21T09:36:28.131000Z</time>
      </trkpt>
      <trkpt lat="45.69537878036499" lon="10.318372249603271">
        <ele>436.69776404667704</ele>
        <time>2017-11-21T09:36:28.621000Z</time>
      </trkpt>
      <trkpt lat="45.696022510528564" lon="10.318114757537842">
        <ele>439.115854005455</ele>
        <time>2017-11-21T09:36:29.693000Z</time>
      </trkpt>
      <trkpt lat="45.69640874862671" lon="10.317385196685791">
        <ele>440.29615701464064</ele>
        <time>2017-11-21T09:36:30.718000Z</time>
      </trkpt>
      <trkpt lat="45.69746017456055" lon="10.316312313079834">
        <ele>444.0</ele>
        <time>2017-11-21T09:36:32.788000Z</time>
      </trkpt>
      <trkpt lat="45.697524547576904" lon="10.316312313079834">
        <ele>448.09310955067195</ele>
        <time>2017-11-21T09:36:32.891000Z</time>
      </trkpt>
      <trkpt lat="45.69756746292114" lon="10.316376686096191">
        <ele>448.504857943165</ele>
        <time>2017-11-21T09:36:32.991000Z</time>
      </trkpt>
      <trkpt lat="45.69756746292114" lon="10.316483974456787">
        <ele>449.00126991962594</ele>
        <time>2017-11-21T09:36:33.111000Z</time>
      </trkpt>
      <trkpt lat="45.69694519042969" lon="10.317342281341553">
        <ele>452.3919861870971</ele>
        <time>2017-11-21T09:36:34.496000Z</time>
      </trkpt>
      <trkpt lat="45.69690227508545" lon="10.317471027374268">
        <ele>453.0520498353132</ele>
        <time>2017-11-21T09:36:34.656000Z</time>
      </trkpt>
      <trkpt lat="45.69692373275757" lon="10.317578315734863">
        <ele>458.90175185998766</ele>
        <time>2017-11-21T09:36:34.781000Z</time>
      </trkpt>
      <trkpt lat="45.69698818959296" lon="10.317621231079102">
        <ele>458.86320739943955</ele>
        <time>2017-11-21T09:36:34.895000Z</time>
      </trkpt>
      <trkpt lat="45.69821119308472" lon="10.316162109375">
        <ele>455.0</ele>
        <time>2017-11-21T09:36:37.447000Z</time>
      </trkpt>
      <trkpt lat="45.69855451583862" lon="10.315389633178711">
        <ele>473.88859137975305</ele>
        <time>2017-11-21T09:36:38.472000Z</time>
      </trkpt>
      <trkpt lat="45.69866180419922" lon="10.315325260162354">
        <ele>474.9621798505471</ele>
        <time>2017-11-21T09:36:38.658000Z</time>
      </trkpt>
      <trkpt lat="45.698747634887695" lon="10.315518379211426">
        <ele>476.4376518060547</ele>
        <time>2017-11-21T09:36:38.914000Z</time>
      </trkpt>
      <trkpt lat="45.698490142822266" lon="10.316505432128906">
        <ele>482.0900800026499</ele>
        <time>2017-11-21T09:36:40.094000Z</time>
      </trkpt>
      <trkpt lat="45.69833993911743" lon="10.316784381866455">
        <ele>486.3100919728584</ele>
        <time>2017-11-21T09:36:40.488000Z</time>
      </trkpt>
      <trkpt lat="45.69771766662598" lon="10.317578315734863">
        <ele>486.6475704010886</ele>
        <time>2017-11-21T09:36:41.824000Z</time>
      </trkpt>
      <trkpt lat="45.69761037826538" lon="10.317857265472412">
        <ele>486.3893465555763</ele>
        <time>2017-11-21T09:36:42.181000Z</time>
      </trkpt>
      <trkpt lat="45.69759724677628" lon="10.31792269521546">
        <ele>486.3945565492745</ele>
        <time>2017-11-21T09:36:42.257000Z</time>
      </trkpt>
      <trkpt lat="45.69759698861491" lon="10.317923981543627">
        <ele>486.3946589761252</ele>
        <time>2017-11-21T09:36:42.257000Z</time>
      </trkpt>
      <trkpt lat="45.697595877572894" lon="10.31792951747775">
        <ele>486.395099787678</ele>
        <time>2017-11-21T09:36:42.263000Z</time>
      </trkpt>
      <trkpt lat="45.697595877572894" lon="10.317929433658719">
        <ele>486.3951062023877</ele>
        <time>2017-11-21T09:36:42.263000Z</time>
      </trkpt>
      <trkpt lat="45.697595877573896" lon="10.31792951747775">
        <ele>486.39511261709737</ele>
        <time>2017-11-21T09:36:42.263000Z</time>
      </trkpt>
      <trkpt lat="45.697524547576904" lon="10.318286418914795">
        <ele>486.423522727064</ele>
        <time>2017-11-21T09:36:42.679000Z</time>
      </trkpt>
      <trkpt lat="45.69664478302002" lon="10.319380760192871">
        <ele>481.88457645176004</ele>
        <time>2017-11-21T09:36:44.547000Z</time>
      </trkpt>
      <trkpt lat="45.69660186767578" lon="10.319595336914062">
        <ele>482.3296735630426</ele>
        <time>2017-11-21T09:36:44.797000Z</time>
      </trkpt>
      <trkpt lat="45.6966233253479" lon="10.319788455963135">
        <ele>482.71962603064395</ele>
        <time>2017-11-21T09:36:45.016000Z</time>
      </trkpt>
      <trkpt lat="45.69694519042969" lon="10.320453643798828">
        <ele>501.2949084971439</ele>
        <time>2017-11-21T09:36:45.922000Z</time>
      </trkpt>
      <trkpt lat="45.69696664810181" lon="10.320689678192139">
        <ele>502.9504110371672</ele>
        <time>2017-11-21T09:36:46.189000Z</time>
      </trkpt>
      <trkpt lat="45.69685935974121" lon="10.321033000946045">
        <ele>506.2330524466204</ele>
        <time>2017-11-21T09:36:46.610000Z</time>
      </trkpt>
      <trkpt lat="45.69683790206909" lon="10.321333408355713">
        <ele>508.3333333333333</ele>
        <time>2017-11-21T09:36:46.948000Z</time>
      </trkpt>
      <trkpt lat="45.69689243235276" lon="10.32159044461457">
        <ele>508.2371678155027</ele>
        <time>2017-11-21T09:36:47.249000Z</time>
      </trkpt>
      <trkpt lat="45.69689270402889" lon="10.321591725206847">
        <ele>508.2366887050717</ele>
        <time>2017-11-21T09:36:47.249000Z</time>
      </trkpt>
      <trkpt lat="45.696893809363246" lon="10.321596935391426">
        <ele>508.2347394088303</ele>
        <time>2017-11-21T09:36:47.255000Z</time>
      </trkpt>
      <trkpt lat="45.696893809363246" lon="10.321597019210458">
        <ele>508.23470940306544</ele>
        <time>2017-11-21T09:36:47.255000Z</time>
      </trkpt>
      <trkpt lat="45.696988105773926" lon="10.322041511535645">
        <ele>508.7350778821178</ele>
        <time>2017-11-21T09:36:47.775000Z</time>
      </trkpt>
      <trkpt lat="45.697009563446045" lon="10.322835445404053">
        <ele>507.1173178286524</ele>
        <time>2017-11-21T09:36:48.665000Z</time>
      </trkpt>
      <trkpt lat="45.69715976715088" lon="10.322813987731934">
        <ele>507.03995078076105</ele>
        <time>2017-11-21T09:36:48.907000Z</time>
      </trkpt>
      <trkpt lat="45.697181224823" lon="10.322706699371338">
        <ele>507.0407240647434</ele>
        <time>2017-11-21T09:36:49.032000Z</time>
      </trkpt>
      <trkpt lat="45.69713830947876" lon="10.321183204650879">
        <ele>508.8318255369941</ele>
        <time>2017-11-21T09:36:50.739000Z</time>
      </trkpt>
      <trkpt lat="45.697181224823" lon="10.32092571258545">
        <ele>509.0270478661593</ele>
        <time>2017-11-21T09:36:51.035000Z</time>
      </trkpt>
      <trkpt lat="45.697267055511475" lon="10.320861339569092">
        <ele>509.12565983424355</ele>
        <time>2017-11-21T09:36:51.190000Z</time>
      </trkpt>
      <trkpt lat="45.69735288619995" lon="10.320861339569092">
        <ele>509.21301243638555</ele>
        <time>2017-11-21T09:36:51.328000Z</time>
      </trkpt>
      <trkpt lat="45.69739580154419" lon="10.320968627929688">
        <ele>509.3008977221878</ele>
        <time>2017-11-21T09:36:51.466000Z</time>
      </trkpt>
      <trkpt lat="45.697267055511475" lon="10.321483612060547">
        <ele>509.68970941823085</ele>
        <time>2017-11-21T09:36:52.078000Z</time>
      </trkpt>
      <trkpt lat="45.69733142852783" lon="10.322299003601074">
        <ele>510.93967469424564</ele>
        <time>2017-11-21T09:36:52.997000Z</time>
      </trkpt>
      <trkpt lat="45.69735288619995" lon="10.322470664978027">
        <ele>511.6071767393457</ele>
        <time>2017-11-21T09:36:53.192000Z</time>
      </trkpt>
      <trkpt lat="45.69743871688843" lon="10.322535037994385">
        <ele>511.1780701001073</ele>
        <time>2017-11-21T09:36:53.347000Z</time>
      </trkpt>
      <trkpt lat="45.697524547576904" lon="10.322492122650146">
        <ele>518.0264920465139</ele>
        <time>2017-11-21T09:36:53.493000Z</time>
      </trkpt>
      <trkpt lat="45.69754600524902" lon="10.32238483428955">
        <ele>518.7539024925163</ele>
        <time>2017-11-21T09:36:53.618000Z</time>
      </trkpt>
      <trkpt lat="45.69750090828937" lon="10.322087030304836">
        <ele>520.7400878856483</ele>
        <time>2017-11-21T09:36:53.959000Z</time>
      </trkpt>
      <trkpt lat="45.6975007102162" lon="10.322085722313682">
        <ele>520.7488114560689</ele>
        <time>2017-11-21T09:36:53.961000Z</time>
      </trkpt>
      <trkpt lat="45.69749990478158" lon="10.32208040356636">
        <ele>516.1176178640457</ele>
        <time>2017-11-21T09:36:53.967000Z</time>
      </trkpt>
      <trkpt lat="45.69749982096255" lon="10.322080152109265">
        <ele>516.1194339495721</ele>
        <time>2017-11-21T09:36:53.967000Z</time>
      </trkpt>
      <trkpt lat="45.69743871688843" lon="10.32167673110962">
        <ele>518.8100548020628</ele>
        <time>2017-11-21T09:36:54.429000Z</time>
      </trkpt>
      <trkpt lat="45.697503089904785" lon="10.32139778137207">
        <ele>527.0582555174389</ele>
        <time>2017-11-21T09:36:54.758000Z</time>
      </trkpt>
      <trkpt lat="45.69788932800293" lon="10.320990085601807">
        <ele>531.5363596281419</ele>
        <time>2017-11-21T09:36:55.527000Z</time>
      </trkpt>
      <trkpt lat="45.697975158691406" lon="10.320796966552734">
        <ele>534.4645666177024</ele>
        <time>2017-11-21T09:36:55.783000Z</time>
      </trkpt>
      <trkpt lat="45.69795370101929" lon="10.320603847503662">
        <ele>534.3610026131408</ele>
        <time>2017-11-21T09:36:56.002000Z</time>
      </trkpt>
      <trkpt lat="45.697782039642334" lon="10.319960117340088">
        <ele>530.3294047761561</ele>
        <time>2017-11-21T09:36:56.774000Z</time>
      </trkpt>
      <trkpt lat="45.69788932800293" lon="10.319766998291016">
        <ele>530.1987170555924</ele>
        <time>2017-11-21T09:36:57.050000Z</time>
      </trkpt>
      <trkpt lat="45.697975158691406" lon="10.319852828979492">
        <ele>530.1193308599269</ele>
        <time>2017-11-21T09:36:57.218000Z</time>
      </trkpt>
      <trkpt lat="45.698232650756836" lon="10.320582389831543">
        <ele>535.7143917945682</ele>
        <time>2017-11-21T09:36:58.133000Z</time>
      </trkpt>
      <trkpt lat="45.69859743118286" lon="10.321204662322998">
        <ele>538.9642783639528</ele>
        <time>2017-11-21T09:36:59.043000Z</time>
      </trkpt>
      <trkpt lat="45.69891929626465" lon="10.321934223175049">
        <ele>541.0</ele>
        <time>2017-11-21T09:37:00.009000Z</time>
      </trkpt>
      <trkpt lat="45.699026584625244" lon="10.322020053863525">
        <ele>542.3225759090741</ele>
        <time>2017-11-21T09:37:00.206000Z</time>
      </trkpt>
      <trkpt lat="45.69913387298584" lon="10.32189130783081">
        <ele>543.8290321731703</ele>
        <time>2017-11-21T09:37:00.430000Z</time>
      </trkpt>
      <trkpt lat="45.69911241531372" lon="10.321526527404785">
        <ele>546.5804482116488</ele>
        <time>2017-11-21T09:37:00.840000Z</time>
      </trkpt>
      <trkpt lat="45.69915533065796" lon="10.321311950683594">
        <ele>548.2580386909353</ele>
        <time>2017-11-21T09:37:01.090000Z</time>
      </trkpt>
      <trkpt lat="45.699477195739746" lon="10.321011543273926">
        <ele>558.7260246171307</ele>
        <time>2017-11-21T09:37:01.706000Z</time>
      </trkpt>
      <trkpt lat="45.699514769471016" lon="10.320943879703318">
        <ele>559.014555033064</ele>
        <time>2017-11-21T09:37:01.803000Z</time>
      </trkpt>
      <trkpt lat="45.699515351229174" lon="10.320942832059647">
        <ele>559.0190223840792</ele>
        <time>2017-11-21T09:37:01.805000Z</time>
      </trkpt>
      <trkpt lat="45.69951801560819" lon="10.320938033983111">
        <ele>559.03948228948</ele>
        <time>2017-11-21T09:37:01.812000Z</time>
      </trkpt>
      <trkpt lat="45.69951809942722" lon="10.32093795016408">
        <ele>559.0399708880985</ele>
        <time>2017-11-21T09:37:01.812000Z</time>
      </trkpt>
      <trkpt lat="45.69958448410034" lon="10.320818424224854">
        <ele>561.5496866417362</ele>
        <time>2017-11-21T09:37:01.983000Z</time>
      </trkpt>
      <trkpt lat="45.69962739944458" lon="10.320217609405518">
        <ele>563.5655224680817</ele>
        <time>2017-11-21T09:37:02.659000Z</time>
      </trkpt>
      <trkpt lat="45.69971323013306" lon="10.32017469406128">
        <ele>564.0</ele>
        <time>2017-11-21T09:37:02.805000Z</time>
      </trkpt>
      <trkpt lat="45.69979906082153" lon="10.32038927078247">
        <ele>564.2942289095373</ele>
        <time>2017-11-21T09:37:03.082000Z</time>
      </trkpt>
      <trkpt lat="45.69971323013306" lon="10.321075916290283">
        <ele>563.1242357552732</ele>
        <time>2017-11-21T09:37:03.863000Z</time>
      </trkpt>
      <trkpt lat="45.699734687805176" lon="10.321269035339355">
        <ele>563.7861188547681</ele>
        <time>2017-11-21T09:37:04.082000Z</time>
      </trkpt>
      <trkpt lat="45.69982051849365" lon="10.32139778137207">
        <ele>564.3885516857241</ele>
        <time>2017-11-21T09:37:04.281000Z</time>
      </trkpt>
      <trkpt lat="45.69994926452637" lon="10.32141923904419">
        <ele>565.0167101938133</ele>
        <time>2017-11-21T09:37:04.489000Z</time>
      </trkpt>
      <trkpt lat="45.70007801055908" lon="10.32141923904419">
        <ele>568.3073224913367</ele>
        <time>2017-11-21T09:37:04.695000Z</time>
      </trkpt>
      <trkpt lat="45.70037841796875" lon="10.321226119995117">
        <ele>569.9032030811046</ele>
        <time>2017-11-21T09:37:05.223000Z</time>
      </trkpt>
      <trkpt lat="45.7005500793457" lon="10.320990085601807">
        <ele>570.8497026394103</ele>
        <time>2017-11-21T09:37:05.605000Z</time>
      </trkpt>
      <trkpt lat="45.70070028305054" lon="10.320882797241211">
        <ele>571.5172572370465</ele>
        <time>2017-11-21T09:37:05.874000Z</time>
      </trkpt>
      <trkpt lat="45.70093631744385" lon="10.320839881896973">
        <ele>575.4634889564767</ele>
        <time>2017-11-21T09:37:06.255000Z</time>
      </trkpt>
      <trkpt lat="45.70160150527954" lon="10.321011543273926">
        <ele>579.8845953204512</ele>
        <time>2017-11-21T09:37:07.339000Z</time>
      </trkpt>
      <trkpt lat="45.702009201049805" lon="10.320839881896973">
        <ele>585.8504321702408</ele>
        <time>2017-11-21T09:37:08.020000Z</time>
      </trkpt>
      <trkpt lat="45.702245235443115" lon="10.320818424224854">
        <ele>597.947498409364</ele>
        <time>2017-11-21T09:37:08.399000Z</time>
      </trkpt>
      <trkpt lat="45.70265293121338" lon="10.320990085601807">
        <ele>593.5799973752261</ele>
        <time>2017-11-21T09:37:09.080000Z</time>
      </trkpt>
      <trkpt lat="45.702738761901855" lon="10.32092571258545">
        <ele>594.7122268459739</ele>
        <time>2017-11-21T09:37:09.235000Z</time>
      </trkpt>
      <trkpt lat="45.702738761901855" lon="10.320818424224854">
        <ele>603.9211330576154</ele>
        <time>2017-11-21T09:37:09.355000Z</time>
      </trkpt>
      <trkpt lat="45.70269584655762" lon="10.320689678192139">
        <ele>604.40737231028</ele>
        <time>2017-11-21T09:37:09.515000Z</time>
      </trkpt>
      <trkpt lat="45.70254564285278" lon="10.3206467628479">
        <ele>605.1548816212395</ele>
        <time>2017-11-21T09:37:09.761000Z</time>
      </trkpt>
      <trkpt lat="45.70194491185248" lon="10.320603847503662">
        <ele>605.9721133869441</ele>
        <time>2017-11-21T09:37:10.725000Z</time>
      </trkpt>
      <trkpt lat="45.7012152671814" lon="10.320217609405518">
        <ele>605.7357325991603</ele>
        <time>2017-11-21T09:37:11.972000Z</time>
      </trkpt>
      <trkpt lat="45.70085048675537" lon="10.320131778717041">
        <ele>604.2851670207791</ele>
        <time>2017-11-21T09:37:12.565000Z</time>
      </trkpt>
      <trkpt lat="45.70084473873387" lon="10.320124507714693">
        <ele>604.2550711054355</ele>
        <time>2017-11-21T09:37:12.577000Z</time>
      </trkpt>
      <trkpt lat="45.70084403817761" lon="10.320123621541017">
        <ele>604.2514030814899</ele>
        <time>2017-11-21T09:37:12.578000Z</time>
      </trkpt>
      <trkpt lat="45.70084067992866" lon="10.320119373500347">
        <ele>604.2338197153289</ele>
        <time>2017-11-21T09:37:12.585000Z</time>
      </trkpt>
      <trkpt lat="45.70084059610963" lon="10.320119289681315">
        <ele>604.2334185438103</ele>
        <time>2017-11-21T09:37:12.585000Z</time>
      </trkpt>
      <trkpt lat="45.70067882537842" lon="10.31991720199585">
        <ele>600.3910085539583</ele>
        <time>2017-11-21T09:37:12.929000Z</time>
      </trkpt>
      <trkpt lat="45.70061445236206" lon="10.3196382522583">
        <ele>599.5858985221931</ele>
        <time>2017-11-21T09:37:13.258000Z</time>
      </trkpt>
      <trkpt lat="45.70061445236206" lon="10.319359302520752">
        <ele>599.2629406158334</ele>
        <time>2017-11-21T09:37:13.570000Z</time>
      </trkpt>
      <trkpt lat="45.70067882537842" lon="10.319058895111084">
        <ele>598.3428997078438</ele>
        <time>2017-11-21T09:37:13.922000Z</time>
      </trkpt>
      <trkpt lat="45.7012152671814" lon="10.318264961242676">
        <ele>603.6239939194796</ele>
        <time>2017-11-21T09:37:15.159000Z</time>
      </trkpt>
      <trkpt lat="45.70160150527954" lon="10.31742811203003">
        <ele>598.212563865125</ele>
        <time>2017-11-21T09:37:16.282000Z</time>
      </trkpt>
      <trkpt lat="45.70183753967285" lon="10.317084789276123">
        <ele>605.0926223503222</ele>
        <time>2017-11-21T09:37:16.821000Z</time>
      </trkpt>
      <trkpt lat="45.702009201049805" lon="10.317084789276123">
        <ele>606.8900700966757</ele>
        <time>2017-11-21T09:37:17.096000Z</time>
      </trkpt>
      <trkpt lat="45.70230960845947" lon="10.31742811203003">
        <ele>610.9147016741534</ele>
        <time>2017-11-21T09:37:17.712000Z</time>
      </trkpt>
      <trkpt lat="45.70243835449219" lon="10.317492485046387">
        <ele>612.9064042496278</ele>
        <time>2017-11-21T09:37:17.931000Z</time>
      </trkpt>
      <trkpt lat="45.70261001586914" lon="10.317385196685791">
        <ele>627.6419763511002</ele>
        <time>2017-11-21T09:37:18.231000Z</time>
      </trkpt>
      <trkpt lat="45.70269584655762" lon="10.317106246948242">
        <ele>630.7511688925105</ele>
        <time>2017-11-21T09:37:18.572000Z</time>
      </trkpt>
      <trkpt lat="45.702738761901855" lon="10.31667709350586">
        <ele>635.1731705087303</ele>
        <time>2017-11-21T09:37:19.057000Z</time>
      </trkpt>
      <trkpt lat="45.70310354232788" lon="10.31641960144043">
        <ele>640.7797194776317</ele>
        <time>2017-11-21T09:37:19.709000Z</time>
      </trkpt>
      <trkpt lat="45.70316791534424" lon="10.316269397735596">
        <ele>640.9031823017873</ele>
        <time>2017-11-21T09:37:19.906000Z</time>
      </trkpt>
      <trkpt lat="45.70314645767212" lon="10.315840244293213">
        <ele>641.2046046513551</ele>
        <time>2017-11-21T09:37:20.388000Z</time>
      </trkpt>
      <trkpt lat="45.70288896560669" lon="10.315003395080566">
        <ele>639.8613961486466</ele>
        <time>2017-11-21T09:37:21.412000Z</time>
      </trkpt>
      <trkpt lat="45.70291042327881" lon="10.314724445343018">
        <ele>633.2445965797284</ele>
        <time>2017-11-21T09:37:21.726000Z</time>
      </trkpt>
      <trkpt lat="45.703017711639404" lon="10.314552783966064">
        <ele>634.53274887351</ele>
        <time>2017-11-21T09:37:21.984000Z</time>
      </trkpt>
      <trkpt lat="45.70316791534424" lon="10.31442403793335">
        <ele>635.9344091305669</ele>
        <time>2017-11-21T09:37:22.265000Z</time>
      </trkpt>
      <trkpt lat="45.70389747619629" lon="10.314059257507324">
        <ele>649.7884161432368</ele>
        <time>2017-11-21T09:37:23.504000Z</time>
      </trkpt>
      <trkpt lat="45.70389756001532" lon="10.314059257507324">
        <ele>649.7890283945055</ele>
        <time>2017-11-21T09:37:23.504000Z</time>
      </trkpt>
      <trkpt lat="45.70406913757324" lon="10.31393051147461">
        <ele>651.2039607050552</ele>
        <time>2017-11-21T09:37:23.815000Z</time>
      </trkpt>
      <trkpt lat="45.704219341278076" lon="10.313522815704346">
        <ele>667.3110055237563</ele>
        <time>2017-11-21T09:37:24.331000Z</time>
      </trkpt>
      <trkpt lat="45.704262256622314" lon="10.313308238983154">
        <ele>671.0084691231856</ele>
        <time>2017-11-21T09:37:24.581000Z</time>
      </trkpt>
      <trkpt lat="45.70419788360596" lon="10.313115119934082">
        <ele>671.6771445678324</ele>
        <time>2017-11-21T09:37:24.821000Z</time>
      </trkpt>
      <trkpt lat="45.70396193303168" lon="10.312750339508057">
        <ele>661.2308249474281</ele>
        <time>2017-11-21T09:37:25.378000Z</time>
      </trkpt>
      <trkpt lat="45.7035756111145" lon="10.312192440032959">
        <ele>668.6858608303625</ele>
        <time>2017-11-21T09:37:26.258000Z</time>
      </trkpt>
      <trkpt lat="45.7035094188891" lon="10.31192227764923">
        <ele>665.1263225155946</ele>
        <time>2017-11-21T09:37:26.579000Z</time>
      </trkpt>
      <trkpt lat="45.703509109428914" lon="10.311921014600586">
        <ele>665.1096811425265</ele>
        <time>2017-11-21T09:37:26.581000Z</time>
      </trkpt>
      <trkpt lat="45.70350771769881" lon="10.311915334314108">
        <ele>665.0348401846876</ele>
        <time>2017-11-21T09:37:26.588000Z</time>
      </trkpt>
      <trkpt lat="45.70350771769881" lon="10.311915082857013">
        <ele>665.0317139099101</ele>
        <time>2017-11-21T09:37:26.588000Z</time>
      </trkpt>
      <trkpt lat="45.70331811904907" lon="10.311141014099121">
        <ele>640.1665618573167</ele>
        <time>2017-11-21T09:37:27.506000Z</time>
      </trkpt>
      <trkpt lat="45.70331811904907" lon="10.310947895050049">
        <ele>638.9517955937854</ele>
        <time>2017-11-21T09:37:27.722000Z</time>
      </trkpt>
      <trkpt lat="45.70385456085205" lon="10.310347080230713">
        <ele>658.6722475240394</ele>
        <time>2017-11-21T09:37:28.814000Z</time>
      </trkpt>
      <trkpt lat="45.70394039154053" lon="10.310218334197998">
        <ele>660.2638730873108</ele>
        <time>2017-11-21T09:37:29.013000Z</time>
      </trkpt>
      <trkpt lat="45.70396184921265" lon="10.309832096099854">
        <ele>660.3952732222023</ele>
        <time>2017-11-21T09:37:29.447000Z</time>
      </trkpt>
      <trkpt lat="45.70411205291748" lon="10.309531688690186">
        <ele>663.6990931654722</ele>
        <time>2017-11-21T09:37:29.861000Z</time>
      </trkpt>
      <trkpt lat="45.70445537567139" lon="10.308351516723633">
        <ele>682.9840440715061</ele>
        <time>2017-11-21T09:37:31.292000Z</time>
      </trkpt>
      <trkpt lat="45.704498291015625" lon="10.307815074920654">
        <ele>680.120891298388</ele>
        <time>2017-11-21T09:37:31.897000Z</time>
      </trkpt>
      <trkpt lat="45.70482015609741" lon="10.307278633117676">
        <ele>677.5674166830686</ele>
        <time>2017-11-21T09:37:32.689000Z</time>
      </trkpt>
      <trkpt lat="45.70482015609741" lon="10.307149887084961">
        <ele>677.2239424291146</ele>
        <time>2017-11-21T09:37:32.833000Z</time>
      </trkpt>
      <trkpt lat="45.704734325408936" lon="10.307064056396484">
        <ele>676.8240119444855</ele>
        <time>2017-11-21T09:37:33.001000Z</time>
      </trkpt>
      <trkpt lat="45.704519748687744" lon="10.306956768035889">
        <ele>675.9557539253987</ele>
        <time>2017-11-21T09:37:33.365000Z</time>
      </trkpt>
      <trkpt lat="45.70439100265503" lon="10.306763648986816">
        <ele>675.2434712520579</ele>
        <time>2017-11-21T09:37:33.664000Z</time>
      </trkpt>
      <trkpt lat="45.70430517196655" lon="10.306377410888672">
        <ele>673.1184004768814</ele>
        <time>2017-11-21T09:37:34.118000Z</time>
      </trkpt>
      <trkpt lat="45.704262256622314" lon="10.305948257446289">
        <ele>674.4093513739082</ele>
        <time>2017-11-21T09:37:34.603000Z</time>
      </trkpt>
      <trkpt lat="45.70432662963867" lon="10.305647850036621">
        <ele>673.0117222664147</ele>
        <time>2017-11-21T09:37:34.955000Z</time>
      </trkpt>
      <trkpt lat="45.70443391799927" lon="10.305476188659668">
        <ele>673.6977015053217</ele>
        <time>2017-11-21T09:37:35.213000Z</time>
      </trkpt>
      <trkpt lat="45.7053352240473" lon="10.305261611938477">
        <ele>684.5935527052205</ele>
        <time>2017-11-21T09:37:36.678000Z</time>
      </trkpt>
      <trkpt lat="45.70544242858887" lon="10.305240154266357">
        <ele>685.0069308248725</ele>
        <time>2017-11-21T09:37:36.852000Z</time>
      </trkpt>
      <trkpt lat="45.70554971694946" lon="10.305089950561523">
        <ele>685.5799310724893</ele>
        <time>2017-11-21T09:37:37.093000Z</time>
      </trkpt>
      <trkpt lat="45.7055926322937" lon="10.30491828918457">
        <ele>687.0661815790318</ele>
        <time>2017-11-21T09:37:37.297000Z</time>
      </trkpt>
      <trkpt lat="45.70554971694946" lon="10.304725170135498">
        <ele>687.6066531363991</ele>
        <time>2017-11-21T09:37:37.524000Z</time>
      </trkpt>
      <trkpt lat="45.70529222488403" lon="10.304403305053711">
        <ele>688.2975110691417</ele>
        <time>2017-11-21T09:37:38.072000Z</time>
      </trkpt>
      <trkpt lat="45.705227851867676" lon="10.304231643676758">
        <ele>688.5366546279871</ele>
        <time>2017-11-21T09:37:38.290000Z</time>
      </trkpt>
      <trkpt lat="45.70533514022827" lon="10.303995609283447">
        <ele>684.2156455308577</ele>
        <time>2017-11-21T09:37:38.605000Z</time>
      </trkpt>
      <trkpt lat="45.706000328063965" lon="10.303373336791992">
        <ele>691.2787463264116</ele>
        <time>2017-11-21T09:37:39.879000Z</time>
      </trkpt>
      <trkpt lat="45.70645093917847" lon="10.303030014038086">
        <ele>686.1506309952938</ele>
        <time>2017-11-21T09:37:40.697000Z</time>
      </trkpt>
      <trkpt lat="45.706751346588135" lon="10.302879810333252">
        <ele>693.6941555547438</ele>
        <time>2017-11-21T09:37:41.207000Z</time>
      </trkpt>
      <trkpt lat="45.70711612701416" lon="10.302858352661133">
        <ele>694.2415354083065</ele>
        <time>2017-11-21T09:37:41.792000Z</time>
      </trkpt>
      <trkpt lat="45.707223415374756" lon="10.302772521972656">
        <ele>694.2392652945165</ele>
        <time>2017-11-21T09:37:41.989000Z</time>
      </trkpt>
      <trkpt lat="45.70733070373535" lon="10.302493572235107">
        <ele>692.9018240205946</ele>
        <time>2017-11-21T09:37:42.346000Z</time>
      </trkpt>
      <trkpt lat="45.70733078755438" lon="10.301849842071533">
        <ele>692.8935203132946</ele>
        <time>2017-11-21T09:37:43.067000Z</time>
      </trkpt>
      <trkpt lat="45.70737361907959" lon="10.300884246826172">
        <ele>693.2143726421345</ele>
        <time>2017-11-21T09:37:44.150000Z</time>
      </trkpt>
      <trkpt lat="45.70737361907959" lon="10.300626754760742">
        <ele>696.0153728413405</ele>
        <time>2017-11-21T09:37:44.438000Z</time>
      </trkpt>
      <trkpt lat="45.70733070373535" lon="10.300369262695312">
        <ele>696.2734730574185</ele>
        <time>2017-11-21T09:37:44.734000Z</time>
      </trkpt>
      <trkpt lat="45.7071590423584" lon="10.300068855285645">
        <ele>696.6519256602918</ele>
        <time>2017-11-21T09:37:45.169000Z</time>
      </trkpt>
      <trkpt lat="45.70642948150635" lon="10.299897193908691">
        <ele>698.0175078955905</ele>
        <time>2017-11-21T09:37:46.354000Z</time>
      </trkpt>
      <trkpt lat="45.706214904785156" lon="10.299768447875977">
        <ele>697.5833515967688</ele>
        <time>2017-11-21T09:37:46.727000Z</time>
      </trkpt>
      <trkpt lat="45.70608615875244" lon="10.29942512512207">
        <ele>697.0755108158669</ele>
        <time>2017-11-21T09:37:47.163000Z</time>
      </trkpt>
      <trkpt lat="45.70608615875244" lon="10.29916763305664">
        <ele>696.7399503228899</ele>
        <time>2017-11-21T09:37:47.451000Z</time>
      </trkpt>
      <trkpt lat="45.70617207325995" lon="10.298888683319092">
        <ele>694.6759752308959</ele>
        <time>2017-11-21T09:37:47.792000Z</time>
      </trkpt>
      <trkpt lat="45.70632219314575" lon="10.29841661453247">
        <ele>694.0</ele>
        <time>2017-11-21T09:37:48.373000Z</time>
      </trkpt>
      <trkpt lat="45.70640802383423" lon="10.298309326171875">
        <ele>689.6188891952389</ele>
        <time>2017-11-21T09:37:48.556000Z</time>
      </trkpt>
      <trkpt lat="45.706987380981445" lon="10.298008918762207">
        <ele>696.0271641387277</ele>
        <time>2017-11-21T09:37:49.544000Z</time>
      </trkpt>
      <trkpt lat="45.70739507675171" lon="10.297300815582275">
        <ele>689.0917328811292</ele>
        <time>2017-11-21T09:37:50.571000Z</time>
      </trkpt>
      <trkpt lat="45.70784568786621" lon="10.297257900238037">
        <ele>702.3503953255446</ele>
        <time>2017-11-21T09:37:51.295000Z</time>
      </trkpt>
      <trkpt lat="45.70795297622681" lon="10.29717206954956">
        <ele>703.327881313583</ele>
        <time>2017-11-21T09:37:51.492000Z</time>
      </trkpt>
      <trkpt lat="45.707995891571045" lon="10.296978950500488">
        <ele>704.6092825413263</ele>
        <time>2017-11-21T09:37:51.719000Z</time>
      </trkpt>
      <trkpt lat="45.707974433898926" lon="10.296356678009033">
        <ele>704.8819521028064</ele>
        <time>2017-11-21T09:37:52.416000Z</time>
      </trkpt>
      <trkpt lat="45.70808172225952" lon="10.296099185943604">
        <ele>705.8856971660647</ele>
        <time>2017-11-21T09:37:52.752000Z</time>
      </trkpt>
      <trkpt lat="45.70838212966919" lon="10.29569149017334">
        <ele>709.20307403194</ele>
        <time>2017-11-21T09:37:53.416000Z</time>
      </trkpt>
      <trkpt lat="45.70915460586548" lon="10.295562744140625">
        <ele>712.9311270121476</ele>
        <time>2017-11-21T09:37:54.663000Z</time>
      </trkpt>
      <trkpt lat="45.709240436553955" lon="10.295476913452148">
        <ele>723.9706218740702</ele>
        <time>2017-11-21T09:37:54.831000Z</time>
      </trkpt>
      <trkpt lat="45.70930480957031" lon="10.295326709747314">
        <ele>724.0855856295125</ele>
        <time>2017-11-21T09:37:55.028000Z</time>
      </trkpt>
      <trkpt lat="45.70931070178724" lon="10.29528269560908">
        <ele>724.114820070501</ele>
        <time>2017-11-21T09:37:55.078000Z</time>
      </trkpt>
      <trkpt lat="45.709310877789065" lon="10.295281380894895">
        <ele>724.1156933110886</ele>
        <time>2017-11-21T09:37:55.080000Z</time>
      </trkpt>
      <trkpt lat="45.709311766549945" lon="10.295274741947651">
        <ele>724.1201029372406</ele>
        <time>2017-11-21T09:37:55.088000Z</time>
      </trkpt>
      <trkpt lat="45.709311766549945" lon="10.295274490490556">
        <ele>724.1202669693507</ele>
        <time>2017-11-21T09:37:55.089000Z</time>
      </trkpt>
      <trkpt lat="45.70934772491455" lon="10.295004844665527">
        <ele>724.299342674159</ele>
        <time>2017-11-21T09:37:55.396000Z</time>
      </trkpt>
      <trkpt lat="45.70915460586548" lon="10.294404029846191">
        <ele>717.0641277722416</ele>
        <time>2017-11-21T09:37:56.136000Z</time>
      </trkpt>
      <trkpt lat="45.70915460586548" lon="10.29416799545288">
        <ele>717.1357473519402</ele>
        <time>2017-11-21T09:37:56.400000Z</time>
      </trkpt>
      <trkpt lat="45.70941209793091" lon="10.292987823486328">
        <ele>720.8442493322158</ele>
        <time>2017-11-21T09:37:57.784000Z</time>
      </trkpt>
      <trkpt lat="45.70958375930786" lon="10.292537212371826">
        <ele>721.0</ele>
        <time>2017-11-21T09:37:58.359000Z</time>
      </trkpt>
      <trkpt lat="45.70984125137329" lon="10.292150974273682">
        <ele>716.116543027072</ele>
        <time>2017-11-21T09:37:58.957000Z</time>
      </trkpt>
      <trkpt lat="45.71039915084839" lon="10.291807651519775">
        <ele>723.2206920038922</ele>
        <time>2017-11-21T09:37:59.930000Z</time>
      </trkpt>
      <trkpt lat="45.7106351852417" lon="10.29142141342163">
        <ele>716.691935329313</ele>
        <time>2017-11-21T09:38:00.505000Z</time>
      </trkpt>
      <trkpt lat="45.71072471931082" lon="10.291165461913454">
        <ele>717.2670183761246</ele>
        <time>2017-11-21T09:38:00.825000Z</time>
      </trkpt>
      <trkpt lat="45.71072513799619" lon="10.29116426500966">
        <ele>717.2697076293312</ele>
        <time>2017-11-21T09:38:00.827000Z</time>
      </trkpt>
      <trkpt lat="45.71072713471949" lon="10.291158556938171">
        <ele>717.282532760922</ele>
        <time>2017-11-21T09:38:00.834000Z</time>
      </trkpt>
      <trkpt lat="45.71072721853852" lon="10.291158305481076">
        <ele>717.2830925088882</ele>
        <time>2017-11-21T09:38:00.834000Z</time>
      </trkpt>
      <trkpt lat="45.71093559265137" lon="10.290563106536865">
        <ele>724.2872911462138</ele>
        <time>2017-11-21T09:38:01.579000Z</time>
      </trkpt>
      <trkpt lat="45.71093559265137" lon="10.289876461029053">
        <ele>723.0</ele>
        <time>2017-11-21T09:38:02.348000Z</time>
      </trkpt>
      <trkpt lat="45.71104288101196" lon="10.289597511291504">
        <ele>724.2966123227789</ele>
        <time>2017-11-21T09:38:02.705000Z</time>
      </trkpt>
      <trkpt lat="45.71168661117554" lon="10.288739204406738">
        <ele>733.4249278083557</ele>
        <time>2017-11-21T09:38:04.115000Z</time>
      </trkpt>
      <trkpt lat="45.712244510650635" lon="10.288782119750977">
        <ele>735.4209713323912</ele>
        <time>2017-11-21T09:38:05.011000Z</time>
      </trkpt>
      <trkpt lat="45.71237325668335" lon="10.288653373718262">
        <ele>735.9819688683116</ele>
        <time>2017-11-21T09:38:05.263000Z</time>
      </trkpt>
      <trkpt lat="45.71241617202759" lon="10.28843879699707">
        <ele>736.1283171336696</ele>
        <time>2017-11-21T09:38:05.513000Z</time>
      </trkpt>
      <trkpt lat="45.71239471435547" lon="10.288224220275879">
        <ele>738.2704435229283</ele>
        <time>2017-11-21T09:38:05.756000Z</time>
      </trkpt>
      <trkpt lat="45.7122015953064" lon="10.287666320800781">
        <ele>738.6787208984593</ele>
        <time>2017-11-21T09:38:06.453000Z</time>
      </trkpt>
      <trkpt lat="45.7120943069458" lon="10.287001132965088">
        <ele>737.9591078801612</ele>
        <time>2017-11-21T09:38:07.217000Z</time>
      </trkpt>
      <trkpt lat="45.711772441864014" lon="10.286593437194824">
        <ele>733.0428650721193</ele>
        <time>2017-11-21T09:38:07.906000Z</time>
      </trkpt>
      <trkpt lat="45.711772441864014" lon="10.286421775817871">
        <ele>732.6942916875296</ele>
        <time>2017-11-21T09:38:08.098000Z</time>
      </trkpt>
      <trkpt lat="45.71185827255249" lon="10.28618574142456">
        <ele>732.1539060153867</ele>
        <time>2017-11-21T09:38:08.396000Z</time>
      </trkpt>
      <trkpt lat="45.71183681488037" lon="10.286164283752441">
        <ele>732.1359990627589</ele>
        <time>2017-11-21T09:38:08.438000Z</time>
      </trkpt>
      <trkpt lat="45.71213722229004" lon="10.28597116470337">
        <ele>731.9106937321807</ele>
        <time>2017-11-21T09:38:08.966000Z</time>
      </trkpt>
      <trkpt lat="45.7131028175354" lon="10.285820960998535">
        <ele>731.3333333333334</ele>
        <time>2017-11-21T09:38:10.523000Z</time>
      </trkpt>
      <trkpt lat="45.71333885192871" lon="10.28569221496582">
        <ele>735.7257035100325</ele>
        <time>2017-11-21T09:38:10.928000Z</time>
      </trkpt>
      <trkpt lat="45.713703632354736" lon="10.284919738769531">
        <ele>731.8779030451515</ele>
        <time>2017-11-21T09:38:11.972000Z</time>
      </trkpt>
      <trkpt lat="45.71409568134023" lon="10.284425365714261">
        <ele>732.0</ele>
        <time>2017-11-21T09:38:12.809000Z</time>
      </trkpt>
      <trkpt lat="45.7140963829289" lon="10.28442448100364">
        <ele>732.0056076406917</ele>
        <time>2017-11-21T09:38:12.811000Z</time>
      </trkpt>
      <trkpt lat="45.71409992873669" lon="10.284420009702444">
        <ele>732.0339484871192</ele>
        <time>2017-11-21T09:38:12.818000Z</time>
      </trkpt>
      <trkpt lat="45.714099844917655" lon="10.284420177340508">
        <ele>732.0348121251972</ele>
        <time>2017-11-21T09:38:12.818000Z</time>
      </trkpt>
      <trkpt lat="45.71469068527222" lon="10.283675193786621">
        <ele>741.0903777274569</ele>
        <time>2017-11-21T09:38:14.080000Z</time>
      </trkpt>
      <trkpt lat="45.714712142944336" lon="10.283353328704834">
        <ele>742.4446656327509</ele>
        <time>2017-11-21T09:38:14.442000Z</time>
      </trkpt>
      <trkpt lat="45.71460485458374" lon="10.282731056213379">
        <ele>743.17576206355</ele>
        <time>2017-11-21T09:38:15.159000Z</time>
      </trkpt>
      <trkpt lat="45.7145619392395" lon="10.282580852508545">
        <ele>743.2764761143741</ele>
        <time>2017-11-21T09:38:15.341000Z</time>
      </trkpt>
      <trkpt lat="45.71454048156738" lon="10.282108783721924">
        <ele>742.236715245665</ele>
        <time>2017-11-21T09:38:15.871000Z</time>
      </trkpt>
      <trkpt lat="45.71464776992798" lon="10.281744003295898">
        <ele>742.0</ele>
        <time>2017-11-21T09:38:16.314000Z</time>
      </trkpt>
      <trkpt lat="45.714755058288574" lon="10.281658172607422">
        <ele>740.7267881944404</ele>
        <time>2017-11-21T09:38:16.511000Z</time>
      </trkpt>
      <trkpt lat="45.71509838104248" lon="10.281486511230469">
        <ele>744.5713579511342</ele>
        <time>2017-11-21T09:38:17.094000Z</time>
      </trkpt>
      <trkpt lat="45.71533441543579" lon="10.280992984771729">
        <ele>744.775696535646</ele>
        <time>2017-11-21T09:38:17.764000Z</time>
      </trkpt>
      <trkpt lat="45.715742111206055" lon="10.28069257736206">
        <ele>743.3333333333334</ele>
        <time>2017-11-21T09:38:18.499000Z</time>
      </trkpt>
      <trkpt lat="45.71589231491089" lon="10.28045654296875">
        <ele>741.2425482796907</ele>
        <time>2017-11-21T09:38:18.856000Z</time>
      </trkpt>
      <trkpt lat="45.71638592518866" lon="10.280177593231201">
        <ele>737.8534847268925</ele>
        <time>2017-11-21T09:38:19.707000Z</time>
      </trkpt>
      <trkpt lat="45.71677207946777" lon="10.279855728149414">
        <ele>726.7891503239481</ele>
        <time>2017-11-21T09:38:20.423000Z</time>
      </trkpt>
      <trkpt lat="45.717222690582275" lon="10.279684066772461">
        <ele>725.7893367128041</ele>
        <time>2017-11-21T09:38:21.171000Z</time>
      </trkpt>
      <trkpt lat="45.71741589345038" lon="10.27946949005127">
        <ele>725.2651034742944</ele>
        <time>2017-11-21T09:38:21.563000Z</time>
      </trkpt>
      <trkpt lat="45.71842432022095" lon="10.279018878936768">
        <ele>724.0</ele>
        <time>2017-11-21T09:38:23.257000Z</time>
      </trkpt>
      <trkpt lat="45.71846289281324" lon="10.278961888127006">
        <ele>723.7506180270392</ele>
        <time>2017-11-21T09:38:23.346000Z</time>
      </trkpt>
      <trkpt lat="45.71846354346956" lon="10.278960926784558">
        <ele>723.7464113601918</ele>
        <time>2017-11-21T09:38:23.346000Z</time>
      </trkpt>
      <trkpt lat="45.718467151746154" lon="10.278955595567822">
        <ele>723.7230828878525</ele>
        <time>2017-11-21T09:38:23.354000Z</time>
      </trkpt>
      <trkpt lat="45.718467235565186" lon="10.27895551174879">
        <ele>723.7226228603582</ele>
        <time>2017-11-21T09:38:23.354000Z</time>
      </trkpt>
      <trkpt lat="45.71883201599121" lon="10.278418064117432">
        <ele>721.3676414677257</ele>
        <time>2017-11-21T09:38:24.193000Z</time>
      </trkpt>
      <trkpt lat="45.71889638900757" lon="10.278139114379883">
        <ele>718.1112561422216</ele>
        <time>2017-11-21T09:38:24.522000Z</time>
      </trkpt>
      <trkpt lat="45.71911096572876" lon="10.277581214904785">
        <ele>718.2117826088823</ele>
        <time>2017-11-21T09:38:25.235000Z</time>
      </trkpt>
      <trkpt lat="45.719153881073" lon="10.277345180511475">
        <ele>717.9169435992384</ele>
        <time>2017-11-21T09:38:25.508000Z</time>
      </trkpt>
      <trkpt lat="45.71913242340088" lon="10.277066230773926">
        <ele>717.9612349572043</ele>
        <time>2017-11-21T09:38:25.822000Z</time>
      </trkpt>
      <trkpt lat="45.71906813420355" lon="10.276916027069092">
        <ele>717.9890409175117</ele>
        <time>2017-11-21T09:38:26.019000Z</time>
      </trkpt>
      <trkpt lat="45.71866035461426" lon="10.2756929397583">
        <ele>722.6216024393301</ele>
        <time>2017-11-21T09:38:27.536000Z</time>
      </trkpt>
      <trkpt lat="45.718703269958496" lon="10.275070667266846">
        <ele>722.757051588885</ele>
        <time>2017-11-21T09:38:28.236000Z</time>
      </trkpt>
      <trkpt lat="45.71863889694214" lon="10.274813175201416">
        <ele>723.4829624978023</ele>
        <time>2017-11-21T09:38:28.542000Z</time>
      </trkpt>
      <trkpt lat="45.718252658843994" lon="10.274426937103271">
        <ele>712.9465431325865</ele>
        <time>2017-11-21T09:38:29.297000Z</time>
      </trkpt>
      <trkpt lat="45.71790933609009" lon="10.27369737625122">
        <ele>709.0016631578642</ele>
        <time>2017-11-21T09:38:30.282000Z</time>
      </trkpt>
      <trkpt lat="45.717716217041016" lon="10.27320384979248">
        <ele>700.8504243925981</ele>
        <time>2017-11-21T09:38:30.915000Z</time>
      </trkpt>
      <trkpt lat="45.71767330169678" lon="10.272881984710693">
        <ele>698.5820918949399</ele>
        <time>2017-11-21T09:38:31.282000Z</time>
      </trkpt>
      <trkpt lat="45.7176947593689" lon="10.272624492645264">
        <ele>696.7869864726332</ele>
        <time>2017-11-21T09:38:31.572000Z</time>
      </trkpt>
      <trkpt lat="45.71778059005737" lon="10.272324085235596">
        <ele>688.8734101596423</ele>
        <time>2017-11-21T09:38:31.935000Z</time>
      </trkpt>
      <trkpt lat="45.718016624450684" lon="10.272088050842285">
        <ele>686.0192549029226</ele>
        <time>2017-11-21T09:38:32.397000Z</time>
      </trkpt>
      <trkpt lat="45.717973709106445" lon="10.271894931793213">
        <ele>684.6163413406629</ele>
        <time>2017-11-21T09:38:32.624000Z</time>
      </trkpt>
      <trkpt lat="45.71786642074585" lon="10.271916389465332">
        <ele>684.8004395142647</ele>
        <time>2017-11-21T09:38:32.798000Z</time>
      </trkpt>
      <trkpt lat="45.71754455566406" lon="10.272388458251953">
        <ele>685.5833487362282</ele>
        <time>2017-11-21T09:38:33.537000Z</time>
      </trkpt>
      <trkpt lat="45.71743726730347" lon="10.272667407989502">
        <ele>686.0068584409406</ele>
        <time>2017-11-21T09:38:33.893000Z</time>
      </trkpt>
      <trkpt lat="45.7175874710083" lon="10.273633003234863">
        <ele>704.8682838399574</ele>
        <time>2017-11-21T09:38:35Z</time>
      </trkpt>
      <trkpt lat="45.71784496307373" lon="10.274748802185059">
        <ele>705.5998954519031</ele>
        <time>2017-11-21T09:38:36.315000Z</time>
      </trkpt>
      <trkpt lat="45.71784496307373" lon="10.27496337890625">
        <ele>705.8552104499007</ele>
        <time>2017-11-21T09:38:36.555000Z</time>
      </trkpt>
      <trkpt lat="45.71763038635254" lon="10.275650024414062">
        <ele>698.2140666476739</ele>
        <time>2017-11-21T09:38:37.397000Z</time>
      </trkpt>
      <trkpt lat="45.717008113861084" lon="10.276315212249756">
        <ele>678.5883133332336</ele>
        <time>2017-11-21T09:38:38.642000Z</time>
      </trkpt>
      <trkpt lat="45.71687936782837" lon="10.276379585266113">
        <ele>677.8549087772553</ele>
        <time>2017-11-21T09:38:38.861000Z</time>
      </trkpt>
      <trkpt lat="45.71677207946777" lon="10.276293754577637">
        <ele>677.1939770072155</ele>
        <time>2017-11-21T09:38:39.058000Z</time>
      </trkpt>
      <trkpt lat="45.716750621795654" lon="10.276014804840088">
        <ele>676.1401545929574</ele>
        <time>2017-11-21T09:38:39.372000Z</time>
      </trkpt>
      <trkpt lat="45.71717977523804" lon="10.274791717529297">
        <ele>670.0</ele>
        <time>2017-11-21T09:38:40.904000Z</time>
      </trkpt>
      <trkpt lat="45.717201232910156" lon="10.274405479431152">
        <ele>667.2406121331891</ele>
        <time>2017-11-21T09:38:41.338000Z</time>
      </trkpt>
      <trkpt lat="45.71709394454956" lon="10.27395486831665">
        <ele>664.849998928733</ele>
        <time>2017-11-21T09:38:41.871000Z</time>
      </trkpt>
      <trkpt lat="45.71662187576294" lon="10.272839069366455">
        <ele>646.2251252609215</ele>
        <time>2017-11-21T09:38:43.331000Z</time>
      </trkpt>
      <trkpt lat="45.716471672058105" lon="10.27219533920288">
        <ele>640.8778415047922</ele>
        <time>2017-11-21T09:38:44.091000Z</time>
      </trkpt>
      <trkpt lat="45.716467715873364" lon="10.272156323020491">
        <ele>640.7079934496961</ele>
        <time>2017-11-21T09:38:44.135000Z</time>
      </trkpt>
      <trkpt lat="45.71646758152409" lon="10.272154998060543">
        <ele>640.702225538402</ele>
        <time>2017-11-21T09:38:44.135000Z</time>
      </trkpt>
      <trkpt lat="45.716466810554266" lon="10.27214739471674">
        <ele>640.6691261125299</ele>
        <time>2017-11-21T09:38:44.143000Z</time>
      </trkpt>
      <trkpt lat="45.716466810554266" lon="10.272147310897708">
        <ele>640.6687650135337</ele>
        <time>2017-11-21T09:38:44.143000Z</time>
      </trkpt>
      <trkpt lat="45.71642875671387" lon="10.271766185760498">
        <ele>639.010143252195</ele>
        <time>2017-11-21T09:38:44.574000Z</time>
      </trkpt>
      <trkpt lat="45.71655750274658" lon="10.271315574645996">
        <ele>632.9126275608911</ele>
        <time>2017-11-21T09:38:45.119000Z</time>
      </trkpt>
      <trkpt lat="45.71694374084473" lon="10.270521640777588">
        <ele>629.7694579234675</ele>
        <time>2017-11-21T09:38:46.202000Z</time>
      </trkpt>
      <trkpt lat="45.71694374084473" lon="10.270371437072754">
        <ele>629.5920093120682</ele>
        <time>2017-11-21T09:38:46.370000Z</time>
      </trkpt>
      <trkpt lat="45.71685791015625" lon="10.270285606384277">
        <ele>629.4148844754305</ele>
        <time>2017-11-21T09:38:46.538000Z</time>
      </trkpt>
      <trkpt lat="45.716750621795654" lon="10.270328521728516">
        <ele>629.2264017328911</ele>
        <time>2017-11-21T09:38:46.717000Z</time>
      </trkpt>
      <trkpt lat="45.71634292602539" lon="10.271186828613281">
        <ele>630.0</ele>
        <time>2017-11-21T09:38:47.879000Z</time>
      </trkpt>
      <trkpt lat="45.716257095336914" lon="10.27122974395752">
        <ele>629.0747029384605</ele>
        <time>2017-11-21T09:38:48.025000Z</time>
      </trkpt>
      <trkpt lat="45.71614980697632" lon="10.271143913269043">
        <ele>627.823908068066</ele>
        <time>2017-11-21T09:38:48.222000Z</time>
      </trkpt>
      <trkpt lat="45.71614980697632" lon="10.271015167236328">
        <ele>626.908976835622</ele>
        <time>2017-11-21T09:38:48.366000Z</time>
      </trkpt>
      <trkpt lat="45.716214179992676" lon="10.270800590515137">
        <ele>620.2492931812313</ele>
        <time>2017-11-21T09:38:48.627000Z</time>
      </trkpt>
      <trkpt lat="45.71681499481201" lon="10.269684791564941">
        <ele>607.5691511544352</ele>
        <time>2017-11-21T09:38:50.204000Z</time>
      </trkpt>
      <trkpt lat="45.71692228317261" lon="10.269620418548584">
        <ele>608.5355805777239</ele>
        <time>2017-11-21T09:38:50.390000Z</time>
      </trkpt>
      <trkpt lat="45.71754455566406" lon="10.2701997756958">
        <ele>630.2266774722885</ele>
        <time>2017-11-21T09:38:51.580000Z</time>
      </trkpt>
      <trkpt lat="45.71763038635254" lon="10.270092487335205">
        <ele>629.0016667527206</ele>
        <time>2017-11-21T09:38:51.763000Z</time>
      </trkpt>
      <trkpt lat="45.71754832059057" lon="10.269374888834799">
        <ele>617.8756421815157</ele>
        <time>2017-11-21T09:38:52.577000Z</time>
      </trkpt>
      <trkpt lat="45.717548169482804" lon="10.269373567558189">
        <ele>617.8655901435412</ele>
        <time>2017-11-21T09:38:52.579000Z</time>
      </trkpt>
      <trkpt lat="45.71754748933017" lon="10.26936762034893">
        <ele>617.8203448300496</ele>
        <time>2017-11-21T09:38:52.586000Z</time>
      </trkpt>
      <trkpt lat="45.71754748933017" lon="10.269367368891835">
        <ele>617.818456947988</ele>
        <time>2017-11-21T09:38:52.586000Z</time>
      </trkpt>
      <trkpt lat="45.71754455566406" lon="10.269341468811035">
        <ele>617.6214628446329</ele>
        <time>2017-11-21T09:38:52.615000Z</time>
      </trkpt>
      <trkpt lat="45.71754455566406" lon="10.269062519073486">
        <ele>611.5271722343955</ele>
        <time>2017-11-21T09:38:52.927000Z</time>
      </trkpt>
      <trkpt lat="45.71765184402466" lon="10.268847942352295">
        <ele>611.666211458189</ele>
        <time>2017-11-21T09:38:53.222000Z</time>
      </trkpt>
      <trkpt lat="45.71786642074585" lon="10.2687406539917">
        <ele>611.8376996813731</ele>
        <time>2017-11-21T09:38:53.586000Z</time>
      </trkpt>
      <trkpt lat="45.71808099746704" lon="10.268762111663818">
        <ele>612.0</ele>
        <time>2017-11-21T09:38:53.931000Z</time>
      </trkpt>
      <trkpt lat="45.71816682815552" lon="10.268676280975342">
        <ele>611.668702490823</ele>
        <time>2017-11-21T09:38:54.099000Z</time>
      </trkpt>
      <trkpt lat="45.71818828582764" lon="10.26848316192627">
        <ele>611.2366062652519</ele>
        <time>2017-11-21T09:38:54.318000Z</time>
      </trkpt>
      <trkpt lat="45.71765184402466" lon="10.26771068572998">
        <ele>608.8291288964097</ele>
        <time>2017-11-21T09:38:55.537000Z</time>
      </trkpt>
      <trkpt lat="45.7175874710083" lon="10.26747465133667">
        <ele>604.4713112315479</ele>
        <time>2017-11-21T09:38:55.821000Z</time>
      </trkpt>
      <trkpt lat="45.71763038635254" lon="10.267260074615479">
        <ele>603.2752944756453</ele>
        <time>2017-11-21T09:38:56.071000Z</time>
      </trkpt>
      <trkpt lat="45.71795233525336" lon="10.26648759841919">
        <ele>597.1214102175362</ele>
        <time>2017-11-21T09:38:57.078000Z</time>
      </trkpt>
      <trkpt lat="45.718252658843994" lon="10.265629291534424">
        <ele>595.340354484705</ele>
        <time>2017-11-21T09:38:58.153000Z</time>
      </trkpt>
      <trkpt lat="45.71881064213812" lon="10.265500545501709">
        <ele>613.8775923668833</ele>
        <time>2017-11-21T09:38:59.059000Z</time>
      </trkpt>
      <trkpt lat="45.71885355748236" lon="10.265371799468994">
        <ele>614.2979266731629</ele>
        <time>2017-11-21T09:38:59.219000Z</time>
      </trkpt>
      <trkpt lat="45.71878910064697" lon="10.265178680419922">
        <ele>614.9285812003778</ele>
        <time>2017-11-21T09:38:59.459000Z</time>
      </trkpt>
      <trkpt lat="45.718209743499756" lon="10.264642238616943">
        <ele>611.1731526820091</ele>
        <time>2017-11-21T09:39:00.565000Z</time>
      </trkpt>
      <trkpt lat="45.7178719628621" lon="10.263947833266581">
        <ele>619.0</ele>
        <time>2017-11-21T09:39:01.512000Z</time>
      </trkpt>
      <trkpt lat="45.71787142848546" lon="10.263946734715004">
        <ele>618.989717605294</ele>
        <time>2017-11-21T09:39:01.514000Z</time>
      </trkpt>
      <trkpt lat="45.717868683859706" lon="10.263941092416644">
        <ele>618.9369059347526</ele>
        <time>2017-11-21T09:39:01.522000Z</time>
      </trkpt>
      <trkpt lat="45.71786851622164" lon="10.26394092477858">
        <ele>618.9346570171068</ele>
        <time>2017-11-21T09:39:01.522000Z</time>
      </trkpt>
      <trkpt lat="45.71782350540161" lon="10.263848304748535">
        <ele>618.0680075817618</ele>
        <time>2017-11-21T09:39:01.648000Z</time>
      </trkpt>
      <trkpt lat="45.71760892868042" lon="10.263633728027344">
        <ele>615.189388612464</ele>
        <time>2017-11-21T09:39:02.068000Z</time>
      </trkpt>
      <trkpt lat="45.71739435195923" lon="10.263290405273438">
        <ele>604.6506180029057</ele>
        <time>2017-11-21T09:39:02.584000Z</time>
      </trkpt>
      <trkpt lat="45.71711540222168" lon="10.262625217437744">
        <ele>598.6913998777891</ele>
        <time>2017-11-21T09:39:03.453000Z</time>
      </trkpt>
      <trkpt lat="45.71705102920532" lon="10.262646675109863">
        <ele>598.0466375511941</ele>
        <time>2017-11-21T09:39:03.559000Z</time>
      </trkpt>
      <trkpt lat="45.716986656188965" lon="10.26273250579834">
        <ele>597.1886595903949</ele>
        <time>2017-11-21T09:39:03.700000Z</time>
      </trkpt>
      <trkpt lat="45.716986656188965" lon="10.262839794158936">
        <ele>596.4578978027073</ele>
        <time>2017-11-21T09:39:03.820000Z</time>
      </trkpt>
      <trkpt lat="45.717458724975586" lon="10.263762474060059">
        <ele>584.0</ele>
        <time>2017-11-21T09:39:05.100000Z</time>
      </trkpt>
      <trkpt lat="45.7176947593689" lon="10.264019966125488">
        <ele>597.3338964730347</ele>
        <time>2017-11-21T09:39:05.576000Z</time>
      </trkpt>
      <trkpt lat="45.71765184402466" lon="10.264191627502441">
        <ele>592.7159112059862</ele>
        <time>2017-11-21T09:39:05.780000Z</time>
      </trkpt>
      <trkpt lat="45.71752309799194" lon="10.26421308517456">
        <ele>593.4442400441912</ele>
        <time>2017-11-21T09:39:05.988000Z</time>
      </trkpt>
      <trkpt lat="45.71735143661499" lon="10.263826847076416">
        <ele>588.9071997455713</ele>
        <time>2017-11-21T09:39:06.500000Z</time>
      </trkpt>
      <trkpt lat="45.716750621795654" lon="10.263097286224365">
        <ele>598.0</ele>
        <time>2017-11-21T09:39:07.763000Z</time>
      </trkpt>
      <trkpt lat="45.71664333343506" lon="10.262410640716553">
        <ele>578.5217840713735</ele>
        <time>2017-11-21T09:39:08.551000Z</time>
      </trkpt>
      <trkpt lat="45.716514587402344" lon="10.261938571929932">
        <ele>571.6948894086602</ele>
        <time>2017-11-21T09:39:09.118000Z</time>
      </trkpt>
      <trkpt lat="45.71650893217338" lon="10.261925393688069">
        <ele>571.5571922380931</ele>
        <time>2017-11-21T09:39:09.135000Z</time>
      </trkpt>
      <trkpt lat="45.716508442699606" lon="10.261924253079583">
        <ele>571.5452742163219</ele>
        <time>2017-11-21T09:39:09.136000Z</time>
      </trkpt>
      <trkpt lat="45.71650545112789" lon="10.261917281895876">
        <ele>571.4724335119271</ele>
        <time>2017-11-21T09:39:09.145000Z</time>
      </trkpt>
      <trkpt lat="45.71650528348982" lon="10.261917114257812">
        <ele>571.4698267821205</ele>
        <time>2017-11-21T09:39:09.145000Z</time>
      </trkpt>
      <trkpt lat="45.71589231491089" lon="10.26050090789795">
        <ele>558.9703453104537</ele>
        <time>2017-11-21T09:39:11.010000Z</time>
      </trkpt>
      <trkpt lat="45.71578502655029" lon="10.259771347045898">
        <ele>541.0</ele>
        <time>2017-11-21T09:39:11.845000Z</time>
      </trkpt>
      <trkpt lat="45.71591377258301" lon="10.259256362915039">
        <ele>555.6334662783484</ele>
        <time>2017-11-21T09:39:12.457000Z</time>
      </trkpt>
      <trkpt lat="45.715978145599365" lon="10.25874137878418">
        <ele>565.6301042345815</ele>
        <time>2017-11-21T09:39:13.043000Z</time>
      </trkpt>
      <trkpt lat="45.71589231491089" lon="10.258269309997559">
        <ele>576.1763856833818</ele>
        <time>2017-11-21T09:39:13.589000Z</time>
      </trkpt>
      <trkpt lat="45.7156777381897" lon="10.257925987243652">
        <ele>563.3711363333742</ele>
        <time>2017-11-21T09:39:14.105000Z</time>
      </trkpt>
      <trkpt lat="45.71514129638672" lon="10.257325172424316">
        <ele>567.0</ele>
        <time>2017-11-21T09:39:15.197000Z</time>
      </trkpt>
      <trkpt lat="45.71486234664917" lon="10.257153511047363">
        <ele>556.7470227334442</ele>
        <time>2017-11-21T09:39:15.684000Z</time>
      </trkpt>
      <trkpt lat="45.71458339691162" lon="10.25672435760498">
        <ele>552.810127407854</ele>
        <time>2017-11-21T09:39:16.340000Z</time>
      </trkpt>
      <trkpt lat="45.71432590484619" lon="10.25648832321167">
        <ele>550.5368762689985</ele>
        <time>2017-11-21T09:39:16.830000Z</time>
      </trkpt>
      <trkpt lat="45.71432590484619" lon="10.256209373474121">
        <ele>548.6638583522328</ele>
        <time>2017-11-21T09:39:17.142000Z</time>
      </trkpt>
      <trkpt lat="45.714476108551025" lon="10.255844593048096">
        <ele>545.820346209562</ele>
        <time>2017-11-21T09:39:17.616000Z</time>
      </trkpt>
      <trkpt lat="45.714476108551025" lon="10.25571584701538">
        <ele>540.9382708935708</ele>
        <time>2017-11-21T09:39:17.760000Z</time>
      </trkpt>
      <trkpt lat="45.71441173553467" lon="10.255630016326904">
        <ele>540.0752635218169</ele>
        <time>2017-11-21T09:39:17.901000Z</time>
      </trkpt>
      <trkpt lat="45.71387529373169" lon="10.255415439605713">
        <ele>533.6100928428737</ele>
        <time>2017-11-21T09:39:18.794000Z</time>
      </trkpt>
      <trkpt lat="45.71359634399414" lon="10.255115032196045">
        <ele>529.0036136309374</ele>
        <time>2017-11-21T09:39:19.354000Z</time>
      </trkpt>
      <trkpt lat="45.71318864822388" lon="10.254042148590088">
        <ele>500.53113454672103</ele>
        <time>2017-11-21T09:39:20.721000Z</time>
      </trkpt>
      <trkpt lat="45.71327255648054" lon="10.253270541457606">
        <ele>487.0</ele>
        <time>2017-11-21T09:39:21.595000Z</time>
      </trkpt>
      <trkpt lat="45.713272700323486" lon="10.253269218657485">
        <ele>487.0078403357111</ele>
        <time>2017-11-21T09:39:21.595000Z</time>
      </trkpt>
      <trkpt lat="45.71327338926494" lon="10.25326288305223">
        <ele>487.0453919433498</ele>
        <time>2017-11-21T09:39:21.602000Z</time>
      </trkpt>
      <trkpt lat="45.71327338926494" lon="10.253262631595135">
        <ele>487.0468645971949</ele>
        <time>2017-11-21T09:39:21.602000Z</time>
      </trkpt>
      <trkpt lat="45.71329593658447" lon="10.253055095672607">
        <ele>488.2769187898637</ele>
        <time>2017-11-21T09:39:21.837000Z</time>
      </trkpt>
      <trkpt lat="45.713231563568115" lon="10.252926349639893">
        <ele>489.2042965037276</ele>
        <time>2017-11-21T09:39:22.014000Z</time>
      </trkpt>
      <trkpt lat="45.71312427520752" lon="10.252904891967773">
        <ele>490.1128967730294</ele>
        <time>2017-11-21T09:39:22.188000Z</time>
      </trkpt>
      <trkpt lat="45.712995529174805" lon="10.253076553344727">
        <ele>491.58828132635307</ele>
        <time>2017-11-21T09:39:22.470000Z</time>
      </trkpt>
      <trkpt lat="45.713016986846924" lon="10.253677368164062">
        <ele>498.11155803588167</ele>
        <time>2017-11-21T09:39:23.143000Z</time>
      </trkpt>
      <trkpt lat="45.712995529174805" lon="10.254170894622803">
        <ele>503.6741649216637</ele>
        <time>2017-11-21T09:39:23.697000Z</time>
      </trkpt>
      <trkpt lat="45.71340322494507" lon="10.255951881408691">
        <ele>519.0</ele>
        <time>2017-11-21T09:39:25.795000Z</time>
      </trkpt>
      <trkpt lat="45.713510513305664" lon="10.25648832321167">
        <ele>514.6937620291284</ele>
        <time>2017-11-21T09:39:26.420000Z</time>
      </trkpt>
      <trkpt lat="45.713467597961426" lon="10.25672435760498">
        <ele>508.4781906486418</ele>
        <time>2017-11-21T09:39:26.693000Z</time>
      </trkpt>
      <trkpt lat="45.71331739425659" lon="10.2567458152771">
        <ele>497.47655429307133</ele>
        <time>2017-11-21T09:39:26.935000Z</time>
      </trkpt>
      <trkpt lat="45.71293115615845" lon="10.256059169769287">
        <ele>493.33875552671014</ele>
        <time>2017-11-21T09:39:27.922000Z</time>
      </trkpt>
      <trkpt lat="45.712738037109375" lon="10.25399923324585">
        <ele>496.0</ele>
        <time>2017-11-21T09:39:30.249000Z</time>
      </trkpt>
      <trkpt lat="45.7126522064209" lon="10.252861976623535">
        <ele>488.76998276978173</ele>
        <time>2017-11-21T09:39:31.529000Z</time>
      </trkpt>
      <trkpt lat="45.712738037109375" lon="10.251531600952148">
        <ele>488.64819345935234</ele>
        <time>2017-11-21T09:39:33.025000Z</time>
      </trkpt>
      <trkpt lat="45.71263074874878" lon="10.251574516296387">
        <ele>488.26461955244787</ele>
        <time>2017-11-21T09:39:33.204000Z</time>
      </trkpt>
      <trkpt lat="45.71257209488132" lon="10.251882612100227">
        <ele>488.49680431368233</ele>
        <time>2017-11-21T09:39:33.561000Z</time>
      </trkpt>
      <trkpt lat="45.71257184899186" lon="10.251883903692644">
        <ele>488.4869311988784</ele>
        <time>2017-11-21T09:39:33.562000Z</time>
      </trkpt>
      <trkpt lat="45.712570399045944" lon="10.251891519874334">
        <ele>488.42871202851273</ele>
        <time>2017-11-21T09:39:33.571000Z</time>
      </trkpt>
      <trkpt lat="45.712570399045944" lon="10.25189126841724">
        <ele>488.426857546494</ele>
        <time>2017-11-21T09:39:33.571000Z</time>
      </trkpt>
      <trkpt lat="45.71263074874878" lon="10.251574516296387">
        <ele>485.00543027173336</ele>
        <time>2017-11-21T09:39:33.939000Z</time>
      </trkpt>
      <trkpt lat="45.71273812092841" lon="10.251531600952148">
        <ele>483.82803776187</ele>
        <time>2017-11-21T09:39:34.118000Z</time>
      </trkpt>
      <trkpt lat="45.71273812092841" lon="10.25151014328003">
        <ele>483.6697891045119</ele>
        <time>2017-11-21T09:39:34.142000Z</time>
      </trkpt>
      <trkpt lat="45.71278095245361" lon="10.251359939575195">
        <ele>482.4732366972781</ele>
        <time>2017-11-21T09:39:34.324000Z</time>
      </trkpt>
      <trkpt lat="45.71312435902655" lon="10.249836444854736">
        <ele>462.0</ele>
        <time>2017-11-21T09:39:36.116000Z</time>
      </trkpt>
      <trkpt lat="45.71327447891235" lon="10.249557495117188">
        <ele>460.95744037377443</ele>
        <time>2017-11-21T09:39:36.510000Z</time>
      </trkpt>
      <trkpt lat="45.713489055633545" lon="10.248785018920898">
        <ele>464.8297572615223</ele>
        <time>2017-11-21T09:39:37.441000Z</time>
      </trkpt>
      <trkpt lat="45.71413278579712" lon="10.247304439544678">
        <ele>449.0</ele>
        <time>2017-11-21T09:39:39.393000Z</time>
      </trkpt>
      <trkpt lat="45.71458339691162" lon="10.245695114135742">
        <ele>449.05251040728336</ele>
        <time>2017-11-21T09:39:41.334000Z</time>
      </trkpt>
      <trkpt lat="45.714733600616455" lon="10.24548053741455">
        <ele>449.879477454085</ele>
        <time>2017-11-21T09:39:41.674000Z</time>
      </trkpt>
      <trkpt lat="45.71514129638672" lon="10.245180130004883">
        <ele>462.69051332646177</ele>
        <time>2017-11-21T09:39:42.409000Z</time>
      </trkpt>
      <trkpt lat="45.71533441543579" lon="10.244364738464355">
        <ele>459.25533522492304</ele>
        <time>2017-11-21T09:39:43.373000Z</time>
      </trkpt>
      <trkpt lat="45.715978145599365" lon="10.242927074432373">
        <ele>457.39766098336685</ele>
        <time>2017-11-21T09:39:45.285000Z</time>
      </trkpt>
      <trkpt lat="45.71606397628784" lon="10.24224042892456">
        <ele>442.0</ele>
        <time>2017-11-21T09:39:46.066000Z</time>
      </trkpt>
      <trkpt lat="45.71606397628784" lon="10.241553783416748">
        <ele>436.5694415634659</ele>
        <time>2017-11-21T09:39:46.835000Z</time>
      </trkpt>
      <trkpt lat="45.71606406010687" lon="10.241553783416748">
        <ele>436.5694245653986</ele>
        <time>2017-11-21T09:39:46.835000Z</time>
      </trkpt>
      <trkpt lat="45.71617126464844" lon="10.24125337600708">
        <ele>436.52165476917185</ele>
        <time>2017-11-21T09:39:47.213000Z</time>
      </trkpt>
      <trkpt lat="45.71677207946777" lon="10.24075984954834">
        <ele>443.0478643795756</ele>
        <time>2017-11-21T09:39:48.323000Z</time>
      </trkpt>
      <trkpt lat="45.717008113861084" lon="10.240330696105957">
        <ele>441.23303193400017</ele>
        <time>2017-11-21T09:39:48.934000Z</time>
      </trkpt>
      <trkpt lat="45.71707248687744" lon="10.24000883102417">
        <ele>440.1208053653613</ele>
        <time>2017-11-21T09:39:49.309000Z</time>
      </trkpt>
      <trkpt lat="45.71711540222168" lon="10.239171981811523">
        <ele>433.0</ele>
        <time>2017-11-21T09:39:50.248000Z</time>
      </trkpt>
      <trkpt lat="45.71701242417232" lon="10.238564278934641">
        <ele>430.2586034311824</ele>
        <time>2017-11-21T09:39:50.948000Z</time>
      </trkpt>
      <trkpt lat="45.717012182491885" lon="10.238562852734331">
        <ele>430.255298885062</ele>
        <time>2017-11-21T09:39:50.949000Z</time>
      </trkpt>
      <trkpt lat="45.71701096370816" lon="10.23855566047132">
        <ele>430.23863420932975</ele>
        <time>2017-11-21T09:39:50.957000Z</time>
      </trkpt>
      <trkpt lat="45.71701087988913" lon="10.238555409014225">
        <ele>430.2380067975709</ele>
        <time>2017-11-21T09:39:50.957000Z</time>
      </trkpt>
      <trkpt lat="45.71690082550049" lon="10.237905979156494">
        <ele>431.0665873755186</ele>
        <time>2017-11-21T09:39:51.705000Z</time>
      </trkpt>
      <trkpt lat="45.7168794516474" lon="10.23726224899292">
        <ele>427.94881853666885</ele>
        <time>2017-11-21T09:39:52.426000Z</time>
      </trkpt>
      <trkpt lat="45.71694374084473" lon="10.236597061157227">
        <ele>420.38299701270597</ele>
        <time>2017-11-21T09:39:53.178000Z</time>
      </trkpt>
      <trkpt lat="45.7171368598938" lon="10.235824584960938">
        <ele>417.50955943350215</ele>
        <time>2017-11-21T09:39:54.096000Z</time>
      </trkpt>
      <trkpt lat="45.718016624450684" lon="10.233635902404785">
        <ele>412.0</ele>
        <time>2017-11-21T09:39:56.923000Z</time>
      </trkpt>
      <trkpt lat="45.71868181228638" lon="10.232648849487305">
        <ele>406.37164501267563</ele>
        <time>2017-11-21T09:39:58.459000Z</time>
      </trkpt>
      <trkpt lat="45.718982219696045" lon="10.232434272766113">
        <ele>404.1940026649814</ele>
        <time>2017-11-21T09:39:58.997000Z</time>
      </trkpt>
      <trkpt lat="45.71943595616414" lon="10.232252679242896">
        <ele>403.34241264602343</ele>
        <time>2017-11-21T09:39:59.752000Z</time>
      </trkpt>
      <trkpt lat="45.719436943038716" lon="10.232252284274592">
        <ele>403.3425397936771</ele>
        <time>2017-11-21T09:39:59.753000Z</time>
      </trkpt>
      <trkpt lat="45.71944339200854" lon="10.232249703258276">
        <ele>403.3433706706821</ele>
        <time>2017-11-21T09:39:59.764000Z</time>
      </trkpt>
      <trkpt lat="45.719443559646606" lon="10.232249619439244">
        <ele>403.3433927031724</ele>
        <time>2017-11-21T09:39:59.764000Z</time>
      </trkpt>
      <trkpt lat="45.71984061039984" lon="10.232090950012207">
        <ele>403.39454245054526</ele>
        <time>2017-11-21T09:40:00.425000Z</time>
      </trkpt>
      <trkpt lat="45.72089203633368" lon="10.231597423553467">
        <ele>405.10030758266794</ele>
        <time>2017-11-21T09:40:02.199000Z</time>
      </trkpt>
      <trkpt lat="45.72132110595703" lon="10.231382846832275">
        <ele>405.414104259492</ele>
        <time>2017-11-21T09:40:02.928000Z</time>
      </trkpt>
      <trkpt lat="45.72177171707153" lon="10.231060981750488">
        <ele>407.76177731312026</ele>
        <time>2017-11-21T09:40:03.735000Z</time>
      </trkpt>
      <trkpt lat="45.72196508794478" lon="10.230588297388488">
        <ele>403.7001496203461</ele>
        <time>2017-11-21T09:40:04.348000Z</time>
      </trkpt>
      <trkpt lat="45.721964836120605" lon="10.230588912963867">
        <ele>403.69802273481446</ele>
        <time>2017-11-21T09:40:04.348000Z</time>
      </trkpt>
      <trkpt lat="45.72196483612066" lon="10.230587543986939">
        <ele>403.6939417663307</ele>
        <time>2017-11-21T09:40:04.349000Z</time>
      </trkpt>
      <trkpt lat="45.721964836120605" lon="10.230578016489744">
        <ele>403.66553996131944</ele>
        <time>2017-11-21T09:40:04.360000Z</time>
      </trkpt>
      <trkpt lat="45.721964836120605" lon="10.230577932670712">
        <ele>403.6652900938311</ele>
        <time>2017-11-21T09:40:04.360000Z</time>
      </trkpt>
      <trkpt lat="45.721964836120605" lon="10.230438709259033">
        <ele>403.2502601955609</ele>
        <time>2017-11-21T09:40:04.516000Z</time>
      </trkpt>
      <trkpt lat="45.72193337898105" lon="10.230367875170561">
        <ele>403.0</ele>
        <time>2017-11-21T09:40:04.610000Z</time>
      </trkpt>
    </trkseg>
  </trk>
</gpx>